Wetterdaten: Freitag, 31.05.2024
Datum Zeit Temp. I. Temp. A. Feuchte I. Feuchte A. Luftdruck Regen Wind Richtung Richtung Sonnenschein Solar Taupunkt Windchill Windböen
31.05.2024 00:00 21,7 °C 14,6 °C 63 % 95 % 1004,5 hPa 0,0 l/m² 1,6 km/h (1 Bft) W 270 ° 0 min 0 W/m² 13,8 °C 14,6 °C 6,4 km/h (2 Bft)
31.05.2024 00:01 21,7 °C 14,5 °C 63 % 95 % 1004,6 hPa 0,0 l/m² 3,2 km/h (1 Bft) W 270 ° 0 min 0 W/m² 13,7 °C 14,5 °C 6,4 km/h (2 Bft)
31.05.2024 00:02 21,8 °C 14,6 °C 63 % 95 % 1004,6 hPa 0,0 l/m² 1,6 km/h (1 Bft) W 270 ° 0 min 0 W/m² 13,8 °C 14,6 °C 6,4 km/h (2 Bft)
31.05.2024 00:03 21,7 °C 14,6 °C 63 % 95 % 1004,5 hPa 0,0 l/m² 1,6 km/h (1 Bft) W 270 ° 0 min 0 W/m² 13,8 °C 14,6 °C 3,2 km/h (1 Bft)
31.05.2024 00:04 21,7 °C 14,5 °C 63 % 95 % 1004,5 hPa 0,0 l/m² 1,6 km/h (1 Bft) W 270 ° 0 min 0 W/m² 13,7 °C 14,5 °C 4,8 km/h (1 Bft)
31.05.2024 00:05 21,7 °C 14,6 °C 63 % 95 % 1004,6 hPa 0,0 l/m² 4,8 km/h (1 Bft) W 270 ° 0 min 0 W/m² 13,8 °C 14,6 °C 6,4 km/h (2 Bft)
31.05.2024 00:06 21,7 °C 14,6 °C 63 % 95 % 1004,5 hPa 0,0 l/m² 1,6 km/h (1 Bft) W 270 ° 0 min 0 W/m² 13,8 °C 14,6 °C 3,2 km/h (1 Bft)
31.05.2024 00:07 21,7 °C 14,6 °C 63 % 95 % 1004,6 hPa 0,0 l/m² 1,6 km/h (1 Bft) W 270 ° 0 min 0 W/m² 13,8 °C 14,6 °C 4,8 km/h (1 Bft)
31.05.2024 00:08 21,7 °C 14,5 °C 63 % 95 % 1004,5 hPa 0,0 l/m² 3,2 km/h (1 Bft) W 270 ° 0 min 0 W/m² 13,7 °C 14,5 °C 4,8 km/h (1 Bft)
31.05.2024 00:09 21,7 °C 14,5 °C 63 % 95 % 1004,5 hPa 0,0 l/m² 3,2 km/h (1 Bft) W 270 ° 0 min 0 W/m² 13,7 °C 14,5 °C 6,4 km/h (2 Bft)
31.05.2024 00:10 21,7 °C 14,5 °C 63 % 95 % 1004,5 hPa 0,0 l/m² 4,8 km/h (1 Bft) W 270 ° 0 min 0 W/m² 13,7 °C 14,5 °C 9,7 km/h (2 Bft)
31.05.2024 00:11 21,7 °C 14,5 °C 63 % 95 % 1004,6 hPa 0,0 l/m² 3,2 km/h (1 Bft) W 270 ° 0 min 0 W/m² 13,7 °C 14,5 °C 6,4 km/h (2 Bft)
31.05.2024 00:12 21,7 °C 14,5 °C 63 % 95 % 1004,5 hPa 0,0 l/m² 1,6 km/h (1 Bft) W 270 ° 0 min 0 W/m² 13,7 °C 14,5 °C 4,8 km/h (1 Bft)
31.05.2024 00:13 21,7 °C 14,5 °C 63 % 95 % 1004,5 hPa 0,0 l/m² 3,2 km/h (1 Bft) W 270 ° 0 min 0 W/m² 13,7 °C 14,5 °C 6,4 km/h (2 Bft)
31.05.2024 00:14 21,7 °C 14,5 °C 63 % 95 % 1004,5 hPa 0,0 l/m² 1,6 km/h (1 Bft) W 270 ° 0 min 0 W/m² 13,7 °C 14,5 °C 6,4 km/h (2 Bft)
31.05.2024 00:15 21,7 °C 14,5 °C 63 % 95 % 1004,5 hPa 0,0 l/m² 4,8 km/h (1 Bft) W 270 ° 0 min 0 W/m² 13,7 °C 14,5 °C 9,7 km/h (2 Bft)
31.05.2024 00:16 21,7 °C 14,5 °C 63 % 95 % 1004,5 hPa 0,0 l/m² 1,6 km/h (1 Bft) W 270 ° 0 min 0 W/m² 13,7 °C 14,5 °C 3,2 km/h (1 Bft)
31.05.2024 00:17 21,7 °C 14,4 °C 63 % 95 % 1004,5 hPa 0,0 l/m² 3,2 km/h (1 Bft) W 270 ° 0 min 0 W/m² 13,6 °C 14,4 °C 6,4 km/h (2 Bft)
31.05.2024 00:18 21,7 °C 14,4 °C 63 % 95 % 1004,5 hPa 0,0 l/m² 3,2 km/h (1 Bft) W 270 ° 0 min 0 W/m² 13,6 °C 14,4 °C 4,8 km/h (1 Bft)
31.05.2024 00:19 21,7 °C 14,4 °C 63 % 95 % 1004,5 hPa 0,0 l/m² 3,2 km/h (1 Bft) W 270 ° 0 min 0 W/m² 13,6 °C 14,4 °C 6,4 km/h (2 Bft)
31.05.2024 00:20 21,7 °C 14,4 °C 63 % 95 % 1004,5 hPa 0,0 l/m² 3,2 km/h (1 Bft) W 270 ° 0 min 0 W/m² 13,6 °C 14,4 °C 6,4 km/h (2 Bft)
31.05.2024 00:21 21,7 °C 14,4 °C 63 % 95 % 1004,5 hPa 0,0 l/m² 3,2 km/h (1 Bft) W 270 ° 0 min 0 W/m² 13,6 °C 14,4 °C 4,8 km/h (1 Bft)
31.05.2024 00:22 21,7 °C 14,4 °C 63 % 95 % 1004,5 hPa 0,0 l/m² 1,6 km/h (1 Bft) W 270 ° 0 min 0 W/m² 13,6 °C 14,4 °C 4,8 km/h (1 Bft)
31.05.2024 00:23 21,7 °C 14,3 °C 63 % 95 % 1004,4 hPa 0,0 l/m² 3,2 km/h (1 Bft) W 270 ° 0 min 0 W/m² 13,5 °C 14,3 °C 6,4 km/h (2 Bft)
31.05.2024 00:24 21,7 °C 14,3 °C 63 % 95 % 1004,4 hPa 0,0 l/m² 1,6 km/h (1 Bft) W 270 ° 0 min 0 W/m² 13,5 °C 14,3 °C 4,8 km/h (1 Bft)
31.05.2024 00:25 21,7 °C 14,3 °C 63 % 95 % 1004,5 hPa 0,0 l/m² 3,2 km/h (1 Bft) W 270 ° 0 min 0 W/m² 13,5 °C 14,3 °C 4,8 km/h (1 Bft)
31.05.2024 00:26 21,7 °C 14,3 °C 63 % 95 % 1004,5 hPa 0,0 l/m² 1,6 km/h (1 Bft) W 270 ° 0 min 0 W/m² 13,5 °C 14,3 °C 4,8 km/h (1 Bft)
31.05.2024 00:27 21,7 °C 14,3 °C 63 % 95 % 1004,5 hPa 0,0 l/m² 3,2 km/h (1 Bft) W 270 ° 0 min 0 W/m² 13,5 °C 14,3 °C 6,4 km/h (2 Bft)
31.05.2024 00:28 21,7 °C 14,3 °C 63 % 95 % 1004,5 hPa 0,0 l/m² 1,6 km/h (1 Bft) W 270 ° 0 min 0 W/m² 13,5 °C 14,3 °C 4,8 km/h (1 Bft)
31.05.2024 00:29 21,7 °C 14,3 °C 63 % 95 % 1004,5 hPa 0,0 l/m² 3,2 km/h (1 Bft) W 270 ° 0 min 0 W/m² 13,5 °C 14,3 °C 4,8 km/h (1 Bft)
31.05.2024 00:30 21,7 °C 14,3 °C 63 % 95 % 1004,5 hPa 0,0 l/m² 3,2 km/h (1 Bft) W 270 ° 0 min 0 W/m² 13,5 °C 14,3 °C 4,8 km/h (1 Bft)
31.05.2024 00:31 21,7 °C 14,2 °C 63 % 95 % 1004,5 hPa 0,0 l/m² 1,6 km/h (1 Bft) W 270 ° 0 min 0 W/m² 13,4 °C 14,2 °C 4,8 km/h (1 Bft)
31.05.2024 00:32 21,7 °C 14,2 °C 63 % 95 % 1004,5 hPa 0,0 l/m² 0,0 km/h (0 Bft) W 270 ° 0 min 0 W/m² 13,4 °C 14,2 °C 3,2 km/h (1 Bft)
31.05.2024 00:33 21,7 °C 14,2 °C 63 % 95 % 1004,6 hPa 0,0 l/m² 0,0 km/h (0 Bft) W 270 ° 0 min 0 W/m² 13,4 °C 14,2 °C 1,6 km/h (1 Bft)
31.05.2024 00:34 21,7 °C 14,2 °C 63 % 95 % 1004,6 hPa 0,0 l/m² 1,6 km/h (1 Bft) W 270 ° 0 min 0 W/m² 13,4 °C 14,2 °C 4,8 km/h (1 Bft)
31.05.2024 00:35 21,7 °C 14,1 °C 63 % 95 % 1004,6 hPa 0,0 l/m² 1,6 km/h (1 Bft) W 270 ° 0 min 0 W/m² 13,3 °C 14,1 °C 6,4 km/h (2 Bft)
31.05.2024 00:36 21,7 °C 14,1 °C 63 % 95 % 1004,6 hPa 0,0 l/m² 3,2 km/h (1 Bft) W 270 ° 0 min 0 W/m² 13,3 °C 14,1 °C 6,4 km/h (2 Bft)
31.05.2024 00:37 21,7 °C 14,1 °C 63 % 95 % 1004,6 hPa 0,0 l/m² 3,2 km/h (1 Bft) W-SW 247 ° 0 min 0 W/m² 13,3 °C 14,1 °C 4,8 km/h (1 Bft)
31.05.2024 00:38 21,7 °C 14,1 °C 63 % 95 % 1004,7 hPa 0,0 l/m² 3,2 km/h (1 Bft) W-SW 247 ° 0 min 0 W/m² 13,3 °C 14,1 °C 4,8 km/h (1 Bft)
31.05.2024 00:39 21,7 °C 14,0 °C 63 % 95 % 1004,7 hPa 0,0 l/m² 3,2 km/h (1 Bft) W-SW 247 ° 0 min 0 W/m² 13,2 °C 14,0 °C 4,8 km/h (1 Bft)
31.05.2024 00:40 21,7 °C 14,0 °C 63 % 95 % 1004,7 hPa 0,0 l/m² 1,6 km/h (1 Bft) W-SW 247 ° 0 min 0 W/m² 13,2 °C 14,0 °C 3,2 km/h (1 Bft)
31.05.2024 00:41 21,7 °C 14,0 °C 63 % 95 % 1004,7 hPa 0,0 l/m² 1,6 km/h (1 Bft) W-SW 247 ° 0 min 0 W/m² 13,2 °C 14,0 °C 3,2 km/h (1 Bft)
31.05.2024 00:42 21,7 °C 13,9 °C 63 % 95 % 1004,7 hPa 0,0 l/m² 3,2 km/h (1 Bft) W-SW 247 ° 0 min 0 W/m² 13,1 °C 13,9 °C 6,4 km/h (2 Bft)
31.05.2024 00:43 21,7 °C 14,0 °C 63 % 95 % 1004,7 hPa 0,0 l/m² 3,2 km/h (1 Bft) W-SW 247 ° 0 min 0 W/m² 13,2 °C 14,0 °C 6,4 km/h (2 Bft)
31.05.2024 00:44 21,7 °C 13,9 °C 63 % 95 % 1004,7 hPa 0,0 l/m² 3,2 km/h (1 Bft) W-SW 247 ° 0 min 0 W/m² 13,1 °C 13,9 °C 4,8 km/h (1 Bft)
31.05.2024 00:45 21,7 °C 13,9 °C 63 % 95 % 1004,6 hPa 0,0 l/m² 1,6 km/h (1 Bft) W-SW 247 ° 0 min 0 W/m² 13,1 °C 13,9 °C 3,2 km/h (1 Bft)
31.05.2024 00:46 21,7 °C 14,0 °C 63 % 95 % 1004,7 hPa 0,0 l/m² 1,6 km/h (1 Bft) W-SW 247 ° 0 min 0 W/m² 13,2 °C 14,0 °C 3,2 km/h (1 Bft)
31.05.2024 00:47 21,7 °C 13,9 °C 63 % 95 % 1004,6 hPa 0,0 l/m² 3,2 km/h (1 Bft) W-SW 247 ° 0 min 0 W/m² 13,1 °C 13,9 °C 4,8 km/h (1 Bft)
31.05.2024 00:48 21,7 °C 13,9 °C 63 % 95 % 1004,6 hPa 0,0 l/m² 4,8 km/h (1 Bft) W-SW 247 ° 0 min 0 W/m² 13,1 °C 13,9 °C 4,8 km/h (1 Bft)
31.05.2024 00:49 21,7 °C 14,0 °C 63 % 95 % 1004,7 hPa 0,0 l/m² 1,6 km/h (1 Bft) W-SW 247 ° 0 min 0 W/m² 13,2 °C 14,0 °C 4,8 km/h (1 Bft)
31.05.2024 00:50 21,7 °C 14,0 °C 63 % 95 % 1004,6 hPa 0,0 l/m² 3,2 km/h (1 Bft) W-SW 247 ° 0 min 0 W/m² 13,2 °C 14,0 °C 4,8 km/h (1 Bft)
31.05.2024 00:51 21,7 °C 14,0 °C 63 % 95 % 1004,6 hPa 0,0 l/m² 3,2 km/h (1 Bft) W-SW 247 ° 0 min 0 W/m² 13,2 °C 14,0 °C 4,8 km/h (1 Bft)
31.05.2024 00:52 21,7 °C 14,0 °C 63 % 95 % 1004,7 hPa 0,0 l/m² 3,2 km/h (1 Bft) W-SW 247 ° 0 min 0 W/m² 13,2 °C 14,0 °C 4,8 km/h (1 Bft)
31.05.2024 00:53 21,7 °C 14,0 °C 63 % 95 % 1004,7 hPa 0,0 l/m² 3,2 km/h (1 Bft) W-SW 247 ° 0 min 0 W/m² 13,2 °C 14,0 °C 4,8 km/h (1 Bft)
31.05.2024 00:54 21,7 °C 13,9 °C 63 % 95 % 1004,6 hPa 0,0 l/m² 3,2 km/h (1 Bft) W-SW 247 ° 0 min 0 W/m² 13,1 °C 13,9 °C 4,8 km/h (1 Bft)
31.05.2024 00:55 21,7 °C 13,9 °C 63 % 95 % 1004,6 hPa 0,0 l/m² 3,2 km/h (1 Bft) W-SW 247 ° 0 min 0 W/m² 13,1 °C 13,9 °C 4,8 km/h (1 Bft)
31.05.2024 00:56 21,7 °C 14,0 °C 63 % 95 % 1004,6 hPa 0,0 l/m² 3,2 km/h (1 Bft) W-SW 247 ° 0 min 0 W/m² 13,2 °C 14,0 °C 4,8 km/h (1 Bft)
31.05.2024 00:57 21,7 °C 13,9 °C 63 % 95 % 1004,6 hPa 0,0 l/m² 3,2 km/h (1 Bft) W-SW 247 ° 0 min 0 W/m² 13,1 °C 13,9 °C 4,8 km/h (1 Bft)
31.05.2024 00:58 21,7 °C 14,0 °C 63 % 95 % 1004,6 hPa 0,0 l/m² 3,2 km/h (1 Bft) W-SW 247 ° 0 min 0 W/m² 13,2 °C 14,0 °C 4,8 km/h (1 Bft)
31.05.2024 00:59 21,7 °C 14,0 °C 63 % 95 % 1004,6 hPa 0,0 l/m² 3,2 km/h (1 Bft) W-SW 247 ° 0 min 0 W/m² 13,2 °C 14,0 °C 6,4 km/h (2 Bft)
31.05.2024 01:00 21,7 °C 14,0 °C 63 % 95 % 1004,6 hPa 0,0 l/m² 3,2 km/h (1 Bft) W-SW 247 ° 0 min 0 W/m² 13,2 °C 14,0 °C 4,8 km/h (1 Bft)
31.05.2024 01:01 21,7 °C 14,0 °C 63 % 96 % 1004,6 hPa 0,0 l/m² 3,2 km/h (1 Bft) W-SW 247 ° 0 min 0 W/m² 13,4 °C 14,0 °C 4,8 km/h (1 Bft)
31.05.2024 01:02 21,7 °C 14,0 °C 63 % 95 % 1004,5 hPa 0,0 l/m² 3,2 km/h (1 Bft) W-SW 247 ° 0 min 0 W/m² 13,2 °C 14,0 °C 4,8 km/h (1 Bft)
31.05.2024 01:03 21,7 °C 14,0 °C 63 % 95 % 1004,6 hPa 0,0 l/m² 3,2 km/h (1 Bft) W-SW 247 ° 0 min 0 W/m² 13,2 °C 14,0 °C 3,2 km/h (1 Bft)
31.05.2024 01:04 21,7 °C 14,0 °C 63 % 96 % 1004,6 hPa 0,0 l/m² 1,6 km/h (1 Bft) W-SW 247 ° 0 min 0 W/m² 13,4 °C 14,0 °C 3,2 km/h (1 Bft)
31.05.2024 01:05 21,7 °C 14,0 °C 63 % 96 % 1004,6 hPa 0,0 l/m² 0,0 km/h (0 Bft) W-SW 247 ° 0 min 0 W/m² 13,4 °C 14,0 °C 3,2 km/h (1 Bft)
31.05.2024 01:06 21,7 °C 14,0 °C 63 % 96 % 1004,6 hPa 0,0 l/m² 3,2 km/h (1 Bft) W-SW 247 ° 0 min 0 W/m² 13,4 °C 14,0 °C 4,8 km/h (1 Bft)
31.05.2024 01:07 21,7 °C 14,0 °C 63 % 96 % 1004,6 hPa 0,0 l/m² 3,2 km/h (1 Bft) W-SW 247 ° 0 min 0 W/m² 13,4 °C 14,0 °C 3,2 km/h (1 Bft)
31.05.2024 01:08 21,7 °C 14,0 °C 63 % 96 % 1004,6 hPa 0,0 l/m² 0,0 km/h (0 Bft) W-SW 247 ° 0 min 0 W/m² 13,4 °C 14,0 °C 3,2 km/h (1 Bft)
31.05.2024 01:09 21,7 °C 14,0 °C 62 % 96 % 1004,6 hPa 0,0 l/m² 1,6 km/h (1 Bft) W-SW 247 ° 0 min 0 W/m² 13,4 °C 14,0 °C 3,2 km/h (1 Bft)
31.05.2024 01:10 21,7 °C 14,1 °C 63 % 96 % 1004,6 hPa 0,0 l/m² 0,0 km/h (0 Bft) W-SW 247 ° 0 min 0 W/m² 13,5 °C 14,1 °C 3,2 km/h (1 Bft)
31.05.2024 01:11 21,7 °C 14,1 °C 63 % 96 % 1004,7 hPa 0,0 l/m² 0,0 km/h (0 Bft) W-SW 247 ° 0 min 0 W/m² 13,5 °C 14,1 °C 1,6 km/h (1 Bft)
31.05.2024 01:12 21,7 °C 14,0 °C 62 % 96 % 1004,6 hPa 0,0 l/m² 1,6 km/h (1 Bft) W-SW 247 ° 0 min 0 W/m² 13,4 °C 14,0 °C 3,2 km/h (1 Bft)
31.05.2024 01:13 21,7 °C 14,1 °C 63 % 96 % 1004,7 hPa 0,0 l/m² 0,0 km/h (0 Bft) W-SW 247 ° 0 min 0 W/m² 13,5 °C 14,1 °C 3,2 km/h (1 Bft)
31.05.2024 01:14 21,7 °C 14,1 °C 63 % 96 % 1004,7 hPa 0,0 l/m² 1,6 km/h (1 Bft) W-SW 247 ° 0 min 0 W/m² 13,5 °C 14,1 °C 1,6 km/h (1 Bft)
31.05.2024 01:15 21,7 °C 14,1 °C 63 % 96 % 1004,7 hPa 0,0 l/m² 0,0 km/h (0 Bft) W-SW 247 ° 0 min 0 W/m² 13,5 °C 14,1 °C 3,2 km/h (1 Bft)
31.05.2024 01:16 21,7 °C 14,1 °C 62 % 96 % 1004,8 hPa 0,0 l/m² 3,2 km/h (1 Bft) W-SW 247 ° 0 min 0 W/m² 13,5 °C 14,1 °C 3,2 km/h (1 Bft)
31.05.2024 01:17 21,7 °C 14,1 °C 62 % 96 % 1004,7 hPa 0,0 l/m² 3,2 km/h (1 Bft) W-SW 247 ° 0 min 0 W/m² 13,5 °C 14,1 °C 4,8 km/h (1 Bft)
31.05.2024 01:18 21,7 °C 14,1 °C 62 % 96 % 1004,7 hPa 0,0 l/m² 3,2 km/h (1 Bft) W-SW 247 ° 0 min 0 W/m² 13,5 °C 14,1 °C 6,4 km/h (2 Bft)
31.05.2024 01:19 21,7 °C 14,1 °C 62 % 96 % 1004,7 hPa 0,0 l/m² 3,2 km/h (1 Bft) W-SW 247 ° 0 min 0 W/m² 13,5 °C 14,1 °C 6,4 km/h (2 Bft)
31.05.2024 01:20 21,7 °C 14,1 °C 62 % 95 % 1004,7 hPa 0,0 l/m² 3,2 km/h (1 Bft) W-SW 247 ° 0 min 0 W/m² 13,3 °C 14,1 °C 4,8 km/h (1 Bft)
31.05.2024 01:21 21,7 °C 14,1 °C 62 % 96 % 1004,8 hPa 0,0 l/m² 3,2 km/h (1 Bft) W-SW 247 ° 0 min 0 W/m² 13,5 °C 14,1 °C 4,8 km/h (1 Bft)
31.05.2024 01:22 21,7 °C 14,1 °C 62 % 96 % 1004,7 hPa 0,0 l/m² 3,2 km/h (1 Bft) W-SW 247 ° 0 min 0 W/m² 13,5 °C 14,1 °C 4,8 km/h (1 Bft)
31.05.2024 01:23 21,7 °C 14,1 °C 62 % 96 % 1004,7 hPa 0,0 l/m² 1,6 km/h (1 Bft) W-SW 247 ° 0 min 0 W/m² 13,5 °C 14,1 °C 4,8 km/h (1 Bft)
31.05.2024 01:24 21,7 °C 14,1 °C 62 % 96 % 1004,7 hPa 0,0 l/m² 3,2 km/h (1 Bft) W-SW 247 ° 0 min 0 W/m² 13,5 °C 14,1 °C 8,0 km/h (2 Bft)
31.05.2024 01:25 21,7 °C 14,1 °C 62 % 96 % 1004,7 hPa 0,0 l/m² 1,6 km/h (1 Bft) W-SW 247 ° 0 min 0 W/m² 13,5 °C 14,1 °C 6,4 km/h (2 Bft)
31.05.2024 01:26 21,7 °C 14,1 °C 62 % 96 % 1004,7 hPa 0,0 l/m² 1,6 km/h (1 Bft) W-SW 247 ° 0 min 0 W/m² 13,5 °C 14,1 °C 4,8 km/h (1 Bft)
31.05.2024 01:27 21,7 °C 14,1 °C 62 % 96 % 1004,7 hPa 0,0 l/m² 3,2 km/h (1 Bft) W-SW 247 ° 0 min 0 W/m² 13,5 °C 14,1 °C 4,8 km/h (1 Bft)
31.05.2024 01:28 21,7 °C 14,1 °C 62 % 96 % 1004,7 hPa 0,0 l/m² 4,8 km/h (1 Bft) W-SW 247 ° 0 min 0 W/m² 13,5 °C 14,1 °C 6,4 km/h (2 Bft)
31.05.2024 01:29 21,7 °C 14,1 °C 62 % 96 % 1004,7 hPa 0,0 l/m² 4,8 km/h (1 Bft) W-SW 247 ° 0 min 0 W/m² 13,5 °C 14,1 °C 6,4 km/h (2 Bft)
31.05.2024 01:30 21,7 °C 14,1 °C 62 % 96 % 1004,7 hPa 0,0 l/m² 4,8 km/h (1 Bft) W-SW 247 ° 0 min 0 W/m² 13,5 °C 14,1 °C 6,4 km/h (2 Bft)
31.05.2024 01:31 21,7 °C 14,1 °C 62 % 96 % 1004,8 hPa 0,0 l/m² 4,8 km/h (1 Bft) W-SW 247 ° 0 min 0 W/m² 13,5 °C 14,1 °C 6,4 km/h (2 Bft)
31.05.2024 01:32 21,7 °C 14,1 °C 62 % 96 % 1004,7 hPa 0,0 l/m² 3,2 km/h (1 Bft) W-SW 247 ° 0 min 0 W/m² 13,5 °C 14,1 °C 6,4 km/h (2 Bft)
31.05.2024 01:33 21,7 °C 14,1 °C 62 % 96 % 1004,8 hPa 0,0 l/m² 4,8 km/h (1 Bft) W-SW 247 ° 0 min 0 W/m² 13,5 °C 14,1 °C 6,4 km/h (2 Bft)
31.05.2024 01:34 21,7 °C 14,1 °C 62 % 96 % 1004,8 hPa 0,0 l/m² 4,8 km/h (1 Bft) W-SW 247 ° 0 min 0 W/m² 13,5 °C 14,1 °C 6,4 km/h (2 Bft)
31.05.2024 01:35 21,7 °C 14,1 °C 62 % 96 % 1004,8 hPa 0,0 l/m² 3,2 km/h (1 Bft) W-SW 247 ° 0 min 0 W/m² 13,5 °C 14,1 °C 4,8 km/h (1 Bft)
31.05.2024 01:36 21,7 °C 14,1 °C 62 % 96 % 1004,8 hPa 0,0 l/m² 3,2 km/h (1 Bft) W-SW 247 ° 0 min 0 W/m² 13,5 °C 14,1 °C 6,4 km/h (2 Bft)
31.05.2024 01:37 21,7 °C 14,1 °C 62 % 96 % 1004,9 hPa 0,0 l/m² 3,2 km/h (1 Bft) W-SW 247 ° 0 min 0 W/m² 13,5 °C 14,1 °C 6,4 km/h (2 Bft)
31.05.2024 01:38 21,7 °C 14,1 °C 62 % 95 % 1004,8 hPa 0,0 l/m² 6,4 km/h (2 Bft) SW 225 ° 0 min 0 W/m² 13,3 °C 14,1 °C 8,0 km/h (2 Bft)
31.05.2024 01:39 21,7 °C 14,0 °C 62 % 95 % 1004,9 hPa 0,0 l/m² 4,8 km/h (1 Bft) W-SW 247 ° 0 min 0 W/m² 13,2 °C 14,0 °C 6,4 km/h (2 Bft)
31.05.2024 01:40 21,7 °C 14,0 °C 62 % 95 % 1004,9 hPa 0,0 l/m² 4,8 km/h (1 Bft) W-SW 247 ° 0 min 0 W/m² 13,2 °C 14,0 °C 6,4 km/h (2 Bft)
31.05.2024 01:41 21,7 °C 13,9 °C 62 % 95 % 1004,9 hPa 0,0 l/m² 4,8 km/h (1 Bft) W-SW 247 ° 0 min 0 W/m² 13,1 °C 13,9 °C 8,0 km/h (2 Bft)
31.05.2024 01:42 21,7 °C 13,9 °C 62 % 95 % 1004,8 hPa 0,0 l/m² 4,8 km/h (1 Bft) W-SW 247 ° 0 min 0 W/m² 13,1 °C 13,9 °C 6,4 km/h (2 Bft)
31.05.2024 01:43 21,7 °C 13,8 °C 62 % 95 % 1004,9 hPa 0,0 l/m² 3,2 km/h (1 Bft) W-SW 247 ° 0 min 0 W/m² 13,0 °C 13,8 °C 4,8 km/h (1 Bft)
31.05.2024 01:44 21,7 °C 13,8 °C 62 % 95 % 1004,9 hPa 0,0 l/m² 3,2 km/h (1 Bft) W-SW 247 ° 0 min 0 W/m² 13,0 °C 13,8 °C 4,8 km/h (1 Bft)
31.05.2024 01:45 21,7 °C 13,8 °C 62 % 95 % 1004,9 hPa 0,0 l/m² 3,2 km/h (1 Bft) W-SW 247 ° 0 min 0 W/m² 13,0 °C 13,8 °C 6,4 km/h (2 Bft)
31.05.2024 01:46 21,7 °C 13,7 °C 62 % 95 % 1005,0 hPa 0,0 l/m² 4,8 km/h (1 Bft) W-SW 247 ° 0 min 0 W/m² 12,9 °C 13,7 °C 6,4 km/h (2 Bft)
31.05.2024 01:47 21,7 °C 13,7 °C 62 % 95 % 1005,0 hPa 0,0 l/m² 4,8 km/h (1 Bft) W-SW 247 ° 0 min 0 W/m² 12,9 °C 13,7 °C 6,4 km/h (2 Bft)
31.05.2024 01:48 21,7 °C 13,7 °C 62 % 95 % 1005,1 hPa 0,0 l/m² 4,8 km/h (1 Bft) W-SW 247 ° 0 min 0 W/m² 12,9 °C 13,7 °C 6,4 km/h (2 Bft)
31.05.2024 01:49 21,7 °C 13,6 °C 62 % 95 % 1005,0 hPa 0,0 l/m² 4,8 km/h (1 Bft) W-SW 247 ° 0 min 0 W/m² 12,8 °C 13,6 °C 4,8 km/h (1 Bft)
31.05.2024 01:50 21,7 °C 13,6 °C 62 % 95 % 1005,1 hPa 0,0 l/m² 3,2 km/h (1 Bft) W-SW 247 ° 0 min 0 W/m² 12,8 °C 13,6 °C 4,8 km/h (1 Bft)
31.05.2024 01:51 21,7 °C 13,5 °C 62 % 95 % 1005,1 hPa 0,0 l/m² 4,8 km/h (1 Bft) W-SW 247 ° 0 min 0 W/m² 12,7 °C 13,5 °C 6,4 km/h (2 Bft)
31.05.2024 01:52 21,7 °C 13,5 °C 62 % 95 % 1005,2 hPa 0,0 l/m² 4,8 km/h (1 Bft) W-SW 247 ° 0 min 0 W/m² 12,7 °C 13,5 °C 6,4 km/h (2 Bft)
31.05.2024 01:53 21,7 °C 13,4 °C 62 % 95 % 1005,2 hPa 0,0 l/m² 6,4 km/h (2 Bft) W-SW 247 ° 0 min 0 W/m² 12,6 °C 13,4 °C 8,0 km/h (2 Bft)
31.05.2024 01:54 21,7 °C 13,4 °C 62 % 95 % 1005,1 hPa 0,0 l/m² 4,8 km/h (1 Bft) SW 225 ° 0 min 0 W/m² 12,6 °C 13,4 °C 8,0 km/h (2 Bft)
31.05.2024 01:55 21,7 °C 13,3 °C 62 % 95 % 1005,1 hPa 0,0 l/m² 4,8 km/h (1 Bft) SW 225 ° 0 min 0 W/m² 12,5 °C 13,3 °C 6,4 km/h (2 Bft)
31.05.2024 01:56 21,7 °C 13,3 °C 62 % 95 % 1005,1 hPa 0,0 l/m² 3,2 km/h (1 Bft) SW 225 ° 0 min 0 W/m² 12,5 °C 13,3 °C 4,8 km/h (1 Bft)
31.05.2024 01:57 21,7 °C 13,3 °C 62 % 95 % 1005,1 hPa 0,0 l/m² 4,8 km/h (1 Bft) SW 225 ° 0 min 0 W/m² 12,5 °C 13,3 °C 4,8 km/h (1 Bft)
31.05.2024 01:58 21,7 °C 13,3 °C 62 % 95 % 1005,1 hPa 0,0 l/m² 3,2 km/h (1 Bft) SW 225 ° 0 min 0 W/m² 12,5 °C 13,3 °C 4,8 km/h (1 Bft)
31.05.2024 01:59 21,7 °C 13,3 °C 62 % 95 % 1005,1 hPa 0,0 l/m² 3,2 km/h (1 Bft) SW 225 ° 0 min 0 W/m² 12,5 °C 13,3 °C 4,8 km/h (1 Bft)
31.05.2024 02:00 21,7 °C 13,3 °C 62 % 95 % 1005,1 hPa 0,0 l/m² 3,2 km/h (1 Bft) SW 225 ° 0 min 0 W/m² 12,5 °C 13,3 °C 4,8 km/h (1 Bft)
31.05.2024 02:01 21,7 °C 13,3 °C 62 % 95 % 1005,1 hPa 0,0 l/m² 3,2 km/h (1 Bft) SW 225 ° 0 min 0 W/m² 12,5 °C 13,3 °C 4,8 km/h (1 Bft)
31.05.2024 02:02 21,7 °C 13,3 °C 62 % 95 % 1005,1 hPa 0,0 l/m² 3,2 km/h (1 Bft) SW 225 ° 0 min 0 W/m² 12,5 °C 13,3 °C 6,4 km/h (2 Bft)
31.05.2024 02:03 21,6 °C 13,3 °C 62 % 95 % 1005,1 hPa 0,0 l/m² 3,2 km/h (1 Bft) SW 225 ° 0 min 0 W/m² 12,5 °C 13,3 °C 6,4 km/h (2 Bft)
31.05.2024 02:04 21,7 °C 13,3 °C 62 % 95 % 1005,1 hPa 0,0 l/m² 3,2 km/h (1 Bft) SW 225 ° 0 min 0 W/m² 12,5 °C 13,3 °C 4,8 km/h (1 Bft)
31.05.2024 02:05 21,6 °C 13,2 °C 62 % 95 % 1005,1 hPa 0,0 l/m² 3,2 km/h (1 Bft) SW 225 ° 0 min 0 W/m² 12,4 °C 13,2 °C 4,8 km/h (1 Bft)
31.05.2024 02:06 21,7 °C 13,2 °C 62 % 95 % 1005,1 hPa 0,0 l/m² 3,2 km/h (1 Bft) SW 225 ° 0 min 0 W/m² 12,4 °C 13,2 °C 4,8 km/h (1 Bft)
31.05.2024 02:07 21,7 °C 13,2 °C 62 % 95 % 1005,2 hPa 0,0 l/m² 3,2 km/h (1 Bft) SW 225 ° 0 min 0 W/m² 12,4 °C 13,2 °C 4,8 km/h (1 Bft)
31.05.2024 02:08 21,7 °C 13,2 °C 62 % 95 % 1005,1 hPa 0,0 l/m² 1,6 km/h (1 Bft) SW 225 ° 0 min 0 W/m² 12,4 °C 13,2 °C 4,8 km/h (1 Bft)
31.05.2024 02:09 21,7 °C 13,2 °C 62 % 95 % 1005,1 hPa 0,0 l/m² 1,6 km/h (1 Bft) SW 225 ° 0 min 0 W/m² 12,4 °C 13,2 °C 3,2 km/h (1 Bft)
31.05.2024 02:10 21,7 °C 13,1 °C 62 % 95 % 1005,1 hPa 0,0 l/m² 3,2 km/h (1 Bft) SW 225 ° 0 min 0 W/m² 12,3 °C 13,1 °C 4,8 km/h (1 Bft)
31.05.2024 02:11 21,7 °C 13,1 °C 62 % 95 % 1005,2 hPa 0,0 l/m² 4,8 km/h (1 Bft) SW 225 ° 0 min 0 W/m² 12,3 °C 13,1 °C 6,4 km/h (2 Bft)
31.05.2024 02:12 21,7 °C 13,1 °C 62 % 95 % 1005,2 hPa 0,0 l/m² 3,2 km/h (1 Bft) SW 225 ° 0 min 0 W/m² 12,3 °C 13,1 °C 4,8 km/h (1 Bft)
31.05.2024 02:13 21,7 °C 13,0 °C 62 % 95 % 1005,2 hPa 0,0 l/m² 4,8 km/h (1 Bft) SW 225 ° 0 min 0 W/m² 12,2 °C 13,0 °C 4,8 km/h (1 Bft)
31.05.2024 02:14 21,7 °C 12,9 °C 62 % 95 % 1005,2 hPa 0,0 l/m² 3,2 km/h (1 Bft) SW 225 ° 0 min 0 W/m² 12,1 °C 12,9 °C 4,8 km/h (1 Bft)
31.05.2024 02:15 21,6 °C 12,9 °C 62 % 95 % 1005,2 hPa 0,0 l/m² 3,2 km/h (1 Bft) SW 225 ° 0 min 0 W/m² 12,1 °C 12,9 °C 4,8 km/h (1 Bft)
31.05.2024 02:16 21,6 °C 12,9 °C 62 % 95 % 1005,2 hPa 0,0 l/m² 3,2 km/h (1 Bft) SW 225 ° 0 min 0 W/m² 12,1 °C 12,9 °C 4,8 km/h (1 Bft)
31.05.2024 02:17 21,7 °C 12,9 °C 62 % 95 % 1005,2 hPa 0,0 l/m² 3,2 km/h (1 Bft) SW 225 ° 0 min 0 W/m² 12,1 °C 12,9 °C 4,8 km/h (1 Bft)
31.05.2024 02:18 21,7 °C 12,9 °C 62 % 95 % 1005,2 hPa 0,0 l/m² 3,2 km/h (1 Bft) SW 225 ° 0 min 0 W/m² 12,1 °C 12,9 °C 4,8 km/h (1 Bft)
31.05.2024 02:19 21,7 °C 13,0 °C 62 % 95 % 1005,3 hPa 0,0 l/m² 3,2 km/h (1 Bft) SW 225 ° 0 min 0 W/m² 12,2 °C 13,0 °C 3,2 km/h (1 Bft)
31.05.2024 02:20 21,6 °C 13,0 °C 62 % 95 % 1005,2 hPa 0,0 l/m² 3,2 km/h (1 Bft) SW 225 ° 0 min 0 W/m² 12,2 °C 13,0 °C 4,8 km/h (1 Bft)
31.05.2024 02:21 21,7 °C 12,9 °C 62 % 95 % 1005,3 hPa 0,0 l/m² 1,6 km/h (1 Bft) SW 225 ° 0 min 0 W/m² 12,1 °C 12,9 °C 3,2 km/h (1 Bft)
31.05.2024 02:22 21,7 °C 12,9 °C 62 % 95 % 1005,2 hPa 0,0 l/m² 3,2 km/h (1 Bft) SW 225 ° 0 min 0 W/m² 12,1 °C 12,9 °C 4,8 km/h (1 Bft)
31.05.2024 02:23 21,7 °C 12,9 °C 62 % 95 % 1005,2 hPa 0,0 l/m² 0,0 km/h (0 Bft) SW 225 ° 0 min 0 W/m² 12,1 °C 12,9 °C 3,2 km/h (1 Bft)
31.05.2024 02:24 21,6 °C 12,9 °C 62 % 95 % 1005,2 hPa 0,0 l/m² 0,0 km/h (0 Bft) N 0 ° 0 min 0 W/m² 12,1 °C 12,9 °C 0,0 km/h (0 Bft)
31.05.2024 02:25 21,7 °C 13,0 °C 62 % 95 % 1005,2 hPa 0,0 l/m² 0,0 km/h (0 Bft) N 0 ° 0 min 0 W/m² 12,2 °C 13,0 °C 0,0 km/h (0 Bft)
31.05.2024 02:26 21,7 °C 12,9 °C 62 % 95 % 1005,3 hPa 0,0 l/m² 0,0 km/h (0 Bft) N 0 ° 0 min 0 W/m² 12,1 °C 12,9 °C 0,0 km/h (0 Bft)
31.05.2024 02:27 21,7 °C 12,9 °C 62 % 95 % 1005,3 hPa 0,0 l/m² 0,0 km/h (0 Bft) SW 225 ° 0 min 0 W/m² 12,1 °C 12,9 °C 1,6 km/h (1 Bft)
31.05.2024 02:28 21,7 °C 12,9 °C 62 % 95 % 1005,3 hPa 0,0 l/m² 0,0 km/h (0 Bft) SW 225 ° 0 min 0 W/m² 12,1 °C 12,9 °C 1,6 km/h (1 Bft)
31.05.2024 02:29 21,7 °C 12,9 °C 62 % 95 % 1005,3 hPa 0,0 l/m² 1,6 km/h (1 Bft) SW 225 ° 0 min 0 W/m² 12,1 °C 12,9 °C 3,2 km/h (1 Bft)
31.05.2024 02:30 21,6 °C 12,9 °C 62 % 95 % 1005,4 hPa 0,0 l/m² 3,2 km/h (1 Bft) SW 225 ° 0 min 0 W/m² 12,1 °C 12,9 °C 4,8 km/h (1 Bft)
31.05.2024 02:31 21,7 °C 12,9 °C 62 % 95 % 1005,3 hPa 0,0 l/m² 3,2 km/h (1 Bft) SW 225 ° 0 min 0 W/m² 12,1 °C 12,9 °C 3,2 km/h (1 Bft)
31.05.2024 02:32 21,7 °C 12,8 °C 62 % 95 % 1005,3 hPa 0,0 l/m² 1,6 km/h (1 Bft) SW 225 ° 0 min 0 W/m² 12,0 °C 12,8 °C 3,2 km/h (1 Bft)
31.05.2024 02:33 21,7 °C 12,8 °C 62 % 95 % 1005,3 hPa 0,0 l/m² 1,6 km/h (1 Bft) SW 225 ° 0 min 0 W/m² 12,0 °C 12,8 °C 3,2 km/h (1 Bft)
31.05.2024 02:34 21,7 °C 12,8 °C 62 % 95 % 1005,3 hPa 0,0 l/m² 3,2 km/h (1 Bft) SW 225 ° 0 min 0 W/m² 12,0 °C 12,8 °C 4,8 km/h (1 Bft)
31.05.2024 02:35 21,6 °C 12,8 °C 62 % 95 % 1005,3 hPa 0,0 l/m² 4,8 km/h (1 Bft) SW 225 ° 0 min 0 W/m² 12,0 °C 12,8 °C 6,4 km/h (2 Bft)
31.05.2024 02:36 21,6 °C 12,8 °C 62 % 95 % 1005,4 hPa 0,0 l/m² 3,2 km/h (1 Bft) SW 225 ° 0 min 0 W/m² 12,0 °C 12,8 °C 4,8 km/h (1 Bft)
31.05.2024 02:37 21,6 °C 12,8 °C 62 % 95 % 1005,3 hPa 0,0 l/m² 3,2 km/h (1 Bft) SW 225 ° 0 min 0 W/m² 12,0 °C 12,8 °C 4,8 km/h (1 Bft)
31.05.2024 02:38 21,7 °C 12,8 °C 62 % 95 % 1005,4 hPa 0,0 l/m² 4,8 km/h (1 Bft) SW 225 ° 0 min 0 W/m² 12,0 °C 12,8 °C 4,8 km/h (1 Bft)
31.05.2024 02:39 21,6 °C 12,8 °C 62 % 95 % 1005,4 hPa 0,0 l/m² 4,8 km/h (1 Bft) SW 225 ° 0 min 0 W/m² 12,0 °C 12,8 °C 6,4 km/h (2 Bft)
31.05.2024 02:40 21,6 °C 12,8 °C 62 % 95 % 1005,4 hPa 0,0 l/m² 6,4 km/h (2 Bft) SW 225 ° 0 min 0 W/m² 12,0 °C 12,8 °C 6,4 km/h (2 Bft)
31.05.2024 02:41 21,7 °C 12,9 °C 62 % 95 % 1005,4 hPa 0,0 l/m² 4,8 km/h (1 Bft) SW 225 ° 0 min 0 W/m² 12,1 °C 12,9 °C 6,4 km/h (2 Bft)
31.05.2024 02:42 21,6 °C 12,9 °C 62 % 96 % 1005,4 hPa 0,0 l/m² 3,2 km/h (1 Bft) SW 225 ° 0 min 0 W/m² 12,3 °C 12,9 °C 4,8 km/h (1 Bft)
31.05.2024 02:43 21,6 °C 12,9 °C 62 % 96 % 1005,4 hPa 0,0 l/m² 1,6 km/h (1 Bft) SW 225 ° 0 min 0 W/m² 12,3 °C 12,9 °C 3,2 km/h (1 Bft)
31.05.2024 02:44 21,6 °C 12,9 °C 62 % 96 % 1005,4 hPa 0,0 l/m² 3,2 km/h (1 Bft) SW 225 ° 0 min 0 W/m² 12,3 °C 12,9 °C 4,8 km/h (1 Bft)
31.05.2024 02:45 21,7 °C 12,9 °C 62 % 96 % 1005,4 hPa 0,0 l/m² 3,2 km/h (1 Bft) SW 225 ° 0 min 0 W/m² 12,3 °C 12,9 °C 4,8 km/h (1 Bft)
31.05.2024 02:46 21,6 °C 12,9 °C 62 % 96 % 1005,3 hPa 0,0 l/m² 3,2 km/h (1 Bft) SW 225 ° 0 min 0 W/m² 12,3 °C 12,9 °C 6,4 km/h (2 Bft)
31.05.2024 02:47 21,7 °C 12,9 °C 62 % 96 % 1005,4 hPa 0,0 l/m² 3,2 km/h (1 Bft) SW 225 ° 0 min 0 W/m² 12,3 °C 12,9 °C 4,8 km/h (1 Bft)
31.05.2024 02:48 21,6 °C 12,9 °C 62 % 96 % 1005,3 hPa 0,0 l/m² 3,2 km/h (1 Bft) SW 225 ° 0 min 0 W/m² 12,3 °C 12,9 °C 6,4 km/h (2 Bft)
31.05.2024 02:49 21,6 °C 12,9 °C 62 % 96 % 1005,4 hPa 0,0 l/m² 3,2 km/h (1 Bft) SW 225 ° 0 min 0 W/m² 12,3 °C 12,9 °C 4,8 km/h (1 Bft)
31.05.2024 02:50 21,6 °C 13,0 °C 62 % 96 % 1005,4 hPa 0,0 l/m² 3,2 km/h (1 Bft) SW 225 ° 0 min 0 W/m² 12,4 °C 13,0 °C 4,8 km/h (1 Bft)
31.05.2024 02:51 21,6 °C 13,0 °C 62 % 96 % 1005,4 hPa 0,0 l/m² 1,6 km/h (1 Bft) SW 225 ° 0 min 0 W/m² 12,4 °C 13,0 °C 3,2 km/h (1 Bft)
31.05.2024 02:52 21,6 °C 13,0 °C 62 % 96 % 1005,4 hPa 0,0 l/m² 3,2 km/h (1 Bft) SW 225 ° 0 min 0 W/m² 12,4 °C 13,0 °C 4,8 km/h (1 Bft)
31.05.2024 02:53 21,6 °C 13,0 °C 62 % 95 % 1005,4 hPa 0,0 l/m² 3,2 km/h (1 Bft) SW 225 ° 0 min 0 W/m² 12,2 °C 13,0 °C 4,8 km/h (1 Bft)
31.05.2024 02:54 21,6 °C 13,0 °C 62 % 96 % 1005,4 hPa 0,0 l/m² 3,2 km/h (1 Bft) SW 225 ° 0 min 0 W/m² 12,4 °C 13,0 °C 3,2 km/h (1 Bft)
31.05.2024 02:55 21,6 °C 13,0 °C 62 % 96 % 1005,4 hPa 0,0 l/m² 3,2 km/h (1 Bft) SW 225 ° 0 min 0 W/m² 12,4 °C 13,0 °C 6,4 km/h (2 Bft)
31.05.2024 02:56 21,6 °C 13,0 °C 62 % 96 % 1005,5 hPa 0,0 l/m² 3,2 km/h (1 Bft) SW 225 ° 0 min 0 W/m² 12,4 °C 13,0 °C 6,4 km/h (2 Bft)
31.05.2024 02:57 21,6 °C 13,1 °C 62 % 96 % 1005,4 hPa 0,0 l/m² 4,8 km/h (1 Bft) SW 225 ° 0 min 0 W/m² 12,5 °C 13,1 °C 6,4 km/h (2 Bft)
31.05.2024 02:58 21,6 °C 13,1 °C 62 % 96 % 1005,5 hPa 0,0 l/m² 3,2 km/h (1 Bft) SW 225 ° 0 min 0 W/m² 12,5 °C 13,1 °C 4,8 km/h (1 Bft)
31.05.2024 02:59 21,6 °C 13,1 °C 62 % 96 % 1005,5 hPa 0,0 l/m² 3,2 km/h (1 Bft) SW 225 ° 0 min 0 W/m² 12,5 °C 13,1 °C 4,8 km/h (1 Bft)
31.05.2024 03:00 21,6 °C 13,1 °C 62 % 96 % 1005,4 hPa 0,0 l/m² 1,6 km/h (1 Bft) SW 225 ° 0 min 0 W/m² 12,5 °C 13,1 °C 3,2 km/h (1 Bft)
31.05.2024 03:01 21,6 °C 13,1 °C 62 % 96 % 1005,6 hPa 0,0 l/m² 0,0 km/h (0 Bft) SW 225 ° 0 min 0 W/m² 12,5 °C 13,1 °C 3,2 km/h (1 Bft)
31.05.2024 03:02 21,6 °C 13,1 °C 62 % 95 % 1005,6 hPa 0,0 l/m² 0,0 km/h (0 Bft) SW 225 ° 0 min 0 W/m² 12,3 °C 13,1 °C 3,2 km/h (1 Bft)
31.05.2024 03:03 21,6 °C 13,1 °C 62 % 95 % 1005,6 hPa 0,0 l/m² 1,6 km/h (1 Bft) SW 225 ° 0 min 0 W/m² 12,3 °C 13,1 °C 3,2 km/h (1 Bft)
31.05.2024 03:04 21,6 °C 13,1 °C 62 % 96 % 1005,5 hPa 0,0 l/m² 1,6 km/h (1 Bft) SW 225 ° 0 min 0 W/m² 12,5 °C 13,1 °C 3,2 km/h (1 Bft)
31.05.2024 03:05 21,6 °C 13,1 °C 62 % 95 % 1005,5 hPa 0,0 l/m² 1,6 km/h (1 Bft) SW 225 ° 0 min 0 W/m² 12,3 °C 13,1 °C 4,8 km/h (1 Bft)
31.05.2024 03:06 21,6 °C 13,1 °C 62 % 95 % 1005,6 hPa 0,0 l/m² 3,2 km/h (1 Bft) SW 225 ° 0 min 0 W/m² 12,3 °C 13,1 °C 4,8 km/h (1 Bft)
31.05.2024 03:07 21,6 °C 13,1 °C 62 % 95 % 1005,5 hPa 0,0 l/m² 1,6 km/h (1 Bft) SW 225 ° 0 min 0 W/m² 12,3 °C 13,1 °C 4,8 km/h (1 Bft)
31.05.2024 03:08 21,6 °C 13,2 °C 62 % 95 % 1005,6 hPa 0,0 l/m² 1,6 km/h (1 Bft) SW 225 ° 0 min 0 W/m² 12,4 °C 13,2 °C 1,6 km/h (1 Bft)
31.05.2024 03:09 21,6 °C 13,2 °C 62 % 95 % 1005,5 hPa 0,0 l/m² 0,0 km/h (0 Bft) N 0 ° 0 min 0 W/m² 12,4 °C 13,2 °C 0,0 km/h (0 Bft)
31.05.2024 03:10 21,6 °C 13,2 °C 62 % 95 % 1005,5 hPa 0,0 l/m² 0,0 km/h (0 Bft) N 0 ° 0 min 0 W/m² 12,4 °C 13,2 °C 0,0 km/h (0 Bft)
31.05.2024 03:11 21,6 °C 13,2 °C 62 % 96 % 1005,6 hPa 0,0 l/m² 0,0 km/h (0 Bft) N 0 ° 0 min 0 W/m² 12,6 °C 13,2 °C 0,0 km/h (0 Bft)
31.05.2024 03:12 21,6 °C 13,2 °C 62 % 95 % 1005,5 hPa 0,0 l/m² 0,0 km/h (0 Bft) N 0 ° 0 min 0 W/m² 12,4 °C 13,2 °C 0,0 km/h (0 Bft)
31.05.2024 03:13 21,6 °C 13,2 °C 62 % 95 % 1005,5 hPa 0,0 l/m² 0,0 km/h (0 Bft) N 0 ° 0 min 0 W/m² 12,4 °C 13,2 °C 0,0 km/h (0 Bft)
31.05.2024 03:14 21,6 °C 13,2 °C 62 % 95 % 1005,6 hPa 0,0 l/m² 0,0 km/h (0 Bft) N 0 ° 0 min 0 W/m² 12,4 °C 13,2 °C 0,0 km/h (0 Bft)
31.05.2024 03:15 21,6 °C 13,2 °C 62 % 95 % 1005,6 hPa 0,0 l/m² 0,0 km/h (0 Bft) N 0 ° 0 min 0 W/m² 12,4 °C 13,2 °C 0,0 km/h (0 Bft)
31.05.2024 03:16 21,6 °C 13,2 °C 62 % 95 % 1005,6 hPa 0,0 l/m² 0,0 km/h (0 Bft) N 0 ° 0 min 0 W/m² 12,4 °C 13,2 °C 0,0 km/h (0 Bft)
31.05.2024 03:17 21,6 °C 13,2 °C 62 % 95 % 1005,5 hPa 0,0 l/m² 0,0 km/h (0 Bft) N 0 ° 0 min 0 W/m² 12,4 °C 13,2 °C 0,0 km/h (0 Bft)
31.05.2024 03:18 21,6 °C 13,2 °C 62 % 95 % 1005,6 hPa 0,0 l/m² 0,0 km/h (0 Bft) SW 225 ° 0 min 0 W/m² 12,4 °C 13,2 °C 3,2 km/h (1 Bft)
31.05.2024 03:19 21,6 °C 13,2 °C 62 % 95 % 1005,5 hPa 0,0 l/m² 0,0 km/h (0 Bft) N 0 ° 0 min 0 W/m² 12,4 °C 13,2 °C 0,0 km/h (0 Bft)
31.05.2024 03:20 21,6 °C 13,2 °C 62 % 95 % 1005,6 hPa 0,0 l/m² 0,0 km/h (0 Bft) N 0 ° 0 min 0 W/m² 12,4 °C 13,2 °C 0,0 km/h (0 Bft)
31.05.2024 03:21 21,6 °C 13,2 °C 62 % 95 % 1005,5 hPa 0,0 l/m² 0,0 km/h (0 Bft) N 0 ° 0 min 0 W/m² 12,4 °C 13,2 °C 0,0 km/h (0 Bft)
31.05.2024 03:22 21,6 °C 13,2 °C 62 % 95 % 1005,5 hPa 0,0 l/m² 0,0 km/h (0 Bft) N 0 ° 0 min 0 W/m² 12,4 °C 13,2 °C 0,0 km/h (0 Bft)
31.05.2024 03:23 21,6 °C 13,2 °C 62 % 95 % 1005,5 hPa 0,0 l/m² 0,0 km/h (0 Bft) N 0 ° 0 min 0 W/m² 12,4 °C 13,2 °C 0,0 km/h (0 Bft)
31.05.2024 03:24 21,6 °C 13,2 °C 62 % 95 % 1005,5 hPa 0,0 l/m² 0,0 km/h (0 Bft) N 0 ° 0 min 0 W/m² 12,4 °C 13,2 °C 0,0 km/h (0 Bft)
31.05.2024 03:25 21,6 °C 13,2 °C 62 % 95 % 1005,5 hPa 0,0 l/m² 0,0 km/h (0 Bft) N 0 ° 0 min 0 W/m² 12,4 °C 13,2 °C 0,0 km/h (0 Bft)
31.05.2024 03:26 21,6 °C 13,1 °C 62 % 95 % 1005,4 hPa 0,0 l/m² 0,0 km/h (0 Bft) N 0 ° 0 min 0 W/m² 12,3 °C 13,1 °C 0,0 km/h (0 Bft)
31.05.2024 03:27 21,6 °C 13,1 °C 62 % 95 % 1005,5 hPa 0,0 l/m² 0,0 km/h (0 Bft) N 0 ° 0 min 0 W/m² 12,3 °C 13,1 °C 0,0 km/h (0 Bft)
31.05.2024 03:28 21,6 °C 13,1 °C 62 % 95 % 1005,5 hPa 0,0 l/m² 0,0 km/h (0 Bft) N 0 ° 0 min 0 W/m² 12,3 °C 13,1 °C 0,0 km/h (0 Bft)
31.05.2024 03:29 21,6 °C 13,1 °C 62 % 95 % 1005,6 hPa 0,0 l/m² 0,0 km/h (0 Bft) N 0 ° 0 min 0 W/m² 12,3 °C 13,1 °C 0,0 km/h (0 Bft)
31.05.2024 03:30 21,6 °C 13,0 °C 62 % 95 % 1005,5 hPa 0,0 l/m² 0,0 km/h (0 Bft) N 0 ° 0 min 0 W/m² 12,2 °C 13,0 °C 0,0 km/h (0 Bft)
31.05.2024 03:31 21,6 °C 12,9 °C 62 % 95 % 1005,5 hPa 0,0 l/m² 0,0 km/h (0 Bft) N 0 ° 0 min 0 W/m² 12,1 °C 12,9 °C 0,0 km/h (0 Bft)
31.05.2024 03:32 21,6 °C 12,9 °C 62 % 95 % 1005,5 hPa 0,0 l/m² 0,0 km/h (0 Bft) N 0 ° 0 min 0 W/m² 12,1 °C 12,9 °C 0,0 km/h (0 Bft)
31.05.2024 03:33 21,6 °C 12,9 °C 62 % 95 % 1005,5 hPa 0,0 l/m² 0,0 km/h (0 Bft) N 0 ° 0 min 0 W/m² 12,1 °C 12,9 °C 0,0 km/h (0 Bft)
31.05.2024 03:34 21,6 °C 12,9 °C 62 % 95 % 1005,5 hPa 0,0 l/m² 0,0 km/h (0 Bft) N 0 ° 0 min 0 W/m² 12,1 °C 12,9 °C 0,0 km/h (0 Bft)
31.05.2024 03:35 21,6 °C 12,8 °C 62 % 95 % 1005,5 hPa 0,0 l/m² 0,0 km/h (0 Bft) N 0 ° 0 min 0 W/m² 12,0 °C 12,8 °C 0,0 km/h (0 Bft)
31.05.2024 03:36 21,6 °C 12,8 °C 62 % 95 % 1005,5 hPa 0,0 l/m² 0,0 km/h (0 Bft) N 0 ° 0 min 0 W/m² 12,0 °C 12,8 °C 0,0 km/h (0 Bft)
31.05.2024 03:37 21,6 °C 12,8 °C 62 % 95 % 1005,5 hPa 0,0 l/m² 0,0 km/h (0 Bft) N 0 ° 0 min 0 W/m² 12,0 °C 12,8 °C 0,0 km/h (0 Bft)
31.05.2024 03:38 21,6 °C 12,8 °C 62 % 95 % 1005,5 hPa 0,0 l/m² 0,0 km/h (0 Bft) N 0 ° 0 min 0 W/m² 12,0 °C 12,8 °C 0,0 km/h (0 Bft)
31.05.2024 03:39 21,6 °C 12,7 °C 62 % 95 % 1005,5 hPa 0,0 l/m² 0,0 km/h (0 Bft) N 0 ° 0 min 0 W/m² 11,9 °C 12,7 °C 0,0 km/h (0 Bft)
31.05.2024 03:40 21,6 °C 12,7 °C 62 % 95 % 1005,5 hPa 0,0 l/m² 0,0 km/h (0 Bft) N 0 ° 0 min 0 W/m² 11,9 °C 12,7 °C 0,0 km/h (0 Bft)
31.05.2024 03:41 21,6 °C 12,7 °C 62 % 95 % 1005,6 hPa 0,0 l/m² 1,6 km/h (1 Bft) SW 225 ° 0 min 0 W/m² 11,9 °C 12,7 °C 3,2 km/h (1 Bft)
31.05.2024 03:42 21,6 °C 12,7 °C 62 % 95 % 1005,5 hPa 0,0 l/m² 0,0 km/h (0 Bft) N 0 ° 0 min 0 W/m² 11,9 °C 12,7 °C 0,0 km/h (0 Bft)
31.05.2024 03:43 21,6 °C 12,7 °C 62 % 95 % 1005,5 hPa 0,0 l/m² 0,0 km/h (0 Bft) SW 225 ° 0 min 0 W/m² 11,9 °C 12,7 °C 1,6 km/h (1 Bft)
31.05.2024 03:44 21,6 °C 12,7 °C 62 % 95 % 1005,6 hPa 0,0 l/m² 0,0 km/h (0 Bft) N 0 ° 0 min 0 W/m² 11,9 °C 12,7 °C 0,0 km/h (0 Bft)
31.05.2024 03:45 21,6 °C 12,7 °C 62 % 95 % 1005,5 hPa 0,0 l/m² 0,0 km/h (0 Bft) SW 225 ° 0 min 0 W/m² 11,9 °C 12,7 °C 1,6 km/h (1 Bft)
31.05.2024 03:46 21,6 °C 12,7 °C 62 % 95 % 1005,5 hPa 0,0 l/m² 0,0 km/h (0 Bft) SW 225 ° 0 min 0 W/m² 11,9 °C 12,7 °C 1,6 km/h (1 Bft)
31.05.2024 03:47 21,6 °C 12,7 °C 62 % 95 % 1005,4 hPa 0,0 l/m² 0,0 km/h (0 Bft) N 0 ° 0 min 0 W/m² 11,9 °C 12,7 °C 0,0 km/h (0 Bft)
31.05.2024 03:48 21,6 °C 12,6 °C 62 % 95 % 1005,5 hPa 0,0 l/m² 0,0 km/h (0 Bft) SW 225 ° 0 min 0 W/m² 11,8 °C 12,6 °C 1,6 km/h (1 Bft)
31.05.2024 03:49 21,6 °C 12,6 °C 62 % 95 % 1005,5 hPa 0,0 l/m² 0,0 km/h (0 Bft) SW 225 ° 0 min 0 W/m² 11,8 °C 12,6 °C 3,2 km/h (1 Bft)
31.05.2024 03:50 21,6 °C 12,6 °C 62 % 95 % 1005,5 hPa 0,0 l/m² 0,0 km/h (0 Bft) SW 225 ° 0 min 0 W/m² 11,8 °C 12,6 °C 1,6 km/h (1 Bft)
31.05.2024 03:51 21,6 °C 12,6 °C 62 % 95 % 1005,5 hPa 0,0 l/m² 0,0 km/h (0 Bft) N 0 ° 0 min 0 W/m² 11,8 °C 12,6 °C 0,0 km/h (0 Bft)
31.05.2024 03:52 21,6 °C 12,6 °C 62 % 95 % 1005,5 hPa 0,0 l/m² 0,0 km/h (0 Bft) SW 225 ° 0 min 0 W/m² 11,8 °C 12,6 °C 1,6 km/h (1 Bft)
31.05.2024 03:53 21,6 °C 12,6 °C 62 % 95 % 1005,5 hPa 0,0 l/m² 0,0 km/h (0 Bft) N 0 ° 0 min 0 W/m² 11,8 °C 12,6 °C 0,0 km/h (0 Bft)
31.05.2024 03:54 21,6 °C 12,6 °C 62 % 95 % 1005,5 hPa 0,0 l/m² 0,0 km/h (0 Bft) N 0 ° 0 min 0 W/m² 11,8 °C 12,6 °C 0,0 km/h (0 Bft)
31.05.2024 03:55 21,6 °C 12,6 °C 62 % 95 % 1005,5 hPa 0,0 l/m² 1,6 km/h (1 Bft) SW 225 ° 0 min 0 W/m² 11,8 °C 12,6 °C 4,8 km/h (1 Bft)
31.05.2024 03:56 21,6 °C 12,6 °C 62 % 95 % 1005,5 hPa 0,0 l/m² 3,2 km/h (1 Bft) SW 225 ° 0 min 0 W/m² 11,8 °C 12,6 °C 6,4 km/h (2 Bft)
31.05.2024 03:57 21,6 °C 12,6 °C 62 % 95 % 1005,6 hPa 0,0 l/m² 1,6 km/h (1 Bft) SW 225 ° 0 min 0 W/m² 11,8 °C 12,6 °C 3,2 km/h (1 Bft)
31.05.2024 03:58 21,6 °C 12,5 °C 62 % 95 % 1005,6 hPa 0,0 l/m² 3,2 km/h (1 Bft) SW 225 ° 0 min 0 W/m² 11,7 °C 12,5 °C 4,8 km/h (1 Bft)
31.05.2024 03:59 21,6 °C 12,5 °C 62 % 95 % 1005,6 hPa 0,0 l/m² 1,6 km/h (1 Bft) SW 225 ° 0 min 0 W/m² 11,7 °C 12,5 °C 4,8 km/h (1 Bft)
31.05.2024 04:00 21,6 °C 12,5 °C 62 % 95 % 1005,5 hPa 0,0 l/m² 3,2 km/h (1 Bft) SW 225 ° 0 min 0 W/m² 11,7 °C 12,5 °C 4,8 km/h (1 Bft)
31.05.2024 04:01 21,6 °C 12,6 °C 62 % 95 % 1005,6 hPa 0,0 l/m² 3,2 km/h (1 Bft) SW 225 ° 0 min 0 W/m² 11,8 °C 12,6 °C 4,8 km/h (1 Bft)
31.05.2024 04:02 21,6 °C 12,5 °C 62 % 95 % 1005,6 hPa 0,0 l/m² 4,8 km/h (1 Bft) W-SW 247 ° 0 min 0 W/m² 11,7 °C 12,5 °C 6,4 km/h (2 Bft)
31.05.2024 04:03 21,6 °C 12,6 °C 62 % 96 % 1005,5 hPa 0,0 l/m² 3,2 km/h (1 Bft) W-SW 247 ° 0 min 0 W/m² 12,0 °C 12,6 °C 4,8 km/h (1 Bft)
31.05.2024 04:04 21,6 °C 12,6 °C 62 % 95 % 1005,5 hPa 0,0 l/m² 3,2 km/h (1 Bft) W-SW 247 ° 0 min 0 W/m² 11,8 °C 12,6 °C 4,8 km/h (1 Bft)
31.05.2024 04:05 21,6 °C 12,6 °C 62 % 95 % 1005,5 hPa 0,0 l/m² 1,6 km/h (1 Bft) W-SW 247 ° 0 min 0 W/m² 11,8 °C 12,6 °C 4,8 km/h (1 Bft)
31.05.2024 04:06 21,6 °C 12,6 °C 62 % 95 % 1005,5 hPa 0,0 l/m² 0,0 km/h (0 Bft) W-SW 247 ° 0 min 0 W/m² 11,8 °C 12,6 °C 1,6 km/h (1 Bft)
31.05.2024 04:07 21,6 °C 12,6 °C 62 % 96 % 1005,5 hPa 0,0 l/m² 0,0 km/h (0 Bft) W-SW 247 ° 0 min 0 W/m² 12,0 °C 12,6 °C 1,6 km/h (1 Bft)
31.05.2024 04:08 21,6 °C 12,6 °C 62 % 96 % 1005,5 hPa 0,0 l/m² 0,0 km/h (0 Bft) N 0 ° 0 min 0 W/m² 12,0 °C 12,6 °C 0,0 km/h (0 Bft)
31.05.2024 04:09 21,6 °C 12,6 °C 62 % 96 % 1005,5 hPa 0,0 l/m² 0,0 km/h (0 Bft) N 0 ° 0 min 0 W/m² 12,0 °C 12,6 °C 0,0 km/h (0 Bft)
31.05.2024 04:10 21,6 °C 12,6 °C 62 % 96 % 1005,5 hPa 0,0 l/m² 0,0 km/h (0 Bft) N 0 ° 0 min 0 W/m² 12,0 °C 12,6 °C 0,0 km/h (0 Bft)
31.05.2024 04:11 21,6 °C 12,6 °C 62 % 95 % 1005,5 hPa 0,0 l/m² 0,0 km/h (0 Bft) N 0 ° 0 min 0 W/m² 11,8 °C 12,6 °C 0,0 km/h (0 Bft)
31.05.2024 04:12 21,6 °C 12,6 °C 62 % 95 % 1005,5 hPa 0,0 l/m² 0,0 km/h (0 Bft) W-SW 247 ° 0 min 0 W/m² 11,8 °C 12,6 °C 1,6 km/h (1 Bft)
31.05.2024 04:13 21,6 °C 12,6 °C 62 % 95 % 1005,6 hPa 0,0 l/m² 1,6 km/h (1 Bft) W-SW 247 ° 0 min 0 W/m² 11,8 °C 12,6 °C 3,2 km/h (1 Bft)
31.05.2024 04:14 21,6 °C 12,6 °C 62 % 96 % 1005,6 hPa 0,0 l/m² 0,0 km/h (0 Bft) N 0 ° 0 min 0 W/m² 12,0 °C 12,6 °C 0,0 km/h (0 Bft)
31.05.2024 04:15 21,6 °C 12,6 °C 62 % 96 % 1005,6 hPa 0,0 l/m² 0,0 km/h (0 Bft) N 0 ° 0 min 0 W/m² 12,0 °C 12,6 °C 0,0 km/h (0 Bft)
31.05.2024 04:16 21,6 °C 12,6 °C 62 % 96 % 1005,6 hPa 0,0 l/m² 0,0 km/h (0 Bft) N 0 ° 0 min 0 W/m² 12,0 °C 12,6 °C 0,0 km/h (0 Bft)
31.05.2024 04:17 21,6 °C 12,6 °C 62 % 96 % 1005,6 hPa 0,0 l/m² 0,0 km/h (0 Bft) N 0 ° 0 min 0 W/m² 12,0 °C 12,6 °C 0,0 km/h (0 Bft)
31.05.2024 04:18 21,6 °C 12,5 °C 62 % 95 % 1005,6 hPa 0,0 l/m² 0,0 km/h (0 Bft) N 0 ° 0 min 0 W/m² 11,7 °C 12,5 °C 0,0 km/h (0 Bft)
31.05.2024 04:19 21,6 °C 12,6 °C 62 % 95 % 1005,6 hPa 0,0 l/m² 0,0 km/h (0 Bft) N 0 ° 0 min 0 W/m² 11,8 °C 12,6 °C 0,0 km/h (0 Bft)
31.05.2024 04:20 21,6 °C 12,5 °C 62 % 95 % 1005,6 hPa 0,0 l/m² 0,0 km/h (0 Bft) N 0 ° 0 min 0 W/m² 11,7 °C 12,5 °C 0,0 km/h (0 Bft)
31.05.2024 04:21 21,6 °C 12,5 °C 62 % 95 % 1005,6 hPa 0,0 l/m² 0,0 km/h (0 Bft) N 0 ° 0 min 0 W/m² 11,7 °C 12,5 °C 0,0 km/h (0 Bft)
31.05.2024 04:22 21,6 °C 12,5 °C 62 % 95 % 1005,5 hPa 0,0 l/m² 0,0 km/h (0 Bft) W-SW 247 ° 0 min 0 W/m² 11,7 °C 12,5 °C 1,6 km/h (1 Bft)
31.05.2024 04:23 21,6 °C 12,4 °C 62 % 95 % 1005,6 hPa 0,0 l/m² 0,0 km/h (0 Bft) N 0 ° 0 min 0 W/m² 11,6 °C 12,4 °C 0,0 km/h (0 Bft)
31.05.2024 04:24 21,6 °C 12,4 °C 62 % 95 % 1005,5 hPa 0,0 l/m² 0,0 km/h (0 Bft) N 0 ° 0 min 0 W/m² 11,6 °C 12,4 °C 0,0 km/h (0 Bft)
31.05.2024 04:25 21,6 °C 12,4 °C 62 % 95 % 1005,5 hPa 0,0 l/m² 0,0 km/h (0 Bft) N 0 ° 0 min 0 W/m² 11,6 °C 12,4 °C 0,0 km/h (0 Bft)
31.05.2024 04:26 21,6 °C 12,4 °C 62 % 95 % 1005,4 hPa 0,0 l/m² 0,0 km/h (0 Bft) W-SW 247 ° 0 min 0 W/m² 11,6 °C 12,4 °C 1,6 km/h (1 Bft)
31.05.2024 04:27 21,6 °C 12,4 °C 62 % 95 % 1005,5 hPa 0,0 l/m² 0,0 km/h (0 Bft) W-SW 247 ° 0 min 0 W/m² 11,6 °C 12,4 °C 1,6 km/h (1 Bft)
31.05.2024 04:28 21,6 °C 12,4 °C 62 % 95 % 1005,5 hPa 0,0 l/m² 0,0 km/h (0 Bft) N 0 ° 0 min 0 W/m² 11,6 °C 12,4 °C 0,0 km/h (0 Bft)
31.05.2024 04:29 21,6 °C 12,3 °C 62 % 95 % 1005,4 hPa 0,0 l/m² 0,0 km/h (0 Bft) W-SW 247 ° 0 min 0 W/m² 11,5 °C 12,3 °C 1,6 km/h (1 Bft)
31.05.2024 04:30 21,6 °C 12,3 °C 62 % 95 % 1005,5 hPa 0,0 l/m² 0,0 km/h (0 Bft) W-SW 247 ° 0 min 0 W/m² 11,5 °C 12,3 °C 1,6 km/h (1 Bft)
31.05.2024 04:31 21,6 °C 12,2 °C 62 % 95 % 1005,5 hPa 0,0 l/m² 0,0 km/h (0 Bft) N 0 ° 0 min 0 W/m² 11,4 °C 12,2 °C 0,0 km/h (0 Bft)
31.05.2024 04:32 21,6 °C 12,2 °C 62 % 95 % 1005,5 hPa 0,0 l/m² 0,0 km/h (0 Bft) N 0 ° 0 min 0 W/m² 11,4 °C 12,2 °C 0,0 km/h (0 Bft)
31.05.2024 04:33 21,6 °C 12,2 °C 62 % 95 % 1005,4 hPa 0,0 l/m² 0,0 km/h (0 Bft) W-SW 247 ° 0 min 0 W/m² 11,4 °C 12,2 °C 1,6 km/h (1 Bft)
31.05.2024 04:34 21,6 °C 12,2 °C 62 % 95 % 1005,5 hPa 0,0 l/m² 0,0 km/h (0 Bft) N 0 ° 0 min 0 W/m² 11,4 °C 12,2 °C 0,0 km/h (0 Bft)
31.05.2024 04:35 21,6 °C 12,2 °C 62 % 95 % 1005,4 hPa 0,0 l/m² 0,0 km/h (0 Bft) N 0 ° 0 min 0 W/m² 11,4 °C 12,2 °C 0,0 km/h (0 Bft)
31.05.2024 04:36 21,6 °C 12,2 °C 62 % 95 % 1005,4 hPa 0,0 l/m² 0,0 km/h (0 Bft) N 0 ° 0 min 0 W/m² 11,4 °C 12,2 °C 0,0 km/h (0 Bft)
31.05.2024 04:37 21,6 °C 12,2 °C 62 % 95 % 1005,4 hPa 0,0 l/m² 0,0 km/h (0 Bft) N 0 ° 0 min 0 W/m² 11,4 °C 12,2 °C 0,0 km/h (0 Bft)
31.05.2024 04:38 21,6 °C 12,1 °C 62 % 95 % 1005,5 hPa 0,0 l/m² 1,6 km/h (1 Bft) W-SW 247 ° 0 min 0 W/m² 11,3 °C 12,1 °C 3,2 km/h (1 Bft)
31.05.2024 04:39 21,6 °C 12,1 °C 62 % 95 % 1005,5 hPa 0,0 l/m² 0,0 km/h (0 Bft) W-SW 247 ° 0 min 0 W/m² 11,3 °C 12,1 °C 1,6 km/h (1 Bft)
31.05.2024 04:40 21,6 °C 12,1 °C 62 % 95 % 1005,5 hPa 0,0 l/m² 1,6 km/h (1 Bft) W-SW 247 ° 0 min 0 W/m² 11,3 °C 12,1 °C 3,2 km/h (1 Bft)
31.05.2024 04:41 21,6 °C 12,1 °C 62 % 95 % 1005,5 hPa 0,0 l/m² 1,6 km/h (1 Bft) W-SW 247 ° 0 min 0 W/m² 11,3 °C 12,1 °C 3,2 km/h (1 Bft)
31.05.2024 04:42 21,6 °C 12,1 °C 62 % 95 % 1005,5 hPa 0,0 l/m² 1,6 km/h (1 Bft) W-SW 247 ° 0 min 0 W/m² 11,3 °C 12,1 °C 3,2 km/h (1 Bft)
31.05.2024 04:43 21,6 °C 12,0 °C 62 % 95 % 1005,6 hPa 0,0 l/m² 1,6 km/h (1 Bft) W-SW 247 ° 0 min 0 W/m² 11,2 °C 12,0 °C 3,2 km/h (1 Bft)
31.05.2024 04:44 21,6 °C 11,9 °C 62 % 95 % 1005,5 hPa 0,0 l/m² 0,0 km/h (0 Bft) W-SW 247 ° 0 min 0 W/m² 11,1 °C 11,9 °C 1,6 km/h (1 Bft)
31.05.2024 04:45 21,6 °C 11,9 °C 62 % 95 % 1005,6 hPa 0,0 l/m² 0,0 km/h (0 Bft) N 0 ° 0 min 0 W/m² 11,1 °C 11,9 °C 0,0 km/h (0 Bft)
31.05.2024 04:46 21,6 °C 11,9 °C 62 % 95 % 1005,6 hPa 0,0 l/m² 0,0 km/h (0 Bft) N 0 ° 0 min 0 W/m² 11,1 °C 11,9 °C 0,0 km/h (0 Bft)
31.05.2024 04:47 21,6 °C 11,9 °C 62 % 95 % 1005,6 hPa 0,0 l/m² 0,0 km/h (0 Bft) W-SW 247 ° 0 min 0 W/m² 11,1 °C 11,9 °C 1,6 km/h (1 Bft)
31.05.2024 04:48 21,6 °C 11,8 °C 62 % 95 % 1005,6 hPa 0,0 l/m² 1,6 km/h (1 Bft) W-SW 247 ° 0 min 0 W/m² 11,0 °C 11,8 °C 3,2 km/h (1 Bft)
31.05.2024 04:49 21,6 °C 11,8 °C 62 % 95 % 1005,7 hPa 0,0 l/m² 1,6 km/h (1 Bft) W-SW 247 ° 0 min 0 W/m² 11,0 °C 11,8 °C 3,2 km/h (1 Bft)
31.05.2024 04:50 21,6 °C 11,9 °C 62 % 95 % 1005,7 hPa 0,0 l/m² 3,2 km/h (1 Bft) W-SW 247 ° 0 min 0 W/m² 11,1 °C 11,9 °C 6,4 km/h (2 Bft)
31.05.2024 04:51 21,5 °C 11,9 °C 62 % 95 % 1005,7 hPa 0,0 l/m² 3,2 km/h (1 Bft) W-SW 247 ° 0 min 0 W/m² 11,1 °C 11,9 °C 4,8 km/h (1 Bft)
31.05.2024 04:52 21,5 °C 11,9 °C 62 % 95 % 1005,7 hPa 0,0 l/m² 1,6 km/h (1 Bft) W-SW 247 ° 0 min 0 W/m² 11,1 °C 11,9 °C 3,2 km/h (1 Bft)
31.05.2024 04:53 21,6 °C 11,9 °C 62 % 96 % 1005,6 hPa 0,0 l/m² 1,6 km/h (1 Bft) W-SW 247 ° 0 min 0 W/m² 11,3 °C 11,9 °C 3,2 km/h (1 Bft)
31.05.2024 04:54 21,5 °C 11,9 °C 62 % 95 % 1005,7 hPa 0,0 l/m² 1,6 km/h (1 Bft) W-SW 247 ° 0 min 0 W/m² 11,1 °C 11,9 °C 3,2 km/h (1 Bft)
31.05.2024 04:55 21,6 °C 11,9 °C 62 % 95 % 1005,6 hPa 0,0 l/m² 1,6 km/h (1 Bft) W-SW 247 ° 0 min 0 W/m² 11,1 °C 11,9 °C 3,2 km/h (1 Bft)
31.05.2024 04:56 21,6 °C 11,9 °C 62 % 95 % 1005,6 hPa 0,0 l/m² 0,0 km/h (0 Bft) N 0 ° 0 min 0 W/m² 11,1 °C 11,9 °C 0,0 km/h (0 Bft)
31.05.2024 04:57 21,6 °C 11,9 °C 62 % 95 % 1005,7 hPa 0,0 l/m² 0,0 km/h (0 Bft) W-SW 247 ° 0 min 0 W/m² 11,1 °C 11,9 °C 1,6 km/h (1 Bft)
31.05.2024 04:58 21,6 °C 11,9 °C 62 % 95 % 1005,6 hPa 0,0 l/m² 0,0 km/h (0 Bft) W-SW 247 ° 0 min 0 W/m² 11,1 °C 11,9 °C 3,2 km/h (1 Bft)
31.05.2024 04:59 21,5 °C 11,9 °C 62 % 95 % 1005,7 hPa 0,0 l/m² 0,0 km/h (0 Bft) N 0 ° 0 min 0 W/m² 11,1 °C 11,9 °C 0,0 km/h (0 Bft)
31.05.2024 05:00 21,5 °C 11,9 °C 62 % 95 % 1005,6 hPa 0,0 l/m² 0,0 km/h (0 Bft) N 0 ° 0 min 0 W/m² 11,1 °C 11,9 °C 0,0 km/h (0 Bft)
31.05.2024 05:01 21,6 °C 11,9 °C 62 % 95 % 1005,7 hPa 0,0 l/m² 0,0 km/h (0 Bft) N 0 ° 0 min 0 W/m² 11,1 °C 11,9 °C 0,0 km/h (0 Bft)
31.05.2024 05:02 21,6 °C 11,9 °C 62 % 95 % 1005,7 hPa 0,0 l/m² 0,0 km/h (0 Bft) N 0 ° 0 min 0 W/m² 11,1 °C 11,9 °C 0,0 km/h (0 Bft)
31.05.2024 05:03 21,5 °C 11,9 °C 62 % 95 % 1005,7 hPa 0,0 l/m² 0,0 km/h (0 Bft) W-SW 247 ° 0 min 0 W/m² 11,1 °C 11,9 °C 1,6 km/h (1 Bft)
31.05.2024 05:04 21,5 °C 11,9 °C 62 % 95 % 1005,8 hPa 0,0 l/m² 0,0 km/h (0 Bft) N 0 ° 0 min 0 W/m² 11,1 °C 11,9 °C 0,0 km/h (0 Bft)
31.05.2024 05:05 21,5 °C 11,9 °C 62 % 95 % 1005,7 hPa 0,0 l/m² 0,0 km/h (0 Bft) W-SW 247 ° 0 min 0 W/m² 11,1 °C 11,9 °C 3,2 km/h (1 Bft)
31.05.2024 05:06 21,6 °C 11,9 °C 62 % 95 % 1005,7 hPa 0,0 l/m² 0,0 km/h (0 Bft) W-SW 247 ° 0 min 0 W/m² 11,1 °C 11,9 °C 1,6 km/h (1 Bft)
31.05.2024 05:07 21,5 °C 11,9 °C 62 % 95 % 1005,8 hPa 0,0 l/m² 0,0 km/h (0 Bft) W-SW 247 ° 0 min 0 W/m² 11,1 °C 11,9 °C 1,6 km/h (1 Bft)
31.05.2024 05:08 21,5 °C 11,9 °C 62 % 95 % 1005,7 hPa 0,0 l/m² 0,0 km/h (0 Bft) W-SW 247 ° 0 min 0 W/m² 11,1 °C 11,9 °C 3,2 km/h (1 Bft)
31.05.2024 05:09 21,6 °C 11,9 °C 62 % 95 % 1005,8 hPa 0,0 l/m² 0,0 km/h (0 Bft) W-SW 247 ° 0 min 0 W/m² 11,1 °C 11,9 °C 1,6 km/h (1 Bft)
31.05.2024 05:10 21,5 °C 11,9 °C 62 % 95 % 1005,8 hPa 0,0 l/m² 1,6 km/h (1 Bft) W-SW 247 ° 0 min 5 W/m² 11,1 °C 11,9 °C 4,8 km/h (1 Bft)
31.05.2024 05:11 21,6 °C 11,9 °C 62 % 95 % 1005,8 hPa 0,0 l/m² 0,0 km/h (0 Bft) W-SW 247 ° 0 min 5 W/m² 11,1 °C 11,9 °C 1,6 km/h (1 Bft)
31.05.2024 05:12 21,6 °C 11,9 °C 62 % 96 % 1005,7 hPa 0,0 l/m² 0,0 km/h (0 Bft) W-SW 247 ° 0 min 5 W/m² 11,3 °C 11,9 °C 1,6 km/h (1 Bft)
31.05.2024 05:13 21,6 °C 11,9 °C 62 % 96 % 1005,8 hPa 0,0 l/m² 0,0 km/h (0 Bft) W-SW 247 ° 0 min 5 W/m² 11,3 °C 11,9 °C 1,6 km/h (1 Bft)
31.05.2024 05:14 21,6 °C 12,0 °C 62 % 96 % 1005,8 hPa 0,0 l/m² 0,0 km/h (0 Bft) W-SW 247 ° 0 min 5 W/m² 11,4 °C 12,0 °C 3,2 km/h (1 Bft)
31.05.2024 05:15 21,6 °C 11,9 °C 62 % 96 % 1005,8 hPa 0,0 l/m² 0,0 km/h (0 Bft) W-SW 247 ° 0 min 5 W/m² 11,3 °C 11,9 °C 1,6 km/h (1 Bft)
31.05.2024 05:16 21,6 °C 12,0 °C 62 % 96 % 1005,9 hPa 0,0 l/m² 0,0 km/h (0 Bft) N 0 ° 0 min 5 W/m² 11,4 °C 12,0 °C 0,0 km/h (0 Bft)
31.05.2024 05:17 21,6 °C 12,1 °C 62 % 96 % 1005,8 hPa 0,0 l/m² 0,0 km/h (0 Bft) W-SW 247 ° 0 min 5 W/m² 11,5 °C 12,1 °C 1,6 km/h (1 Bft)
31.05.2024 05:18 21,6 °C 12,1 °C 62 % 95 % 1005,8 hPa 0,0 l/m² 0,0 km/h (0 Bft) N 0 ° 0 min 7 W/m² 11,3 °C 12,1 °C 0,0 km/h (0 Bft)
31.05.2024 05:19 21,6 °C 12,1 °C 62 % 95 % 1005,8 hPa 0,0 l/m² 0,0 km/h (0 Bft) N 0 ° 0 min 9 W/m² 11,3 °C 12,1 °C 0,0 km/h (0 Bft)
31.05.2024 05:20 21,6 °C 12,1 °C 62 % 95 % 1005,8 hPa 0,0 l/m² 0,0 km/h (0 Bft) N 0 ° 0 min 11 W/m² 11,3 °C 12,1 °C 0,0 km/h (0 Bft)
31.05.2024 05:21 21,6 °C 12,1 °C 62 % 95 % 1005,9 hPa 0,0 l/m² 0,0 km/h (0 Bft) N 0 ° 0 min 11 W/m² 11,3 °C 12,1 °C 0,0 km/h (0 Bft)
31.05.2024 05:22 21,6 °C 12,1 °C 63 % 95 % 1005,9 hPa 0,0 l/m² 0,0 km/h (0 Bft) N 0 ° 0 min 12 W/m² 11,3 °C 12,1 °C 0,0 km/h (0 Bft)
31.05.2024 05:27 21,6 °C 12,1 °C 63 % 95 % 1005,9 hPa 0,0 l/m² 0,0 km/h (0 Bft) W-SW 240 ° 0 min 12 W/m² 11,3 °C 12,1 °C 0,0 km/h (0 Bft)
31.05.2024 05:29 21,6 °C 12,2 °C 63 % 95 % 1005,9 hPa 0,0 l/m² 0,0 km/h (0 Bft) W-SW 240 ° 0 min 14 W/m² 11,4 °C 12,2 °C 0,0 km/h (0 Bft)
31.05.2024 05:30 21,6 °C 12,2 °C 63 % 96 % 1005,9 hPa 0,0 l/m² 0,0 km/h (0 Bft) W-SW 240 ° 0 min 16 W/m² 11,6 °C 12,2 °C 0,0 km/h (0 Bft)
31.05.2024 05:32 21,7 °C 12,3 °C 63 % 96 % 1005,9 hPa 0,0 l/m² 0,0 km/h (0 Bft) W-SW 240 ° 0 min 21 W/m² 11,7 °C 12,3 °C 0,0 km/h (0 Bft)
31.05.2024 05:33 21,7 °C 12,3 °C 63 % 96 % 1005,9 hPa 0,0 l/m² 0,0 km/h (0 Bft) W-SW 240 ° 0 min 21 W/m² 11,7 °C 12,3 °C 0,0 km/h (0 Bft)
31.05.2024 05:35 21,7 °C 12,3 °C 63 % 96 % 1005,9 hPa 0,0 l/m² 0,1 km/h (0 Bft) W-SW 240 ° 0 min 21 W/m² 11,7 °C 12,3 °C 1,6 km/h (1 Bft)
31.05.2024 05:37 21,7 °C 12,4 °C 62 % 96 % 1005,9 hPa 0,0 l/m² 0,0 km/h (0 Bft) W-SW 240 ° 0 min 21 W/m² 11,8 °C 12,4 °C 0,0 km/h (0 Bft)
31.05.2024 05:39 21,7 °C 12,4 °C 62 % 96 % 1005,8 hPa 0,0 l/m² 0,3 km/h (0 Bft) W-SW 240 ° 0 min 28 W/m² 11,8 °C 12,4 °C 1,6 km/h (1 Bft)
31.05.2024 05:41 21,7 °C 12,4 °C 62 % 96 % 1005,8 hPa 0,0 l/m² 0,0 km/h (0 Bft) W-SW 240 ° 0 min 30 W/m² 11,8 °C 12,4 °C 0,0 km/h (0 Bft)
31.05.2024 05:42 21,7 °C 12,4 °C 62 % 96 % 1005,8 hPa 0,0 l/m² 0,0 km/h (0 Bft) W-SW 240 ° 0 min 30 W/m² 11,8 °C 12,4 °C 0,0 km/h (0 Bft)
31.05.2024 05:43 21,7 °C 12,5 °C 62 % 96 % 1005,9 hPa 0,0 l/m² 0,0 km/h (0 Bft) W-SW 240 ° 0 min 32 W/m² 11,9 °C 12,5 °C 0,0 km/h (0 Bft)
31.05.2024 05:44 21,7 °C 12,5 °C 62 % 95 % 1005,9 hPa 0,0 l/m² 0,0 km/h (0 Bft) W-SW 240 ° 0 min 30 W/m² 11,7 °C 12,5 °C 0,0 km/h (0 Bft)
31.05.2024 05:46 21,7 °C 12,5 °C 62 % 95 % 1005,9 hPa 0,0 l/m² 0,0 km/h (0 Bft) W-SW 240 ° 0 min 26 W/m² 11,7 °C 12,5 °C 0,0 km/h (0 Bft)
31.05.2024 05:48 21,7 °C 12,5 °C 62 % 95 % 1005,9 hPa 0,0 l/m² 0,0 km/h (0 Bft) W-SW 240 ° 0 min 28 W/m² 11,7 °C 12,5 °C 0,0 km/h (0 Bft)
31.05.2024 05:50 21,7 °C 12,4 °C 62 % 95 % 1005,9 hPa 0,0 l/m² 0,1 km/h (0 Bft) W-SW 240 ° 0 min 28 W/m² 11,6 °C 12,4 °C 1,6 km/h (1 Bft)
31.05.2024 05:51 21,7 °C 12,4 °C 62 % 95 % 1005,8 hPa 0,0 l/m² 0,0 km/h (0 Bft) W-SW 240 ° 0 min 28 W/m² 11,6 °C 12,4 °C 0,0 km/h (0 Bft)
31.05.2024 05:53 21,7 °C 12,4 °C 62 % 95 % 1005,9 hPa 0,0 l/m² 0,0 km/h (0 Bft) W-SW 240 ° 0 min 32 W/m² 11,6 °C 12,4 °C 0,0 km/h (0 Bft)
31.05.2024 05:54 21,7 °C 12,4 °C 62 % 95 % 1005,8 hPa 0,0 l/m² 0,0 km/h (0 Bft) W-SW 240 ° 0 min 30 W/m² 11,6 °C 12,4 °C 0,0 km/h (0 Bft)
31.05.2024 05:56 21,7 °C 12,4 °C 62 % 95 % 1005,9 hPa 0,0 l/m² 0,0 km/h (0 Bft) W-SW 240 ° 0 min 21 W/m² 11,6 °C 12,4 °C 0,0 km/h (0 Bft)
31.05.2024 05:58 21,7 °C 12,4 °C 62 % 95 % 1006,0 hPa 0,0 l/m² 0,4 km/h (0 Bft) W-SW 240 ° 0 min 19 W/m² 11,6 °C 12,4 °C 1,6 km/h (1 Bft)
31.05.2024 06:00 21,7 °C 12,4 °C 62 % 95 % 1006,0 hPa 0,0 l/m² 0,4 km/h (0 Bft) W-SW 240 ° 0 min 19 W/m² 11,6 °C 12,4 °C 3,2 km/h (1 Bft)
31.05.2024 06:01 21,7 °C 12,4 °C 62 % 95 % 1006,0 hPa 0,0 l/m² 0,2 km/h (0 Bft) W-SW 240 ° 0 min 21 W/m² 11,6 °C 12,4 °C 1,6 km/h (1 Bft)
31.05.2024 06:03 21,7 °C 12,3 °C 62 % 95 % 1006,1 hPa 0,0 l/m² 0,1 km/h (0 Bft) W-SW 240 ° 0 min 23 W/m² 11,5 °C 12,3 °C 1,6 km/h (1 Bft)
31.05.2024 06:04 21,7 °C 12,3 °C 62 % 95 % 1006,0 hPa 0,0 l/m² 0,3 km/h (0 Bft) W-SW 240 ° 0 min 25 W/m² 11,5 °C 12,3 °C 1,6 km/h (1 Bft)
31.05.2024 06:06 21,7 °C 12,3 °C 62 % 95 % 1006,0 hPa 0,0 l/m² 0,0 km/h (0 Bft) W-SW 240 ° 0 min 21 W/m² 11,5 °C 12,3 °C 1,6 km/h (1 Bft)
31.05.2024 06:08 21,7 °C 12,3 °C 62 % 95 % 1006,0 hPa 0,0 l/m² 0,3 km/h (0 Bft) W-SW 240 ° 0 min 21 W/m² 11,5 °C 12,3 °C 1,6 km/h (1 Bft)
31.05.2024 06:10 21,7 °C 12,3 °C 62 % 95 % 1006,2 hPa 0,0 l/m² 0,1 km/h (0 Bft) W-SW 240 ° 0 min 21 W/m² 11,5 °C 12,3 °C 1,6 km/h (1 Bft)
31.05.2024 06:11 21,7 °C 12,2 °C 62 % 95 % 1006,2 hPa 0,0 l/m² 0,0 km/h (0 Bft) W-SW 240 ° 0 min 21 W/m² 11,4 °C 12,2 °C 0,0 km/h (0 Bft)
31.05.2024 06:13 21,7 °C 12,2 °C 62 % 95 % 1006,2 hPa 0,0 l/m² 0,0 km/h (0 Bft) W-SW 240 ° 0 min 23 W/m² 11,4 °C 12,2 °C 0,0 km/h (0 Bft)
31.05.2024 06:14 21,7 °C 12,2 °C 62 % 95 % 1006,2 hPa 0,0 l/m² 0,0 km/h (0 Bft) W-SW 240 ° 0 min 23 W/m² 11,4 °C 12,2 °C 0,0 km/h (0 Bft)
31.05.2024 06:16 21,7 °C 12,2 °C 62 % 95 % 1006,2 hPa 0,0 l/m² 0,0 km/h (0 Bft) W-SW 240 ° 0 min 32 W/m² 11,4 °C 12,2 °C 0,0 km/h (0 Bft)
31.05.2024 06:18 21,7 °C 12,2 °C 62 % 96 % 1006,1 hPa 0,0 l/m² 0,0 km/h (0 Bft) W-SW 240 ° 2 min 72 W/m² 11,6 °C 12,2 °C 0,0 km/h (0 Bft)
31.05.2024 06:20 21,7 °C 12,2 °C 62 % 96 % 1006,2 hPa 0,0 l/m² 0,0 km/h (0 Bft) W-SW 240 ° 2 min 67 W/m² 11,6 °C 12,2 °C 0,0 km/h (0 Bft)
31.05.2024 06:21 21,7 °C 12,2 °C 62 % 96 % 1006,3 hPa 0,0 l/m² 0,2 km/h (0 Bft) W-SW 240 ° 0 min 46 W/m² 11,6 °C 12,2 °C 1,6 km/h (1 Bft)
31.05.2024 06:23 21,7 °C 12,3 °C 62 % 96 % 1006,3 hPa 0,0 l/m² 0,0 km/h (0 Bft) W-SW 240 ° 2 min 74 W/m² 11,7 °C 12,3 °C 0,0 km/h (0 Bft)
31.05.2024 06:24 21,7 °C 12,3 °C 62 % 96 % 1006,3 hPa 0,0 l/m² 0,0 km/h (0 Bft) W-SW 240 ° 1 min 53 W/m² 11,7 °C 12,3 °C 0,0 km/h (0 Bft)
31.05.2024 06:26 21,7 °C 12,3 °C 62 % 96 % 1006,3 hPa 0,0 l/m² 0,4 km/h (0 Bft) W-SW 240 ° 2 min 67 W/m² 11,7 °C 12,3 °C 1,6 km/h (1 Bft)
31.05.2024 06:28 21,7 °C 12,4 °C 62 % 96 % 1006,3 hPa 0,0 l/m² 4,0 km/h (1 Bft) SW 229 ° 2 min 54 W/m² 11,8 °C 12,4 °C 6,4 km/h (2 Bft)
31.05.2024 06:30 21,7 °C 12,4 °C 62 % 96 % 1006,3 hPa 0,0 l/m² 4,1 km/h (1 Bft) SW 227 ° 2 min 76 W/m² 11,8 °C 12,4 °C 6,4 km/h (2 Bft)
31.05.2024 06:31 21,7 °C 12,6 °C 62 % 96 % 1006,4 hPa 0,0 l/m² 4,8 km/h (1 Bft) SW 224 ° 1 min 88 W/m² 12,0 °C 12,6 °C 8,0 km/h (2 Bft)
31.05.2024 06:33 21,7 °C 12,7 °C 62 % 96 % 1006,5 hPa 0,0 l/m² 6,5 km/h (2 Bft) SW 215 ° 2 min 98 W/m² 12,1 °C 12,7 °C 8,0 km/h (2 Bft)
31.05.2024 06:34 21,7 °C 12,7 °C 62 % 96 % 1006,5 hPa 0,0 l/m² 6,9 km/h (2 Bft) SW 218 ° 1 min 93 W/m² 12,1 °C 12,4 °C 9,7 km/h (2 Bft)
31.05.2024 06:36 21,7 °C 12,8 °C 62 % 96 % 1006,5 hPa 0,0 l/m² 6,3 km/h (2 Bft) SW 221 ° 2 min 91 W/m² 12,2 °C 12,8 °C 9,7 km/h (2 Bft)
31.05.2024 06:38 21,7 °C 12,9 °C 62 % 96 % 1006,5 hPa 0,0 l/m² 3,2 km/h (1 Bft) SW 222 ° 2 min 76 W/m² 12,3 °C 12,9 °C 8,0 km/h (2 Bft)
31.05.2024 06:40 21,7 °C 12,9 °C 62 % 96 % 1006,5 hPa 0,0 l/m² 0,8 km/h (0 Bft) SW 220 ° 2 min 76 W/m² 12,3 °C 12,9 °C 6,4 km/h (2 Bft)
31.05.2024 06:41 21,7 °C 13,0 °C 62 % 96 % 1006,5 hPa 0,0 l/m² 5,7 km/h (2 Bft) SW 219 ° 1 min 102 W/m² 12,4 °C 13,0 °C 9,7 km/h (2 Bft)
31.05.2024 06:43 21,7 °C 13,0 °C 62 % 96 % 1006,5 hPa 0,0 l/m² 5,8 km/h (2 Bft) SW 219 ° 2 min 98 W/m² 12,4 °C 13,0 °C 9,7 km/h (2 Bft)
31.05.2024 06:44 21,7 °C 13,0 °C 62 % 96 % 1006,5 hPa 0,0 l/m² 5,5 km/h (2 Bft) SW 219 ° 1 min 88 W/m² 12,4 °C 13,0 °C 8,0 km/h (2 Bft)
31.05.2024 06:47 21,7 °C 13,0 °C 62 % 96 % 1006,6 hPa 0,0 l/m² 6,1 km/h (2 Bft) SW 222 ° 3 min 151 W/m² 12,4 °C 13,0 °C 9,7 km/h (2 Bft)
31.05.2024 06:49 21,7 °C 13,1 °C 62 % 96 % 1006,6 hPa 0,0 l/m² 6,3 km/h (2 Bft) SW 219 ° 2 min 204 W/m² 12,5 °C 13,1 °C 8,0 km/h (2 Bft)
31.05.2024 06:51 21,7 °C 13,2 °C 62 % 96 % 1006,6 hPa 0,0 l/m² 6,3 km/h (2 Bft) SW 227 ° 2 min 216 W/m² 12,6 °C 13,2 °C 11,3 km/h (2 Bft)
31.05.2024 06:52 21,7 °C 13,3 °C 62 % 96 % 1006,6 hPa 0,0 l/m² 7,0 km/h (2 Bft) SW 223 ° 1 min 207 W/m² 12,7 °C 12,9 °C 9,7 km/h (2 Bft)
31.05.2024 06:53 21,7 °C 13,3 °C 62 % 96 % 1006,6 hPa 0,0 l/m² 4,1 km/h (1 Bft) SW 223 ° 1 min 207 W/m² 12,7 °C 13,3 °C 8,0 km/h (2 Bft)
31.05.2024 06:54 21,7 °C 13,3 °C 62 % 96 % 1006,6 hPa 0,0 l/m² 6,6 km/h (2 Bft) SW 227 ° 1 min 199 W/m² 12,7 °C 13,2 °C 9,7 km/h (2 Bft)
31.05.2024 06:56 21,7 °C 13,4 °C 62 % 96 % 1006,5 hPa 0,0 l/m² 4,4 km/h (1 Bft) SW 228 ° 2 min 213 W/m² 12,8 °C 13,4 °C 9,7 km/h (2 Bft)
31.05.2024 06:58 21,7 °C 13,6 °C 62 % 96 % 1006,5 hPa 0,0 l/m² 4,9 km/h (1 Bft) SW 225 ° 2 min 218 W/m² 13,0 °C 13,6 °C 8,0 km/h (2 Bft)
31.05.2024 07:00 21,7 °C 13,7 °C 62 % 96 % 1006,5 hPa 0,0 l/m² 2,5 km/h (1 Bft) SW 225 ° 2 min 95 W/m² 13,1 °C 13,7 °C 6,4 km/h (2 Bft)
31.05.2024 07:01 21,7 °C 13,7 °C 62 % 96 % 1006,4 hPa 0,0 l/m² 5,0 km/h (1 Bft) SW 225 ° 1 min 69 W/m² 13,1 °C 13,7 °C 8,0 km/h (2 Bft)
31.05.2024 07:02 21,7 °C 13,7 °C 62 % 96 % 1006,5 hPa 0,0 l/m² 3,1 km/h (1 Bft) SW 225 ° 1 min 67 W/m² 13,1 °C 13,7 °C 6,4 km/h (2 Bft)
31.05.2024 07:03 21,7 °C 13,7 °C 62 % 96 % 1006,5 hPa 0,0 l/m² 6,3 km/h (2 Bft) SW 226 ° 1 min 63 W/m² 13,1 °C 13,7 °C 8,0 km/h (2 Bft)
31.05.2024 07:05 21,7 °C 13,8 °C 62 % 96 % 1006,5 hPa 0,0 l/m² 3,1 km/h (1 Bft) SW 231 ° 2 min 67 W/m² 13,2 °C 13,8 °C 6,4 km/h (2 Bft)
31.05.2024 07:07 21,7 °C 13,8 °C 62 % 96 % 1006,5 hPa 0,0 l/m² 1,3 km/h (1 Bft) SW 231 ° 2 min 121 W/m² 13,2 °C 13,8 °C 6,4 km/h (2 Bft)
31.05.2024 07:09 21,7 °C 13,8 °C 62 % 95 % 1006,5 hPa 0,0 l/m² 2,5 km/h (1 Bft) SW 231 ° 2 min 169 W/m² 13,0 °C 13,8 °C 6,4 km/h (2 Bft)
31.05.2024 07:10 21,7 °C 13,7 °C 62 % 95 % 1006,6 hPa 0,0 l/m² 0,0 km/h (0 Bft) SW 231 ° 1 min 148 W/m² 12,9 °C 13,7 °C 0,0 km/h (0 Bft)
31.05.2024 07:12 21,7 °C 13,8 °C 62 % 95 % 1006,5 hPa 0,0 l/m² 0,0 km/h (0 Bft) SW 231 ° 2 min 163 W/m² 13,0 °C 13,8 °C 0,0 km/h (0 Bft)
31.05.2024 07:13 21,7 °C 13,8 °C 62 % 95 % 1006,5 hPa 0,0 l/m² 0,1 km/h (0 Bft) SW 231 ° 1 min 134 W/m² 13,0 °C 13,8 °C 1,6 km/h (1 Bft)
31.05.2024 07:15 21,7 °C 13,8 °C 62 % 95 % 1006,7 hPa 0,0 l/m² 2,8 km/h (1 Bft) SW 231 ° 2 min 137 W/m² 13,0 °C 13,8 °C 6,4 km/h (2 Bft)
31.05.2024 07:17 21,7 °C 13,9 °C 62 % 95 % 1006,8 hPa 0,0 l/m² 2,1 km/h (1 Bft) SW 231 ° 2 min 176 W/m² 13,1 °C 13,9 °C 4,8 km/h (1 Bft)
31.05.2024 07:19 21,7 °C 14,1 °C 62 % 95 % 1006,9 hPa 0,0 l/m² 4,0 km/h (1 Bft) SW 231 ° 2 min 221 W/m² 13,3 °C 14,1 °C 6,4 km/h (2 Bft)
31.05.2024 07:20 21,7 °C 14,1 °C 62 % 95 % 1006,9 hPa 0,0 l/m² 3,0 km/h (1 Bft) SW 231 ° 1 min 209 W/m² 13,3 °C 14,1 °C 4,8 km/h (1 Bft)
31.05.2024 07:22 21,7 °C 14,2 °C 62 % 95 % 1006,9 hPa 0,0 l/m² 4,9 km/h (1 Bft) SW 220 ° 2 min 232 W/m² 13,4 °C 14,2 °C 8,0 km/h (2 Bft)
31.05.2024 07:23 21,7 °C 14,2 °C 62 % 95 % 1006,9 hPa 0,0 l/m² 4,3 km/h (1 Bft) SW 221 ° 1 min 248 W/m² 13,4 °C 14,2 °C 6,4 km/h (2 Bft)
31.05.2024 07:25 21,7 °C 14,2 °C 62 % 95 % 1006,9 hPa 0,0 l/m² 2,7 km/h (1 Bft) SW 225 ° 2 min 283 W/m² 13,4 °C 14,2 °C 4,8 km/h (1 Bft)
31.05.2024 07:27 21,7 °C 14,4 °C 62 % 95 % 1006,9 hPa 0,0 l/m² 2,1 km/h (1 Bft) SW 224 ° 2 min 295 W/m² 13,6 °C 14,4 °C 4,8 km/h (1 Bft)
31.05.2024 07:29 21,7 °C 14,6 °C 62 % 95 % 1006,8 hPa 0,0 l/m² 3,0 km/h (1 Bft) SW 226 ° 2 min 311 W/m² 13,8 °C 14,6 °C 6,4 km/h (2 Bft)
31.05.2024 07:30 21,7 °C 14,6 °C 62 % 95 % 1006,9 hPa 0,0 l/m² 2,9 km/h (1 Bft) SW 236 ° 1 min 316 W/m² 13,8 °C 14,6 °C 8,0 km/h (2 Bft)
31.05.2024 07:32 21,7 °C 14,5 °C 62 % 94 % 1006,9 hPa 0,0 l/m² 3,7 km/h (1 Bft) W-SW 237 ° 2 min 322 W/m² 13,5 °C 14,5 °C 6,4 km/h (2 Bft)
31.05.2024 07:33 21,7 °C 14,5 °C 62 % 94 % 1006,9 hPa 0,0 l/m² 2,6 km/h (1 Bft) W-SW 237 ° 1 min 330 W/m² 13,5 °C 14,5 °C 4,8 km/h (1 Bft)
31.05.2024 07:35 21,7 °C 14,6 °C 62 % 94 % 1006,9 hPa 0,0 l/m² 2,7 km/h (1 Bft) W-SW 238 ° 2 min 262 W/m² 13,6 °C 14,6 °C 6,4 km/h (2 Bft)
31.05.2024 07:37 21,7 °C 14,7 °C 62 % 94 % 1006,9 hPa 0,0 l/m² 2,2 km/h (1 Bft) W-SW 238 ° 2 min 207 W/m² 13,7 °C 14,7 °C 6,4 km/h (2 Bft)
31.05.2024 07:39 21,7 °C 14,8 °C 62 % 94 % 1006,9 hPa 0,0 l/m² 6,1 km/h (2 Bft) SW 232 ° 2 min 211 W/m² 13,8 °C 14,8 °C 8,0 km/h (2 Bft)
31.05.2024 07:40 21,7 °C 14,7 °C 62 % 94 % 1006,9 hPa 0,0 l/m² 5,5 km/h (2 Bft) SW 236 ° 1 min 197 W/m² 13,7 °C 14,7 °C 8,0 km/h (2 Bft)
31.05.2024 07:42 21,7 °C 14,7 °C 62 % 93 % 1006,8 hPa 0,0 l/m² 5,5 km/h (2 Bft) W-SW 246 ° 2 min 211 W/m² 13,6 °C 14,7 °C 11,3 km/h (2 Bft)
31.05.2024 07:43 21,7 °C 14,7 °C 62 % 93 % 1006,8 hPa 0,0 l/m² 3,9 km/h (1 Bft) W-SW 246 ° 1 min 244 W/m² 13,6 °C 14,7 °C 6,4 km/h (2 Bft)
31.05.2024 07:45 21,7 °C 14,8 °C 62 % 94 % 1006,8 hPa 0,0 l/m² 2,4 km/h (1 Bft) W-SW 246 ° 2 min 308 W/m² 13,8 °C 14,8 °C 4,8 km/h (1 Bft)
31.05.2024 07:47 21,7 °C 14,9 °C 62 % 94 % 1006,8 hPa 0,0 l/m² 2,0 km/h (1 Bft) W-SW 246 ° 2 min 371 W/m² 13,9 °C 14,9 °C 8,0 km/h (2 Bft)
31.05.2024 07:49 21,7 °C 15,0 °C 62 % 93 % 1006,9 hPa 0,0 l/m² 5,8 km/h (2 Bft) W-SW 246 ° 2 min 366 W/m² 13,9 °C 15,0 °C 8,0 km/h (2 Bft)
31.05.2024 07:50 21,7 °C 15,1 °C 62 % 93 % 1006,9 hPa 0,0 l/m² 7,7 km/h (2 Bft) SW 225 ° 1 min 376 W/m² 14,0 °C 14,4 °C 16,1 km/h (3 Bft)
31.05.2024 07:52 21,7 °C 15,1 °C 62 % 92 % 1006,9 hPa 0,0 l/m² 9,6 km/h (2 Bft) W 269 ° 2 min 381 W/m² 13,8 °C 13,4 °C 14,5 km/h (3 Bft)
31.05.2024 07:53 21,7 °C 15,1 °C 62 % 92 % 1006,9 hPa 0,0 l/m² 5,8 km/h (2 Bft) W 260 ° 1 min 381 W/m² 13,8 °C 15,1 °C 11,3 km/h (2 Bft)
31.05.2024 07:55 21,7 °C 15,3 °C 62 % 92 % 1006,9 hPa 0,0 l/m² 4,8 km/h (1 Bft) W-SW 252 ° 2 min 137 W/m² 14,0 °C 15,3 °C 11,3 km/h (2 Bft)
31.05.2024 07:57 21,7 °C 15,3 °C 62 % 92 % 1006,9 hPa 0,0 l/m² 7,3 km/h (2 Bft) W 267 ° 2 min 192 W/m² 14,0 °C 14,8 °C 12,9 km/h (3 Bft)
31.05.2024 07:59 21,7 °C 15,3 °C 62 % 91 % 1006,9 hPa 0,0 l/m² 7,3 km/h (2 Bft) W 269 ° 2 min 181 W/m² 13,8 °C 14,8 °C 14,5 km/h (3 Bft)
31.05.2024 08:00 21,7 °C 15,4 °C 62 % 91 % 1006,8 hPa 0,0 l/m² 9,1 km/h (2 Bft) W 273 ° 1 min 454 W/m² 13,9 °C 14,0 °C 14,5 km/h (3 Bft)
31.05.2024 08:02 21,7 °C 15,5 °C 62 % 91 % 1006,9 hPa 0,0 l/m² 10,3 km/h (2 Bft) W-SW 244 ° 2 min 454 W/m² 14,0 °C 13,5 °C 17,7 km/h (3 Bft)
31.05.2024 08:03 21,7 °C 15,5 °C 62 % 90 % 1006,9 hPa 0,0 l/m² 10,1 km/h (2 Bft) W 265 ° 1 min 190 W/m² 13,9 °C 13,6 °C 17,7 km/h (3 Bft)
31.05.2024 08:05 21,7 °C 15,4 °C 62 % 90 % 1006,9 hPa 0,0 l/m² 10,4 km/h (2 Bft) W-SW 246 ° 2 min 195 W/m² 13,8 °C 13,4 °C 17,7 km/h (3 Bft)
31.05.2024 08:07 21,7 °C 15,4 °C 62 % 90 % 1007,0 hPa 0,0 l/m² 9,1 km/h (2 Bft) W 272 ° 2 min 206 W/m² 13,8 °C 14,0 °C 17,7 km/h (3 Bft)
31.05.2024 08:09 21,7 °C 15,4 °C 62 % 89 % 1007,0 hPa 0,0 l/m² 7,4 km/h (2 Bft) W 267 ° 2 min 234 W/m² 13,6 °C 14,8 °C 12,9 km/h (3 Bft)
31.05.2024 08:10 21,7 °C 15,4 °C 62 % 89 % 1007,2 hPa 0,0 l/m² 7,7 km/h (2 Bft) W 269 ° 1 min 248 W/m² 13,6 °C 14,7 °C 12,9 km/h (3 Bft)
31.05.2024 08:12 21,7 °C 15,4 °C 62 % 89 % 1007,2 hPa 0,0 l/m² 7,1 km/h (2 Bft) W-SW 255 ° 2 min 241 W/m² 13,6 °C 15,0 °C 12,9 km/h (3 Bft)
31.05.2024 08:13 21,7 °C 15,4 °C 62 % 90 % 1007,1 hPa 0,0 l/m² 7,6 km/h (2 Bft) W 260 ° 1 min 241 W/m² 13,8 °C 14,7 °C 12,9 km/h (3 Bft)
31.05.2024 08:15 21,7 °C 15,7 °C 62 % 89 % 1007,1 hPa 0,0 l/m² 10,6 km/h (2 Bft) W 269 ° 2 min 538 W/m² 13,9 °C 13,6 °C 16,1 km/h (3 Bft)
31.05.2024 08:17 21,7 °C 15,8 °C 62 % 89 % 1007,1 hPa 0,0 l/m² 9,3 km/h (2 Bft) W-SW 253 ° 2 min 227 W/m² 14,0 °C 14,3 °C 14,5 km/h (3 Bft)
31.05.2024 08:19 21,7 °C 15,8 °C 62 % 88 % 1007,2 hPa 0,0 l/m² 8,7 km/h (2 Bft) W 269 ° 2 min 323 W/m² 13,8 °C 14,6 °C 16,1 km/h (3 Bft)
31.05.2024 08:20 21,7 °C 15,8 °C 62 % 88 % 1007,1 hPa 0,0 l/m² 9,2 km/h (2 Bft) W 274 ° 1 min 237 W/m² 13,8 °C 14,4 °C 12,9 km/h (3 Bft)
31.05.2024 08:22 21,7 °C 15,8 °C 62 % 88 % 1007,1 hPa 0,0 l/m² 7,8 km/h (2 Bft) W 271 ° 2 min 522 W/m² 13,8 °C 15,0 °C 14,5 km/h (3 Bft)
31.05.2024 08:23 21,7 °C 15,8 °C 62 % 88 % 1007,1 hPa 0,0 l/m² 9,7 km/h (2 Bft) W-SW 245 ° 1 min 450 W/m² 13,8 °C 14,1 °C 12,9 km/h (3 Bft)
31.05.2024 08:25 21,7 °C 15,9 °C 62 % 87 % 1007,0 hPa 0,0 l/m² 8,9 km/h (2 Bft) W 272 ° 2 min 323 W/m² 13,7 °C 14,6 °C 16,1 km/h (3 Bft)
31.05.2024 08:27 21,7 °C 16,1 °C 62 % 87 % 1007,1 hPa 0,0 l/m² 6,0 km/h (2 Bft) W 266 ° 2 min 352 W/m² 13,9 °C 16,1 °C 12,9 km/h (3 Bft)
31.05.2024 08:29 21,7 °C 16,1 °C 62 % 87 % 1007,2 hPa 0,0 l/m² 7,0 km/h (2 Bft) W 275 ° 2 min 214 W/m² 13,9 °C 15,8 °C 12,9 km/h (3 Bft)
31.05.2024 08:30 21,7 °C 16,1 °C 62 % 86 % 1007,2 hPa 0,0 l/m² 8,5 km/h (2 Bft) W 265 ° 1 min 214 W/m² 13,8 °C 15,0 °C 14,5 km/h (3 Bft)
31.05.2024 08:32 21,7 °C 16,1 °C 62 % 86 % 1007,2 hPa 0,0 l/m² 8,0 km/h (2 Bft) W-SW 250 ° 2 min 455 W/m² 13,8 °C 15,3 °C 14,5 km/h (3 Bft)
31.05.2024 08:33 21,7 °C 16,2 °C 62 % 87 % 1007,2 hPa 0,0 l/m² 7,2 km/h (2 Bft) W 270 ° 1 min 455 W/m² 14,0 °C 15,8 °C 11,3 km/h (2 Bft)
31.05.2024 08:35 21,7 °C 16,3 °C 62 % 87 % 1007,2 hPa 0,0 l/m² 5,9 km/h (2 Bft) W 272 ° 2 min 417 W/m² 14,1 °C 16,3 °C 12,9 km/h (3 Bft)
31.05.2024 08:37 21,7 °C 16,4 °C 62 % 86 % 1007,2 hPa 0,0 l/m² 5,0 km/h (1 Bft) W 264 ° 2 min 468 W/m² 14,1 °C 16,4 °C 9,7 km/h (2 Bft)
31.05.2024 08:39 21,7 °C 16,6 °C 62 % 87 % 1007,3 hPa 0,0 l/m² 7,1 km/h (2 Bft) W-SW 244 ° 2 min 404 W/m² 14,4 °C 16,2 °C 12,9 km/h (3 Bft)
31.05.2024 08:40 21,7 °C 16,6 °C 62 % 87 % 1007,3 hPa 0,0 l/m² 9,8 km/h (2 Bft) W 260 ° 1 min 279 W/m² 14,4 °C 15,0 °C 14,5 km/h (3 Bft)
31.05.2024 08:42 21,7 °C 16,6 °C 62 % 85 % 1007,3 hPa 0,0 l/m² 10,8 km/h (2 Bft) W 279 ° 2 min 461 W/m² 14,1 °C 14,6 °C 17,7 km/h (3 Bft)
31.05.2024 08:43 21,7 °C 16,6 °C 62 % 85 % 1007,3 hPa 0,0 l/m² 10,5 km/h (2 Bft) W-SW 251 ° 1 min 461 W/m² 14,1 °C 14,7 °C 17,7 km/h (3 Bft)
31.05.2024 08:45 21,7 °C 16,5 °C 62 % 85 % 1007,4 hPa 0,0 l/m² 8,1 km/h (2 Bft) W-SW 255 ° 2 min 309 W/m² 14,0 °C 15,6 °C 16,1 km/h (3 Bft)
31.05.2024 08:47 21,7 °C 16,5 °C 62 % 85 % 1007,4 hPa 0,0 l/m² 9,0 km/h (2 Bft) W 261 ° 2 min 279 W/m² 14,0 °C 15,2 °C 17,7 km/h (3 Bft)
31.05.2024 08:49 21,7 °C 16,4 °C 62 % 85 % 1007,3 hPa 0,0 l/m² 9,2 km/h (2 Bft) W 272 ° 2 min 290 W/m² 13,9 °C 15,0 °C 17,7 km/h (3 Bft)
31.05.2024 08:50 21,7 °C 16,4 °C 62 % 84 % 1007,5 hPa 0,0 l/m² 6,7 km/h (2 Bft) W 275 ° 1 min 390 W/m² 13,7 °C 16,3 °C 11,3 km/h (2 Bft)
31.05.2024 08:52 21,7 °C 16,7 °C 62 % 85 % 1007,4 hPa 0,0 l/m² 7,3 km/h (2 Bft) W-SW 246 ° 2 min 517 W/m² 14,2 °C 16,2 °C 12,9 km/h (3 Bft)
31.05.2024 08:53 21,7 °C 16,7 °C 62 % 84 % 1007,4 hPa 0,0 l/m² 10,3 km/h (2 Bft) SW 225 ° 1 min 380 W/m² 14,0 °C 14,9 °C 14,5 km/h (3 Bft)
31.05.2024 08:55 21,7 °C 16,8 °C 62 % 85 % 1007,4 hPa 0,0 l/m² 8,3 km/h (2 Bft) W-SW 246 ° 2 min 422 W/m² 14,3 °C 15,8 °C 14,5 km/h (3 Bft)
31.05.2024 08:57 21,7 °C 16,8 °C 62 % 84 % 1007,5 hPa 0,0 l/m² 7,1 km/h (2 Bft) W-SW 242 ° 2 min 501 W/m² 14,1 °C 16,4 °C 11,3 km/h (2 Bft)
31.05.2024 08:59 21,7 °C 16,9 °C 62 % 85 % 1007,3 hPa 0,0 l/m² 7,2 km/h (2 Bft) W-SW 248 ° 2 min 538 W/m² 14,4 °C 16,5 °C 11,3 km/h (2 Bft)
31.05.2024 09:00 21,7 °C 17,0 °C 62 % 85 % 1007,4 hPa 0,0 l/m² 9,2 km/h (2 Bft) W-SW 246 ° 1 min 573 W/m² 14,5 °C 15,7 °C 12,9 km/h (3 Bft)
31.05.2024 09:02 21,7 °C 17,2 °C 62 % 86 % 1007,3 hPa 0,0 l/m² 5,8 km/h (2 Bft) W-SW 238 ° 2 min 701 W/m² 14,8 °C 17,2 °C 11,3 km/h (2 Bft)
31.05.2024 09:03 21,7 °C 17,3 °C 61 % 84 % 1007,3 hPa 0,0 l/m² 8,3 km/h (2 Bft) SW 229 ° 1 min 701 W/m² 14,6 °C 16,4 °C 11,3 km/h (2 Bft)
31.05.2024 09:05 21,7 °C 17,4 °C 61 % 84 % 1007,3 hPa 0,0 l/m² 9,0 km/h (2 Bft) W-SW 248 ° 2 min 729 W/m² 14,7 °C 16,2 °C 14,5 km/h (3 Bft)
31.05.2024 09:07 21,8 °C 17,3 °C 61 % 82 % 1007,3 hPa 0,0 l/m² 8,5 km/h (2 Bft) W 259 ° 2 min 729 W/m² 14,2 °C 16,3 °C 14,5 km/h (3 Bft)
31.05.2024 09:09 21,7 °C 17,3 °C 61 % 82 % 1007,2 hPa 0,0 l/m² 9,7 km/h (2 Bft) W-SW 257 ° 2 min 729 W/m² 14,2 °C 15,8 °C 16,1 km/h (3 Bft)
31.05.2024 09:10 21,8 °C 17,4 °C 61 % 83 % 1007,2 hPa 0,0 l/m² 7,4 km/h (2 Bft) W 265 ° 1 min 420 W/m² 14,5 °C 16,9 °C 12,9 km/h (3 Bft)
31.05.2024 09:12 21,7 °C 17,4 °C 61 % 82 % 1007,2 hPa 0,0 l/m² 7,4 km/h (2 Bft) W 270 ° 2 min 339 W/m² 14,3 °C 16,9 °C 14,5 km/h (3 Bft)
31.05.2024 09:13 21,7 °C 17,3 °C 61 % 81 % 1007,3 hPa 0,0 l/m² 9,4 km/h (2 Bft) W 265 ° 1 min 332 W/m² 14,0 °C 15,9 °C 11,3 km/h (2 Bft)
31.05.2024 09:15 21,8 °C 17,3 °C 61 % 82 % 1007,3 hPa 0,0 l/m² 6,9 km/h (2 Bft) W-SW 248 ° 2 min 276 W/m² 14,2 °C 17,1 °C 12,9 km/h (3 Bft)
31.05.2024 09:17 21,8 °C 17,2 °C 61 % 82 % 1007,1 hPa 0,0 l/m² 11,7 km/h (2 Bft) SW 227 ° 2 min 306 W/m² 14,1 °C 14,9 °C 24,1 km/h (4 Bft)
31.05.2024 09:19 21,7 °C 17,1 °C 61 % 83 % 1007,2 hPa 0,0 l/m² 11,8 km/h (2 Bft) W-SW 257 ° 2 min 232 W/m² 14,2 °C 14,8 °C 20,9 km/h (4 Bft)
31.05.2024 09:20 21,8 °C 16,9 °C 61 % 83 % 1007,2 hPa 0,0 l/m² 6,9 km/h (2 Bft) SW 215 ° 1 min 218 W/m² 14,0 °C 16,7 °C 14,5 km/h (3 Bft)
31.05.2024 09:22 21,7 °C 17,0 °C 61 % 84 % 1007,1 hPa 0,0 l/m² 8,8 km/h (2 Bft) W-SW 248 ° 2 min 232 W/m² 14,3 °C 15,8 °C 12,9 km/h (3 Bft)
31.05.2024 09:23 21,8 °C 16,9 °C 61 % 83 % 1007,1 hPa 0,0 l/m² 11,8 km/h (2 Bft) W-SW 254 ° 1 min 232 W/m² 14,0 °C 14,5 °C 16,1 km/h (3 Bft)
31.05.2024 09:25 21,7 °C 17,1 °C 61 % 84 % 1007,2 hPa 0,0 l/m² 5,9 km/h (2 Bft) W-SW 244 ° 2 min 260 W/m² 14,4 °C 17,1 °C 14,5 km/h (3 Bft)
31.05.2024 09:27 21,7 °C 17,0 °C 61 % 83 % 1007,1 hPa 0,0 l/m² 9,1 km/h (2 Bft) W-SW 244 ° 2 min 211 W/m² 14,1 °C 15,7 °C 16,1 km/h (3 Bft)
31.05.2024 09:29 21,8 °C 16,9 °C 61 % 83 % 1007,2 hPa 0,0 l/m² 8,4 km/h (2 Bft) W-SW 244 ° 2 min 399 W/m² 14,0 °C 15,9 °C 14,5 km/h (3 Bft)
31.05.2024 09:30 21,8 °C 17,0 °C 61 % 84 % 1007,2 hPa 0,0 l/m² 12,3 km/h (2 Bft) W-SW 254 ° 1 min 392 W/m² 14,3 °C 14,5 °C 16,1 km/h (3 Bft)
31.05.2024 09:32 21,8 °C 17,0 °C 61 % 83 % 1007,2 hPa 0,0 l/m² 8,0 km/h (2 Bft) W 275 ° 2 min 267 W/m² 14,1 °C 16,2 °C 12,9 km/h (3 Bft)
31.05.2024 09:33 21,8 °C 17,1 °C 61 % 83 % 1007,2 hPa 0,0 l/m² 6,2 km/h (2 Bft) W 259 ° 1 min 332 W/m² 14,2 °C 17,1 °C 11,3 km/h (2 Bft)
31.05.2024 09:35 21,7 °C 17,2 °C 61 % 83 % 1007,3 hPa 0,0 l/m² 7,1 km/h (2 Bft) W-NW 283 ° 2 min 239 W/m² 14,3 °C 16,9 °C 12,9 km/h (3 Bft)
31.05.2024 09:37 21,7 °C 17,1 °C 61 % 82 % 1007,3 hPa 0,0 l/m² 5,6 km/h (2 Bft) W-NW 286 ° 2 min 309 W/m² 14,0 °C 17,1 °C 11,3 km/h (2 Bft)
31.05.2024 09:39 21,7 °C 17,3 °C 61 % 83 % 1007,3 hPa 0,0 l/m² 7,5 km/h (2 Bft) W-SW 255 ° 2 min 705 W/m² 14,4 °C 16,8 °C 12,9 km/h (3 Bft)
31.05.2024 09:41 21,8 °C 17,3 °C 61 % 82 % 1007,3 hPa 0,0 l/m² 10,3 km/h (2 Bft) W-SW 251 ° 2 min 318 W/m² 14,2 °C 15,5 °C 20,9 km/h (4 Bft)
31.05.2024 09:42 21,8 °C 17,3 °C 61 % 81 % 1007,3 hPa 0,0 l/m² 8,0 km/h (2 Bft) W-SW 257 ° 1 min 352 W/m² 14,0 °C 16,5 °C 12,9 km/h (3 Bft)
31.05.2024 09:44 21,7 °C 17,4 °C 61 % 81 % 1007,3 hPa 0,0 l/m² 7,7 km/h (2 Bft) SW 227 ° 2 min 345 W/m² 14,1 °C 16,8 °C 12,9 km/h (3 Bft)
31.05.2024 09:46 21,7 °C 17,5 °C 61 % 82 % 1007,3 hPa 0,0 l/m² 7,3 km/h (2 Bft) W 273 ° 2 min 345 W/m² 14,4 °C 17,1 °C 14,5 km/h (3 Bft)
31.05.2024 09:47 21,7 °C 17,6 °C 61 % 81 % 1007,3 hPa 0,0 l/m² 10,4 km/h (2 Bft) W-NW 284 ° 1 min 269 W/m² 14,3 °C 15,8 °C 16,1 km/h (3 Bft)
31.05.2024 09:49 21,7 °C 17,4 °C 61 % 81 % 1007,4 hPa 0,0 l/m² 12,0 km/h (2 Bft) W 266 ° 2 min 225 W/m² 14,1 °C 15,0 °C 19,3 km/h (3 Bft)
31.05.2024 09:50 21,7 °C 17,3 °C 61 % 80 % 1007,4 hPa 0,0 l/m² 13,5 km/h (3 Bft) W 270 ° 1 min 229 W/m² 13,8 °C 14,4 °C 19,3 km/h (3 Bft)
31.05.2024 09:52 21,7 °C 17,1 °C 61 % 80 % 1007,4 hPa 0,0 l/m² 10,4 km/h (2 Bft) NW 308 ° 2 min 271 W/m² 13,6 °C 15,3 °C 17,7 km/h (3 Bft)
31.05.2024 09:53 21,7 °C 17,1 °C 61 % 80 % 1007,4 hPa 0,0 l/m² 6,4 km/h (2 Bft) SW 225 ° 1 min 299 W/m² 13,6 °C 17,1 °C 11,3 km/h (2 Bft)
31.05.2024 09:55 21,7 °C 16,9 °C 61 % 80 % 1007,5 hPa 0,0 l/m² 7,2 km/h (2 Bft) W-NW 290 ° 2 min 374 W/m² 13,4 °C 16,5 °C 14,5 km/h (3 Bft)
31.05.2024 09:57 21,7 °C 17,0 °C 61 % 80 % 1007,6 hPa 0,0 l/m² 7,1 km/h (2 Bft) W 273 ° 2 min 353 W/m² 13,5 °C 16,6 °C 12,9 km/h (3 Bft)
31.05.2024 09:59 21,7 °C 17,2 °C 61 % 81 % 1007,6 hPa 0,0 l/m² 5,1 km/h (1 Bft) W 281 ° 2 min 399 W/m² 13,9 °C 17,2 °C 11,3 km/h (2 Bft)
31.05.2024 10:00 21,7 °C 17,3 °C 61 % 81 % 1007,6 hPa 0,0 l/m² 7,3 km/h (2 Bft) W-SW 243 ° 1 min 374 W/m² 14,0 °C 16,9 °C 17,7 km/h (3 Bft)
31.05.2024 10:02 21,7 °C 17,3 °C 61 % 80 % 1007,6 hPa 0,0 l/m² 10,3 km/h (2 Bft) NW 319 ° 2 min 410 W/m² 13,8 °C 15,5 °C 17,7 km/h (3 Bft)
31.05.2024 10:03 21,7 °C 17,3 °C 61 % 82 % 1007,6 hPa 0,0 l/m² 8,4 km/h (2 Bft) W-NW 297 ° 1 min 438 W/m² 14,2 °C 16,3 °C 16,1 km/h (3 Bft)
31.05.2024 10:05 21,7 °C 17,4 °C 61 % 80 % 1007,6 hPa 0,0 l/m² 5,0 km/h (1 Bft) W 260 ° 2 min 482 W/m² 13,9 °C 17,4 °C 9,7 km/h (2 Bft)
31.05.2024 10:07 21,7 °C 17,4 °C 61 % 80 % 1007,6 hPa 0,0 l/m² 8,8 km/h (2 Bft) W 276 ° 2 min 497 W/m² 13,9 °C 16,3 °C 16,1 km/h (3 Bft)
31.05.2024 10:09 21,7 °C 17,5 °C 61 % 79 % 1007,6 hPa 0,0 l/m² 8,8 km/h (2 Bft) NW 304 ° 2 min 571 W/m² 13,8 °C 16,4 °C 17,7 km/h (3 Bft)
31.05.2024 10:10 21,7 °C 17,6 °C 61 % 80 % 1007,6 hPa 0,0 l/m² 6,1 km/h (2 Bft) W 260 ° 1 min 373 W/m² 14,1 °C 17,6 °C 9,7 km/h (2 Bft)
31.05.2024 10:12 21,7 °C 17,6 °C 61 % 80 % 1007,6 hPa 0,0 l/m² 3,5 km/h (1 Bft) W 267 ° 2 min 396 W/m² 14,1 °C 17,6 °C 9,7 km/h (2 Bft)
31.05.2024 10:13 21,7 °C 17,6 °C 61 % 80 % 1007,6 hPa 0,0 l/m² 10,5 km/h (2 Bft) W 260 ° 1 min 431 W/m² 14,1 °C 15,8 °C 17,7 km/h (3 Bft)
31.05.2024 10:15 21,7 °C 17,5 °C 61 % 79 % 1007,5 hPa 0,0 l/m² 11,4 km/h (2 Bft) W-NW 301 ° 2 min 487 W/m² 13,8 °C 15,4 °C 19,3 km/h (3 Bft)
31.05.2024 10:17 21,8 °C 17,6 °C 61 % 80 % 1007,6 hPa 0,0 l/m² 4,4 km/h (1 Bft) W 276 ° 2 min 445 W/m² 14,1 °C 17,6 °C 9,7 km/h (2 Bft)
31.05.2024 10:19 21,7 °C 17,7 °C 61 % 80 % 1007,6 hPa 0,0 l/m² 6,9 km/h (2 Bft) W-SW 246 ° 2 min 461 W/m² 14,2 °C 17,5 °C 17,7 km/h (3 Bft)
31.05.2024 10:20 21,8 °C 17,7 °C 61 % 79 % 1007,6 hPa 0,0 l/m² 8,2 km/h (2 Bft) NW 317 ° 1 min 457 W/m² 14,0 °C 16,8 °C 12,9 km/h (3 Bft)
31.05.2024 10:22 21,7 °C 17,8 °C 61 % 81 % 1007,7 hPa 0,0 l/m² 3,8 km/h (1 Bft) W 271 ° 2 min 434 W/m² 14,5 °C 17,8 °C 8,0 km/h (2 Bft)
31.05.2024 10:23 21,7 °C 17,9 °C 61 % 80 % 1007,7 hPa 0,0 l/m² 4,3 km/h (1 Bft) W-NW 288 ° 1 min 425 W/m² 14,4 °C 17,9 °C 12,9 km/h (3 Bft)
31.05.2024 10:25 21,7 °C 17,8 °C 61 % 80 % 1007,6 hPa 0,0 l/m² 5,6 km/h (2 Bft) W-SW 250 ° 2 min 439 W/m² 14,3 °C 17,8 °C 12,9 km/h (3 Bft)
31.05.2024 10:27 21,8 °C 17,8 °C 61 % 80 % 1007,6 hPa 0,0 l/m² 7,2 km/h (2 Bft) W-NW 282 ° 2 min 439 W/m² 14,3 °C 17,4 °C 17,7 km/h (3 Bft)
31.05.2024 10:29 21,7 °C 17,8 °C 61 % 78 % 1007,7 hPa 0,0 l/m² 9,5 km/h (2 Bft) NW 308 ° 2 min 441 W/m² 13,9 °C 16,4 °C 16,1 km/h (3 Bft)
31.05.2024 10:30 21,7 °C 17,7 °C 61 % 78 % 1007,7 hPa 0,0 l/m² 13,2 km/h (3 Bft) W-NW 303 ° 1 min 381 W/m² 13,8 °C 15,0 °C 19,3 km/h (3 Bft)
31.05.2024 10:32 21,8 °C 17,7 °C 61 % 80 % 1007,6 hPa 0,0 l/m² 7,6 km/h (2 Bft) W-NW 287 ° 2 min 367 W/m² 14,2 °C 17,1 °C 14,5 km/h (3 Bft)
31.05.2024 10:33 21,7 °C 17,7 °C 61 % 80 % 1007,6 hPa 0,0 l/m² 8,2 km/h (2 Bft) W 281 ° 1 min 406 W/m² 14,2 °C 16,8 °C 16,1 km/h (3 Bft)
31.05.2024 10:35 21,8 °C 17,8 °C 61 % 80 % 1007,7 hPa 0,0 l/m² 8,2 km/h (2 Bft) W-NW 288 ° 2 min 659 W/m² 14,3 °C 17,0 °C 19,3 km/h (3 Bft)
31.05.2024 10:37 21,7 °C 17,9 °C 61 % 80 % 1007,7 hPa 0,0 l/m² 11,4 km/h (2 Bft) W 271 ° 2 min 438 W/m² 14,4 °C 15,8 °C 20,9 km/h (4 Bft)
31.05.2024 10:39 21,8 °C 17,8 °C 61 % 79 % 1007,7 hPa 0,0 l/m² 13,2 km/h (3 Bft) W 265 ° 2 min 408 W/m² 14,1 °C 15,1 °C 20,9 km/h (4 Bft)
31.05.2024 10:40 21,7 °C 17,8 °C 61 % 79 % 1007,8 hPa 0,0 l/m² 8,8 km/h (2 Bft) W-SW 244 ° 1 min 450 W/m² 14,1 °C 16,7 °C 14,5 km/h (3 Bft)
31.05.2024 10:42 21,7 °C 17,7 °C 61 % 80 % 1007,7 hPa 0,0 l/m² 12,2 km/h (2 Bft) W-NW 300 ° 2 min 545 W/m² 14,2 °C 15,3 °C 17,7 km/h (3 Bft)
31.05.2024 10:43 21,8 °C 17,8 °C 61 % 80 % 1007,8 hPa 0,0 l/m² 6,4 km/h (2 Bft) W-NW 285 ° 1 min 446 W/m² 14,3 °C 17,8 °C 12,9 km/h (3 Bft)
31.05.2024 10:45 21,8 °C 17,8 °C 61 % 80 % 1007,8 hPa 0,0 l/m² 11,0 km/h (2 Bft) W 264 ° 2 min 432 W/m² 14,3 °C 15,8 °C 19,3 km/h (3 Bft)
31.05.2024 10:47 21,8 °C 17,8 °C 61 % 80 % 1007,8 hPa 0,0 l/m² 9,3 km/h (2 Bft) W-SW 247 ° 2 min 413 W/m² 14,3 °C 16,5 °C 16,1 km/h (3 Bft)
31.05.2024 10:49 21,7 °C 17,7 °C 61 % 79 % 1007,8 hPa 0,0 l/m² 15,4 km/h (3 Bft) W 273 ° 2 min 362 W/m² 14,0 °C 14,4 °C 22,5 km/h (4 Bft)
31.05.2024 10:51 21,7 °C 17,5 °C 61 % 79 % 1007,8 hPa 0,0 l/m² 13,1 km/h (3 Bft) W-NW 293 ° 2 min 350 W/m² 13,8 °C 14,8 °C 22,5 km/h (4 Bft)
31.05.2024 10:52 21,8 °C 17,4 °C 61 % 79 % 1007,9 hPa 0,0 l/m² 5,5 km/h (2 Bft) NW 308 ° 1 min 357 W/m² 13,7 °C 17,4 °C 16,1 km/h (3 Bft)
31.05.2024 10:53 21,7 °C 17,4 °C 61 % 79 % 1007,9 hPa 0,0 l/m² 4,4 km/h (1 Bft) W 259 ° 1 min 367 W/m² 13,7 °C 17,4 °C 9,7 km/h (2 Bft)
31.05.2024 10:55 21,7 °C 17,5 °C 61 % 80 % 1007,9 hPa 0,0 l/m² 6,0 km/h (2 Bft) NW 320 ° 2 min 378 W/m² 14,0 °C 17,5 °C 16,1 km/h (3 Bft)
31.05.2024 10:57 21,7 °C 17,6 °C 61 % 80 % 1007,9 hPa 0,0 l/m² 9,0 km/h (2 Bft) W-NW 285 ° 2 min 357 W/m² 14,1 °C 16,4 °C 17,7 km/h (3 Bft)
31.05.2024 10:59 21,7 °C 17,6 °C 61 % 80 % 1007,9 hPa 0,0 l/m² 7,9 km/h (2 Bft) W-NW 294 ° 2 min 297 W/m² 14,1 °C 16,9 °C 16,1 km/h (3 Bft)
31.05.2024 11:00 21,7 °C 17,5 °C 61 % 80 % 1008,0 hPa 0,0 l/m² 7,9 km/h (2 Bft) W-NW 288 ° 1 min 294 W/m² 14,0 °C 16,8 °C 12,9 km/h (3 Bft)
31.05.2024 11:02 21,7 °C 17,5 °C 61 % 79 % 1007,9 hPa 0,0 l/m² 7,1 km/h (2 Bft) W-NW 296 ° 2 min 295 W/m² 13,8 °C 17,2 °C 12,9 km/h (3 Bft)
31.05.2024 11:03 21,7 °C 17,4 °C 61 % 79 % 1007,9 hPa 0,0 l/m² 6,4 km/h (2 Bft) NW 305 ° 1 min 304 W/m² 13,7 °C 17,4 °C 16,1 km/h (3 Bft)
31.05.2024 11:05 21,8 °C 17,4 °C 61 % 80 % 1007,9 hPa 0,0 l/m² 5,8 km/h (2 Bft) NW 315 ° 2 min 327 W/m² 13,9 °C 17,4 °C 11,3 km/h (2 Bft)
31.05.2024 11:07 21,7 °C 17,6 °C 61 % 80 % 1007,8 hPa 0,0 l/m² 7,8 km/h (2 Bft) NW 306 ° 2 min 334 W/m² 14,1 °C 16,9 °C 19,3 km/h (3 Bft)
31.05.2024 11:09 21,7 °C 17,6 °C 61 % 79 % 1007,9 hPa 0,0 l/m² 8,3 km/h (2 Bft) N-NW 338 ° 2 min 320 W/m² 13,9 °C 16,7 °C 16,1 km/h (3 Bft)
31.05.2024 11:11 21,7 °C 17,5 °C 61 % 79 % 1007,8 hPa 0,0 l/m² 11,3 km/h (2 Bft) W 269 ° 2 min 325 W/m² 13,8 °C 15,4 °C 20,9 km/h (4 Bft)
31.05.2024 11:12 21,7 °C 17,4 °C 61 % 79 % 1007,9 hPa 0,0 l/m² 13,4 km/h (3 Bft) W-NW 294 ° 1 min 322 W/m² 13,7 °C 14,6 °C 19,3 km/h (3 Bft)
31.05.2024 11:13 21,7 °C 17,4 °C 61 % 79 % 1007,9 hPa 0,0 l/m² 9,7 km/h (2 Bft) W-NW 290 ° 1 min 327 W/m² 13,7 °C 15,9 °C 16,1 km/h (3 Bft)
31.05.2024 11:15 21,7 °C 17,4 °C 61 % 79 % 1007,9 hPa 0,0 l/m² 7,2 km/h (2 Bft) W 263 ° 2 min 362 W/m² 13,7 °C 17,0 °C 14,5 km/h (3 Bft)
31.05.2024 11:17 21,7 °C 17,4 °C 61 % 80 % 1007,8 hPa 0,0 l/m² 10,5 km/h (2 Bft) W-SW 251 ° 2 min 443 W/m² 13,9 °C 15,6 °C 17,7 km/h (3 Bft)
31.05.2024 11:19 21,7 °C 17,6 °C 61 % 79 % 1007,9 hPa 0,0 l/m² 7,7 km/h (2 Bft) W 281 ° 2 min 461 W/m² 13,9 °C 17,0 °C 16,1 km/h (3 Bft)
31.05.2024 11:20 21,7 °C 17,6 °C 61 % 79 % 1007,9 hPa 0,0 l/m² 10,7 km/h (2 Bft) W 278 ° 1 min 480 W/m² 13,9 °C 15,7 °C 14,5 km/h (3 Bft)
31.05.2024 11:22 21,7 °C 17,8 °C 61 % 80 % 1008,0 hPa 0,0 l/m² 5,8 km/h (2 Bft) SW 234 ° 2 min 666 W/m² 14,3 °C 17,8 °C 14,5 km/h (3 Bft)
31.05.2024 11:23 21,7 °C 17,8 °C 61 % 79 % 1008,0 hPa 0,0 l/m² 3,5 km/h (1 Bft) W-SW 254 ° 1 min 584 W/m² 14,1 °C 17,8 °C 6,4 km/h (2 Bft)
31.05.2024 11:25 21,7 °C 18,1 °C 61 % 79 % 1008,0 hPa 0,0 l/m² 6,9 km/h (2 Bft) W-NW 302 ° 2 min 715 W/m² 14,4 °C 17,9 °C 14,5 km/h (3 Bft)
31.05.2024 11:27 21,7 °C 18,3 °C 61 % 78 % 1007,9 hPa 0,0 l/m² 6,2 km/h (2 Bft) W 260 ° 2 min 712 W/m² 14,4 °C 18,3 °C 12,9 km/h (3 Bft)
31.05.2024 11:29 21,7 °C 18,4 °C 61 % 77 % 1008,0 hPa 0,0 l/m² 5,5 km/h (2 Bft) NW 315 ° 2 min 594 W/m² 14,3 °C 18,4 °C 16,1 km/h (3 Bft)
31.05.2024 11:30 21,7 °C 18,4 °C 61 % 76 % 1008,0 hPa 0,0 l/m² 9,8 km/h (2 Bft) W-SW 256 ° 1 min 594 W/m² 14,1 °C 16,9 °C 16,1 km/h (3 Bft)
31.05.2024 11:32 21,7 °C 18,5 °C 61 % 76 % 1008,2 hPa 0,0 l/m² 10,3 km/h (2 Bft) W 278 ° 2 min 610 W/m² 14,2 °C 16,9 °C 17,7 km/h (3 Bft)
31.05.2024 11:33 21,7 °C 18,6 °C 61 % 77 % 1008,2 hPa 0,0 l/m² 5,6 km/h (2 Bft) W-SW 242 ° 1 min 631 W/m² 14,5 °C 18,6 °C 12,9 km/h (3 Bft)
31.05.2024 11:35 21,8 °C 18,7 °C 61 % 75 % 1008,1 hPa 0,0 l/m² 9,9 km/h (2 Bft) W 278 ° 2 min 737 W/m² 14,2 °C 17,2 °C 16,1 km/h (3 Bft)
31.05.2024 11:37 21,7 °C 18,6 °C 61 % 76 % 1008,2 hPa 0,0 l/m² 8,0 km/h (2 Bft) W-NW 294 ° 2 min 450 W/m² 14,3 °C 17,9 °C 14,5 km/h (3 Bft)
31.05.2024 11:39 21,8 °C 18,6 °C 61 % 76 % 1008,1 hPa 0,0 l/m² 5,0 km/h (1 Bft) W-NW 283 ° 2 min 443 W/m² 14,3 °C 18,6 °C 12,9 km/h (3 Bft)
31.05.2024 11:41 21,8 °C 18,7 °C 61 % 75 % 1008,1 hPa 0,0 l/m² 4,5 km/h (1 Bft) W-NW 282 ° 2 min 686 W/m² 14,2 °C 18,7 °C 12,9 km/h (3 Bft)
31.05.2024 11:42 21,8 °C 18,8 °C 61 % 77 % 1008,1 hPa 0,0 l/m² 4,3 km/h (1 Bft) W-NW 285 ° 1 min 432 W/m² 14,7 °C 18,8 °C 11,3 km/h (2 Bft)
31.05.2024 11:43 21,8 °C 18,8 °C 61 % 78 % 1008,1 hPa 0,0 l/m² 6,0 km/h (2 Bft) W-NW 293 ° 1 min 432 W/m² 14,9 °C 18,8 °C 12,9 km/h (3 Bft)
31.05.2024 11:45 21,8 °C 18,9 °C 61 % 75 % 1008,2 hPa 0,0 l/m² 6,3 km/h (2 Bft) NW 311 ° 2 min 619 W/m² 14,4 °C 18,9 °C 14,5 km/h (3 Bft)
31.05.2024 11:47 21,8 °C 18,8 °C 61 % 75 % 1008,3 hPa 0,0 l/m² 6,1 km/h (2 Bft) NW 309 ° 2 min 155 W/m² 14,3 °C 18,8 °C 11,3 km/h (2 Bft)
31.05.2024 11:49 21,8 °C 18,6 °C 61 % 74 % 1008,3 hPa 0,0 l/m² 8,3 km/h (2 Bft) W 265 ° 2 min 97 W/m² 13,9 °C 17,8 °C 16,1 km/h (3 Bft)
31.05.2024 11:51 21,8 °C 18,1 °C 61 % 75 % 1008,3 hPa 0,0 l/m² 8,0 km/h (2 Bft) NW 324 ° 2 min 76 W/m² 13,6 °C 17,4 °C 17,7 km/h (3 Bft)
31.05.2024 11:52 21,7 °C 17,9 °C 61 % 75 % 1008,3 hPa 0,0 l/m² 5,2 km/h (1 Bft) W 277 ° 1 min 69 W/m² 13,4 °C 17,9 °C 11,3 km/h (2 Bft)
31.05.2024 11:53 21,7 °C 17,8 °C 61 % 76 % 1008,3 hPa 0,0 l/m² 4,9 km/h (1 Bft) NW 316 ° 1 min 69 W/m² 13,5 °C 17,8 °C 9,7 km/h (2 Bft)
31.05.2024 11:55 21,8 °C 17,5 °C 61 % 77 % 1008,3 hPa 0,0 l/m² 7,3 km/h (2 Bft) NW 306 ° 2 min 70 W/m² 13,4 °C 17,1 °C 16,1 km/h (3 Bft)
31.05.2024 11:57 21,8 °C 17,3 °C 61 % 78 % 1008,3 hPa 0,0 l/m² 4,0 km/h (1 Bft) NW 321 ° 2 min 74 W/m² 13,4 °C 17,3 °C 12,9 km/h (3 Bft)
31.05.2024 11:59 21,7 °C 17,2 °C 61 % 80 % 1008,4 hPa 0,0 l/m² 4,0 km/h (1 Bft) NW 323 ° 2 min 79 W/m² 13,7 °C 17,2 °C 11,3 km/h (2 Bft)
31.05.2024 12:01 21,7 °C 17,1 °C 61 % 81 % 1008,4 hPa 0,0 l/m² 2,9 km/h (1 Bft) NW 321 ° 2 min 91 W/m² 13,8 °C 17,1 °C 9,7 km/h (2 Bft)
31.05.2024 12:02 21,7 °C 17,1 °C 61 % 81 % 1008,5 hPa 0,0 l/m² 1,6 km/h (1 Bft) NW 321 ° 1 min 114 W/m² 13,8 °C 17,1 °C 4,8 km/h (1 Bft)
31.05.2024 12:03 21,7 °C 17,1 °C 61 % 81 % 1008,5 hPa 0,0 l/m² 2,4 km/h (1 Bft) W-SW 248 ° 1 min 127 W/m² 13,8 °C 17,1 °C 4,8 km/h (1 Bft)
31.05.2024 12:05 21,7 °C 16,9 °C 61 % 81 % 1008,4 hPa 0,0 l/m² 3,9 km/h (1 Bft) W 279 ° 2 min 146 W/m² 13,6 °C 16,9 °C 9,7 km/h (2 Bft)
31.05.2024 12:07 21,7 °C 16,9 °C 61 % 81 % 1008,4 hPa 0,0 l/m² 4,6 km/h (1 Bft) W 280 ° 2 min 160 W/m² 13,6 °C 16,9 °C 8,0 km/h (2 Bft)
31.05.2024 12:09 21,7 °C 16,9 °C 61 % 81 % 1008,5 hPa 0,0 l/m² 2,9 km/h (1 Bft) W-SW 247 ° 2 min 181 W/m² 13,6 °C 16,9 °C 9,7 km/h (2 Bft)
31.05.2024 12:11 21,7 °C 17,0 °C 61 % 82 % 1008,5 hPa 0,0 l/m² 2,9 km/h (1 Bft) NW 319 ° 2 min 199 W/m² 13,9 °C 17,0 °C 8,0 km/h (2 Bft)
31.05.2024 12:12 21,7 °C 17,1 °C 61 % 82 % 1008,5 hPa 0,0 l/m² 3,3 km/h (1 Bft) W 281 ° 1 min 209 W/m² 14,0 °C 17,1 °C 6,4 km/h (2 Bft)
31.05.2024 12:13 21,7 °C 17,1 °C 61 % 82 % 1008,5 hPa 0,0 l/m² 3,1 km/h (1 Bft) NW 323 ° 1 min 221 W/m² 14,0 °C 17,1 °C 6,4 km/h (2 Bft)
31.05.2024 12:15 21,7 °C 17,2 °C 61 % 81 % 1008,6 hPa 0,0 l/m² 3,9 km/h (1 Bft) NW 321 ° 2 min 250 W/m² 13,9 °C 17,2 °C 6,4 km/h (2 Bft)
31.05.2024 12:17 21,7 °C 17,3 °C 61 % 82 % 1008,6 hPa 0,0 l/m² 4,4 km/h (1 Bft) W 276 ° 2 min 260 W/m² 14,2 °C 17,3 °C 9,7 km/h (2 Bft)
31.05.2024 12:19 21,7 °C 17,4 °C 61 % 81 % 1008,6 hPa 0,0 l/m² 3,0 km/h (1 Bft) NW 309 ° 2 min 274 W/m² 14,1 °C 17,4 °C 6,4 km/h (2 Bft)
31.05.2024 12:21 21,7 °C 17,5 °C 61 % 80 % 1008,6 hPa 0,0 l/m² 7,1 km/h (2 Bft) NW 324 ° 2 min 311 W/m² 14,0 °C 17,2 °C 12,9 km/h (3 Bft)
31.05.2024 12:22 21,7 °C 17,5 °C 61 % 80 % 1008,6 hPa 0,0 l/m² 5,3 km/h (1 Bft) W-NW 295 ° 1 min 325 W/m² 14,0 °C 17,5 °C 12,9 km/h (3 Bft)
31.05.2024 12:23 21,7 °C 17,6 °C 61 % 80 % 1008,6 hPa 0,0 l/m² 1,4 km/h (1 Bft) N-NW 331 ° 1 min 336 W/m² 14,1 °C 17,6 °C 3,2 km/h (1 Bft)
31.05.2024 12:25 21,7 °C 17,8 °C 61 % 81 % 1008,6 hPa 0,0 l/m² 5,4 km/h (2 Bft) NW 318 ° 2 min 364 W/m² 14,5 °C 17,8 °C 8,0 km/h (2 Bft)
31.05.2024 12:27 21,7 °C 17,8 °C 61 % 80 % 1008,5 hPa 0,0 l/m² 4,5 km/h (1 Bft) NW 317 ° 2 min 436 W/m² 14,3 °C 17,8 °C 9,7 km/h (2 Bft)
31.05.2024 12:29 21,7 °C 18,1 °C 61 % 81 % 1008,6 hPa 0,0 l/m² 2,6 km/h (1 Bft) NW 326 ° 2 min 404 W/m² 14,8 °C 18,1 °C 6,4 km/h (2 Bft)
31.05.2024 12:31 21,7 °C 18,2 °C 61 % 79 % 1008,6 hPa 0,0 l/m² 6,8 km/h (2 Bft) NW 309 ° 2 min 381 W/m² 14,5 °C 18,0 °C 12,9 km/h (3 Bft)
31.05.2024 12:32 21,7 °C 18,2 °C 61 % 79 % 1008,6 hPa 0,0 l/m² 4,1 km/h (1 Bft) W-NW 292 ° 1 min 367 W/m² 14,5 °C 18,2 °C 8,0 km/h (2 Bft)
31.05.2024 12:33 21,7 °C 18,3 °C 61 % 79 % 1008,6 hPa 0,0 l/m² 6,9 km/h (2 Bft) N-NW 338 ° 1 min 362 W/m² 14,6 °C 18,1 °C 12,9 km/h (3 Bft)
31.05.2024 12:35 21,7 °C 18,2 °C 61 % 77 % 1008,6 hPa 0,0 l/m² 8,2 km/h (2 Bft) N-NW 340 ° 2 min 366 W/m² 14,1 °C 17,4 °C 16,1 km/h (3 Bft)
31.05.2024 12:37 21,7 °C 18,2 °C 61 % 79 % 1008,6 hPa 0,0 l/m² 9,1 km/h (2 Bft) NW 308 ° 2 min 380 W/m² 14,5 °C 17,0 °C 16,1 km/h (3 Bft)
31.05.2024 12:39 21,7 °C 18,2 °C 61 % 77 % 1008,7 hPa 0,0 l/m² 7,0 km/h (2 Bft) W-NW 291 ° 2 min 394 W/m² 14,1 °C 17,9 °C 12,9 km/h (3 Bft)
31.05.2024 12:41 21,7 °C 18,3 °C 61 % 78 % 1008,7 hPa 0,0 l/m² 2,9 km/h (1 Bft) W 267 ° 2 min 394 W/m² 14,4 °C 18,3 °C 6,4 km/h (2 Bft)
31.05.2024 12:42 21,7 °C 18,6 °C 61 % 80 % 1008,7 hPa 0,0 l/m² 1,7 km/h (1 Bft) W 271 ° 1 min 390 W/m² 15,1 °C 18,6 °C 3,2 km/h (1 Bft)
31.05.2024 12:43 21,7 °C 18,6 °C 61 % 79 % 1008,6 hPa 0,0 l/m² 3,9 km/h (1 Bft) W 265 ° 1 min 385 W/m² 14,9 °C 18,6 °C 9,7 km/h (2 Bft)
31.05.2024 12:45 21,7 °C 18,6 °C 61 % 77 % 1008,6 hPa 0,0 l/m² 7,1 km/h (2 Bft) W-NW 294 ° 2 min 369 W/m² 14,5 °C 18,3 °C 11,3 km/h (2 Bft)
31.05.2024 12:47 21,7 °C 18,6 °C 61 % 77 % 1008,6 hPa 0,0 l/m² 6,4 km/h (2 Bft) NW 315 ° 2 min 357 W/m² 14,5 °C 18,6 °C 12,9 km/h (3 Bft)
31.05.2024 12:48 21,7 °C 18,6 °C 61 % 77 % 1008,6 hPa 0,0 l/m² 4,9 km/h (1 Bft) NW 321 ° 1 min 350 W/m² 14,5 °C 18,6 °C 8,0 km/h (2 Bft)
31.05.2024 12:50 21,7 °C 18,5 °C 61 % 76 % 1008,6 hPa 0,0 l/m² 8,0 km/h (2 Bft) NW 311 ° 2 min 339 W/m² 14,2 °C 17,8 °C 14,5 km/h (3 Bft)
31.05.2024 12:51 21,7 °C 18,5 °C 61 % 77 % 1008,7 hPa 0,0 l/m² 5,4 km/h (2 Bft) N-NW 337 ° 1 min 341 W/m² 14,4 °C 18,5 °C 11,3 km/h (2 Bft)
31.05.2024 12:53 21,7 °C 18,6 °C 61 % 79 % 1008,6 hPa 0,0 l/m² 6,0 km/h (2 Bft) N 360 ° 2 min 346 W/m² 14,9 °C 18,6 °C 12,9 km/h (3 Bft)
31.05.2024 12:54 21,7 °C 18,5 °C 61 % 76 % 1008,6 hPa 0,0 l/m² 6,3 km/h (2 Bft) N 350 ° 1 min 348 W/m² 14,2 °C 18,5 °C 9,7 km/h (2 Bft)
31.05.2024 12:56 21,7 °C 18,4 °C 61 % 76 % 1008,6 hPa 0,0 l/m² 7,6 km/h (2 Bft) NW 325 ° 2 min 348 W/m² 14,1 °C 17,8 °C 11,3 km/h (2 Bft)
31.05.2024 12:58 21,7 °C 18,4 °C 61 % 76 % 1008,7 hPa 0,0 l/m² 6,6 km/h (2 Bft) N-NW 337 ° 2 min 357 W/m² 14,1 °C 18,3 °C 11,3 km/h (2 Bft)
31.05.2024 13:00 21,7 °C 18,4 °C 61 % 77 % 1008,6 hPa 0,0 l/m² 5,8 km/h (2 Bft) NW 306 ° 2 min 376 W/m² 14,3 °C 18,4 °C 9,7 km/h (2 Bft)
31.05.2024 13:01 21,7 °C 18,4 °C 61 % 77 % 1008,6 hPa 0,0 l/m² 7,5 km/h (2 Bft) NW 315 ° 1 min 403 W/m² 14,3 °C 17,9 °C 9,7 km/h (2 Bft)
31.05.2024 13:03 21,7 °C 18,6 °C 61 % 77 % 1008,6 hPa 0,0 l/m² 6,5 km/h (2 Bft) NW 321 ° 2 min 424 W/m² 14,5 °C 18,6 °C 12,9 km/h (3 Bft)
31.05.2024 13:04 21,7 °C 18,6 °C 61 % 76 % 1008,6 hPa 0,0 l/m² 2,9 km/h (1 Bft) W-NW 294 ° 1 min 427 W/m² 14,3 °C 18,6 °C 6,4 km/h (2 Bft)
31.05.2024 13:06 21,7 °C 18,8 °C 61 % 77 % 1008,6 hPa 0,0 l/m² 5,3 km/h (1 Bft) W-NW 292 ° 2 min 425 W/m² 14,7 °C 18,8 °C 8,0 km/h (2 Bft)
31.05.2024 13:08 21,7 °C 18,8 °C 61 % 75 % 1008,6 hPa 0,0 l/m² 5,6 km/h (2 Bft) NW 315 ° 2 min 422 W/m² 14,3 °C 18,8 °C 12,9 km/h (3 Bft)
31.05.2024 13:09 21,7 °C 18,9 °C 61 % 77 % 1008,6 hPa 0,0 l/m² 0,5 km/h (0 Bft) NW 306 ° 1 min 422 W/m² 14,8 °C 18,9 °C 3,2 km/h (1 Bft)
31.05.2024 13:10 21,7 °C 19,0 °C 61 % 79 % 1008,6 hPa 0,0 l/m² 3,4 km/h (1 Bft) NW 317 ° 1 min 425 W/m² 15,3 °C 19,0 °C 6,4 km/h (2 Bft)
31.05.2024 13:12 21,7 °C 18,9 °C 61 % 75 % 1008,5 hPa 0,0 l/m² 4,2 km/h (1 Bft) W-NW 302 ° 2 min 432 W/m² 14,4 °C 18,9 °C 9,7 km/h (2 Bft)
31.05.2024 13:13 21,7 °C 18,9 °C 61 % 75 % 1008,5 hPa 0,0 l/m² 5,9 km/h (2 Bft) W-NW 302 ° 1 min 436 W/m² 14,4 °C 18,9 °C 8,0 km/h (2 Bft)
31.05.2024 13:15 21,7 °C 18,9 °C 61 % 75 % 1008,6 hPa 0,0 l/m² 2,6 km/h (1 Bft) W 267 ° 2 min 443 W/m² 14,4 °C 18,9 °C 9,7 km/h (2 Bft)
31.05.2024 13:17 21,7 °C 18,9 °C 61 % 75 % 1008,6 hPa 0,0 l/m² 2,0 km/h (1 Bft) W 263 ° 2 min 445 W/m² 14,4 °C 18,9 °C 6,4 km/h (2 Bft)
31.05.2024 13:19 21,7 °C 19,0 °C 61 % 75 % 1008,6 hPa 0,0 l/m² 6,1 km/h (2 Bft) W-NW 285 ° 2 min 425 W/m² 14,5 °C 19,0 °C 11,3 km/h (2 Bft)
31.05.2024 13:20 21,7 °C 19,0 °C 61 % 75 % 1008,5 hPa 0,0 l/m² 3,3 km/h (1 Bft) NW 319 ° 1 min 422 W/m² 14,5 °C 19,0 °C 6,4 km/h (2 Bft)
31.05.2024 13:22 21,7 °C 19,0 °C 61 % 75 % 1008,5 hPa 0,0 l/m² 3,9 km/h (1 Bft) W-NW 297 ° 2 min 411 W/m² 14,5 °C 19,0 °C 6,4 km/h (2 Bft)
31.05.2024 13:23 21,7 °C 19,1 °C 61 % 76 % 1008,5 hPa 0,0 l/m² 5,7 km/h (2 Bft) NW 306 ° 1 min 399 W/m² 14,8 °C 19,1 °C 9,7 km/h (2 Bft)
31.05.2024 13:25 21,7 °C 19,1 °C 61 % 75 % 1008,5 hPa 0,0 l/m² 7,3 km/h (2 Bft) W 277 ° 2 min 346 W/m² 14,6 °C 18,7 °C 14,5 km/h (3 Bft)
31.05.2024 13:27 21,7 °C 19,0 °C 61 % 74 % 1008,6 hPa 0,0 l/m² 5,0 km/h (1 Bft) N-NW 337 ° 2 min 292 W/m² 14,3 °C 19,0 °C 8,0 km/h (2 Bft)
31.05.2024 13:29 21,7 °C 18,9 °C 61 % 74 % 1008,5 hPa 0,0 l/m² 8,4 km/h (2 Bft) N-NW 344 ° 2 min 258 W/m² 14,2 °C 18,0 °C 12,9 km/h (3 Bft)
31.05.2024 13:30 21,7 °C 18,8 °C 61 % 74 % 1008,6 hPa 0,0 l/m² 5,6 km/h (2 Bft) NW 316 ° 1 min 237 W/m² 14,1 °C 18,8 °C 8,0 km/h (2 Bft)
31.05.2024 13:31 21,7 °C 18,8 °C 61 % 74 % 1008,5 hPa 0,0 l/m² 4,6 km/h (1 Bft) NW 326 ° 1 min 227 W/m² 14,1 °C 18,8 °C 6,4 km/h (2 Bft)
31.05.2024 13:33 21,7 °C 18,8 °C 61 % 76 % 1008,5 hPa 0,0 l/m² 4,4 km/h (1 Bft) N-NW 342 ° 2 min 214 W/m² 14,5 °C 18,8 °C 8,0 km/h (2 Bft)
31.05.2024 13:34 21,7 °C 18,8 °C 61 % 75 % 1008,6 hPa 0,0 l/m² 5,1 km/h (1 Bft) N-NW 340 ° 1 min 214 W/m² 14,3 °C 18,8 °C 12,9 km/h (3 Bft)
31.05.2024 13:36 21,7 °C 18,7 °C 61 % 76 % 1008,6 hPa 0,0 l/m² 8,6 km/h (2 Bft) N-NW 340 ° 2 min 221 W/m² 14,4 °C 17,7 °C 12,9 km/h (3 Bft)
31.05.2024 13:38 21,7 °C 18,7 °C 61 % 77 % 1008,6 hPa 0,0 l/m² 6,3 km/h (2 Bft) N 355 ° 2 min 271 W/m² 14,6 °C 18,7 °C 9,7 km/h (2 Bft)
31.05.2024 13:40 21,7 °C 18,7 °C 61 % 78 % 1008,6 hPa 0,0 l/m² 3,9 km/h (1 Bft) N-NO 24 ° 2 min 316 W/m² 14,8 °C 18,7 °C 12,9 km/h (3 Bft)
31.05.2024 13:41 21,7 °C 18,7 °C 61 % 78 % 1008,7 hPa 0,0 l/m² 7,1 km/h (2 Bft) N 5 ° 1 min 341 W/m² 14,8 °C 18,4 °C 8,0 km/h (2 Bft)
31.05.2024 13:42 21,7 °C 18,7 °C 61 % 77 % 1008,7 hPa 0,0 l/m² 9,8 km/h (2 Bft) NO 34 ° 1 min 367 W/m² 14,6 °C 17,3 °C 12,9 km/h (3 Bft)
31.05.2024 13:44 21,7 °C 18,7 °C 61 % 78 % 1008,6 hPa 0,0 l/m² 4,6 km/h (1 Bft) NO 49 ° 2 min 394 W/m² 14,8 °C 18,7 °C 8,0 km/h (2 Bft)
31.05.2024 13:46 21,7 °C 18,7 °C 61 % 77 % 1008,7 hPa 0,0 l/m² 6,9 km/h (2 Bft) N-NW 348 ° 2 min 338 W/m² 14,6 °C 18,5 °C 14,5 km/h (3 Bft)
31.05.2024 13:48 21,7 °C 18,7 °C 61 % 77 % 1008,7 hPa 0,0 l/m² 8,2 km/h (2 Bft) N-NW 338 ° 2 min 257 W/m² 14,6 °C 17,9 °C 16,1 km/h (3 Bft)
31.05.2024 13:50 21,7 °C 18,6 °C 61 % 76 % 1008,7 hPa 0,0 l/m² 9,6 km/h (2 Bft) N 355 ° 2 min 167 W/m² 14,3 °C 17,2 °C 16,1 km/h (3 Bft)
31.05.2024 13:51 21,7 °C 18,6 °C 61 % 78 % 1008,6 hPa 0,0 l/m² 5,2 km/h (1 Bft) N-NO 32 ° 1 min 149 W/m² 14,7 °C 18,6 °C 8,0 km/h (2 Bft)
31.05.2024 13:52 21,7 °C 18,6 °C 61 % 77 % 1008,6 hPa 0,0 l/m² 5,1 km/h (1 Bft) NO 56 ° 1 min 137 W/m² 14,5 °C 18,6 °C 6,4 km/h (2 Bft)
31.05.2024 13:54 21,7 °C 18,4 °C 61 % 76 % 1008,7 hPa 0,0 l/m² 6,7 km/h (2 Bft) N 355 ° 2 min 116 W/m² 14,1 °C 18,3 °C 11,3 km/h (2 Bft)
31.05.2024 13:55 21,7 °C 18,3 °C 61 % 77 % 1008,7 hPa 0,0 l/m² 6,4 km/h (2 Bft) NO 43 ° 1 min 113 W/m² 14,2 °C 18,3 °C 9,7 km/h (2 Bft)
31.05.2024 13:56 21,7 °C 18,2 °C 61 % 77 % 1008,7 hPa 0,0 l/m² 9,7 km/h (2 Bft) N 355 ° 1 min 109 W/m² 14,1 °C 16,8 °C 14,5 km/h (3 Bft)
31.05.2024 13:58 21,7 °C 18,1 °C 61 % 77 % 1008,8 hPa 0,0 l/m² 9,6 km/h (2 Bft) NO 38 ° 2 min 104 W/m² 14,0 °C 16,7 °C 12,9 km/h (3 Bft)
31.05.2024 14:00 21,7 °C 17,9 °C 61 % 78 % 1008,8 hPa 0,0 l/m² 4,5 km/h (1 Bft) N 5 ° 2 min 95 W/m² 14,0 °C 17,9 °C 8,0 km/h (2 Bft)
31.05.2024 14:01 21,7 °C 17,9 °C 61 % 78 % 1008,8 hPa 0,0 l/m² 6,1 km/h (2 Bft) N-NO 13 ° 1 min 91 W/m² 14,0 °C 17,9 °C 12,9 km/h (3 Bft)
31.05.2024 14:02 21,7 °C 17,9 °C 61 % 78 % 1008,8 hPa 0,0 l/m² 3,8 km/h (1 Bft) N-NW 336 ° 1 min 90 W/m² 14,0 °C 17,9 °C 6,4 km/h (2 Bft)
31.05.2024 14:03 21,7 °C 17,8 °C 61 % 78 % 1008,8 hPa 0,0 l/m² 7,4 km/h (2 Bft) N-NW 344 ° 1 min 88 W/m² 13,9 °C 17,3 °C 12,9 km/h (3 Bft)
31.05.2024 14:04 21,7 °C 17,8 °C 61 % 78 % 1008,8 hPa 0,0 l/m² 6,9 km/h (2 Bft) N-NW 332 ° 1 min 88 W/m² 13,9 °C 17,6 °C 9,7 km/h (2 Bft)
31.05.2024 14:06 21,7 °C 17,8 °C 61 % 78 % 1008,8 hPa 0,0 l/m² 7,0 km/h (2 Bft) N-NW 338 ° 2 min 88 W/m² 13,9 °C 17,5 °C 12,9 km/h (3 Bft)
31.05.2024 14:08 21,7 °C 17,7 °C 61 % 79 % 1008,8 hPa 0,0 l/m² 7,0 km/h (2 Bft) N-NW 338 ° 2 min 90 W/m² 14,0 °C 17,4 °C 12,9 km/h (3 Bft)
31.05.2024 14:10 21,7 °C 17,7 °C 61 % 79 % 1008,9 hPa 0,0 l/m² 4,5 km/h (1 Bft) NW 325 ° 2 min 93 W/m² 14,0 °C 17,7 °C 6,4 km/h (2 Bft)
31.05.2024 14:11 21,7 °C 17,7 °C 61 % 79 % 1008,8 hPa 0,0 l/m² 6,0 km/h (2 Bft) N 5 ° 1 min 95 W/m² 14,0 °C 17,7 °C 9,7 km/h (2 Bft)
31.05.2024 14:12 21,7 °C 17,6 °C 61 % 79 % 1008,8 hPa 0,0 l/m² 6,1 km/h (2 Bft) N-NW 344 ° 1 min 95 W/m² 13,9 °C 17,6 °C 8,0 km/h (2 Bft)
31.05.2024 14:14 21,7 °C 17,6 °C 61 % 79 % 1008,8 hPa 0,0 l/m² 7,0 km/h (2 Bft) N-NW 333 ° 2 min 97 W/m² 13,9 °C 17,3 °C 12,9 km/h (3 Bft)
31.05.2024 14:16 21,7 °C 17,6 °C 61 % 80 % 1008,8 hPa 0,0 l/m² 5,2 km/h (1 Bft) N-NW 337 ° 2 min 98 W/m² 14,1 °C 17,6 °C 9,7 km/h (2 Bft)
31.05.2024 14:18 21,7 °C 17,6 °C 61 % 80 % 1008,8 hPa 0,0 l/m² 5,5 km/h (2 Bft) N 5 ° 2 min 100 W/m² 14,1 °C 17,6 °C 8,0 km/h (2 Bft)
31.05.2024 14:20 21,7 °C 17,6 °C 61 % 80 % 1008,8 hPa 0,0 l/m² 7,2 km/h (2 Bft) N 355 ° 2 min 100 W/m² 14,1 °C 17,2 °C 12,9 km/h (3 Bft)
31.05.2024 14:21 21,7 °C 17,6 °C 61 % 80 % 1008,8 hPa 0,0 l/m² 7,2 km/h (2 Bft) N-NW 341 ° 1 min 100 W/m² 14,1 °C 17,2 °C 12,9 km/h (3 Bft)
31.05.2024 14:22 21,7 °C 17,6 °C 61 % 80 % 1008,8 hPa 0,0 l/m² 8,0 km/h (2 Bft) N-NW 344 ° 1 min 100 W/m² 14,1 °C 16,8 °C 9,7 km/h (2 Bft)
31.05.2024 14:24 21,7 °C 17,5 °C 61 % 80 % 1008,9 hPa 0,0 l/m² 7,1 km/h (2 Bft) N 350 ° 2 min 100 W/m² 14,0 °C 17,2 °C 9,7 km/h (2 Bft)
31.05.2024 14:26 21,7 °C 17,6 °C 61 % 81 % 1008,9 hPa 0,0 l/m² 4,3 km/h (1 Bft) W-NW 298 ° 2 min 102 W/m² 14,3 °C 17,6 °C 9,7 km/h (2 Bft)
31.05.2024 14:28 21,7 °C 17,5 °C 61 % 80 % 1008,8 hPa 0,0 l/m² 3,0 km/h (1 Bft) N-NW 330 ° 2 min 105 W/m² 14,0 °C 17,5 °C 6,4 km/h (2 Bft)
31.05.2024 14:30 21,7 °C 17,6 °C 61 % 80 % 1008,9 hPa 0,0 l/m² 6,4 km/h (2 Bft) NW 319 ° 2 min 109 W/m² 14,1 °C 17,6 °C 12,9 km/h (3 Bft)
31.05.2024 14:31 21,7 °C 17,6 °C 61 % 80 % 1008,9 hPa 0,0 l/m² 5,5 km/h (2 Bft) N-NW 329 ° 1 min 113 W/m² 14,1 °C 17,6 °C 8,0 km/h (2 Bft)
31.05.2024 14:32 21,7 °C 17,5 °C 61 % 81 % 1008,9 hPa 0,0 l/m² 5,8 km/h (2 Bft) NW 305 ° 1 min 114 W/m² 14,2 °C 17,5 °C 11,3 km/h (2 Bft)
31.05.2024 14:33 21,7 °C 17,5 °C 61 % 81 % 1009,0 hPa 0,0 l/m² 5,3 km/h (1 Bft) W-NW 294 ° 1 min 116 W/m² 14,2 °C 17,5 °C 6,4 km/h (2 Bft)
31.05.2024 14:35 21,7 °C 17,5 °C 61 % 81 % 1008,9 hPa 0,0 l/m² 4,2 km/h (1 Bft) N 360 ° 2 min 123 W/m² 14,2 °C 17,5 °C 9,7 km/h (2 Bft)
31.05.2024 14:37 21,7 °C 17,6 °C 61 % 81 % 1008,9 hPa 0,0 l/m² 6,0 km/h (2 Bft) N-NW 333 ° 2 min 128 W/m² 14,3 °C 17,6 °C 9,7 km/h (2 Bft)
31.05.2024 14:39 21,7 °C 17,5 °C 61 % 82 % 1008,9 hPa 0,0 l/m² 5,5 km/h (2 Bft) N-NW 327 ° 2 min 134 W/m² 14,4 °C 17,5 °C 11,3 km/h (2 Bft)
31.05.2024 14:40 21,7 °C 17,6 °C 61 % 82 % 1008,9 hPa 0,0 l/m² 4,5 km/h (1 Bft) W 281 ° 1 min 135 W/m² 14,5 °C 17,6 °C 6,4 km/h (2 Bft)
31.05.2024 14:42 21,7 °C 17,6 °C 61 % 82 % 1008,8 hPa 0,0 l/m² 3,6 km/h (1 Bft) W-NW 286 ° 2 min 142 W/m² 14,5 °C 17,6 °C 6,4 km/h (2 Bft)
31.05.2024 14:43 21,7 °C 17,6 °C 61 % 82 % 1008,8 hPa 0,0 l/m² 4,8 km/h (1 Bft) N-NW 346 ° 1 min 146 W/m² 14,5 °C 17,6 °C 8,0 km/h (2 Bft)
31.05.2024 14:45 21,7 °C 17,6 °C 61 % 81 % 1008,8 hPa 0,0 l/m² 5,9 km/h (2 Bft) NW 315 ° 2 min 155 W/m² 14,3 °C 17,6 °C 8,0 km/h (2 Bft)
31.05.2024 14:47 21,7 °C 17,6 °C 61 % 82 % 1008,8 hPa 0,0 l/m² 4,4 km/h (1 Bft) N-NW 348 ° 2 min 163 W/m² 14,5 °C 17,6 °C 6,4 km/h (2 Bft)
31.05.2024 14:49 21,7 °C 17,7 °C 61 % 82 % 1008,7 hPa 0,0 l/m² 6,0 km/h (2 Bft) W-NW 289 ° 2 min 174 W/m² 14,6 °C 17,7 °C 12,9 km/h (3 Bft)
31.05.2024 14:50 21,7 °C 17,7 °C 61 % 81 % 1008,7 hPa 0,0 l/m² 6,4 km/h (2 Bft) NW 307 ° 1 min 181 W/m² 14,4 °C 17,7 °C 12,9 km/h (3 Bft)
31.05.2024 14:51 21,7 °C 17,7 °C 61 % 82 % 1008,7 hPa 0,0 l/m² 3,2 km/h (1 Bft) NW 308 ° 1 min 188 W/m² 14,6 °C 17,7 °C 6,4 km/h (2 Bft)
31.05.2024 14:52 21,7 °C 17,7 °C 61 % 82 % 1008,7 hPa 0,0 l/m² 5,3 km/h (1 Bft) W-NW 286 ° 1 min 197 W/m² 14,6 °C 17,7 °C 8,0 km/h (2 Bft)
31.05.2024 14:54 21,7 °C 17,7 °C 61 % 81 % 1008,7 hPa 0,0 l/m² 5,0 km/h (1 Bft) W-NW 284 ° 2 min 206 W/m² 14,4 °C 17,7 °C 9,7 km/h (2 Bft)
31.05.2024 14:56 21,7 °C 17,7 °C 61 % 81 % 1008,7 hPa 0,0 l/m² 3,6 km/h (1 Bft) W 264 ° 2 min 202 W/m² 14,4 °C 17,7 °C 11,3 km/h (2 Bft)
31.05.2024 14:58 21,7 °C 17,7 °C 61 % 80 % 1008,6 hPa 0,0 l/m² 6,0 km/h (2 Bft) W 268 ° 2 min 204 W/m² 14,2 °C 17,7 °C 11,3 km/h (2 Bft)
31.05.2024 15:00 21,7 °C 17,8 °C 61 % 79 % 1008,7 hPa 0,0 l/m² 3,7 km/h (1 Bft) W 272 ° 2 min 221 W/m² 14,1 °C 17,8 °C 9,7 km/h (2 Bft)
31.05.2024 15:01 21,7 °C 17,8 °C 61 % 79 % 1008,6 hPa 0,0 l/m² 1,6 km/h (1 Bft) NW 325 ° 1 min 229 W/m² 14,1 °C 17,8 °C 3,2 km/h (1 Bft)
31.05.2024 15:02 21,7 °C 17,8 °C 61 % 80 % 1008,6 hPa 0,0 l/m² 3,0 km/h (1 Bft) W-NW 295 ° 1 min 232 W/m² 14,3 °C 17,8 °C 4,8 km/h (1 Bft)
31.05.2024 15:04 21,7 °C 17,9 °C 61 % 78 % 1008,6 hPa 0,0 l/m² 5,9 km/h (2 Bft) NW 304 ° 2 min 232 W/m² 14,0 °C 17,9 °C 9,7 km/h (2 Bft)
31.05.2024 15:06 21,7 °C 17,9 °C 61 % 79 % 1008,6 hPa 0,0 l/m² 2,4 km/h (1 Bft) NW 304 ° 2 min 232 W/m² 14,2 °C 17,9 °C 6,4 km/h (2 Bft)
31.05.2024 15:08 21,7 °C 18,1 °C 61 % 77 % 1008,6 hPa 0,0 l/m² 6,1 km/h (2 Bft) W 263 ° 2 min 243 W/m² 14,0 °C 18,1 °C 12,9 km/h (3 Bft)
31.05.2024 15:10 21,7 °C 18,1 °C 61 % 76 % 1008,5 hPa 0,0 l/m² 5,8 km/h (2 Bft) W-NW 303 ° 2 min 257 W/m² 13,8 °C 18,1 °C 11,3 km/h (2 Bft)
31.05.2024 15:11 21,7 °C 18,1 °C 61 % 76 % 1008,6 hPa 0,0 l/m² 6,9 km/h (2 Bft) NW 308 ° 1 min 271 W/m² 13,8 °C 17,9 °C 11,3 km/h (2 Bft)
31.05.2024 15:12 21,7 °C 18,1 °C 61 % 76 % 1008,6 hPa 0,0 l/m² 4,8 km/h (1 Bft) NW 311 ° 1 min 274 W/m² 13,8 °C 18,1 °C 11,3 km/h (2 Bft)
31.05.2024 15:14 21,7 °C 18,1 °C 61 % 76 % 1008,4 hPa 0,0 l/m² 4,8 km/h (1 Bft) N-NW 327 ° 2 min 281 W/m² 13,8 °C 18,1 °C 14,5 km/h (3 Bft)
31.05.2024 15:16 21,7 °C 18,1 °C 61 % 76 % 1008,5 hPa 0,0 l/m² 6,5 km/h (2 Bft) W 281 ° 2 min 279 W/m² 13,8 °C 18,1 °C 12,9 km/h (3 Bft)
31.05.2024 15:18 21,7 °C 18,1 °C 61 % 76 % 1008,4 hPa 0,0 l/m² 8,5 km/h (2 Bft) N-NW 336 ° 2 min 276 W/m² 13,8 °C 17,1 °C 17,7 km/h (3 Bft)
31.05.2024 15:20 21,7 °C 18,2 °C 61 % 76 % 1008,4 hPa 0,0 l/m² 6,6 km/h (2 Bft) W-NW 298 ° 2 min 283 W/m² 13,9 °C 18,1 °C 14,5 km/h (3 Bft)
31.05.2024 15:21 21,8 °C 18,2 °C 61 % 75 % 1008,5 hPa 0,0 l/m² 6,8 km/h (2 Bft) W 269 ° 1 min 290 W/m² 13,7 °C 18,0 °C 12,9 km/h (3 Bft)
31.05.2024 15:22 21,8 °C 18,2 °C 61 % 74 % 1008,5 hPa 0,0 l/m² 7,3 km/h (2 Bft) W-NW 286 ° 1 min 308 W/m² 13,5 °C 17,8 °C 14,5 km/h (3 Bft)
31.05.2024 15:24 21,7 °C 18,3 °C 61 % 75 % 1008,4 hPa 0,0 l/m² 4,8 km/h (1 Bft) W-NW 290 ° 2 min 322 W/m² 13,8 °C 18,3 °C 8,0 km/h (2 Bft)
31.05.2024 15:26 21,8 °C 18,4 °C 61 % 75 % 1008,4 hPa 0,0 l/m² 6,1 km/h (2 Bft) W 273 ° 2 min 325 W/m² 13,9 °C 18,4 °C 14,5 km/h (3 Bft)
31.05.2024 15:27 21,8 °C 18,4 °C 61 % 74 % 1008,5 hPa 0,0 l/m² 5,5 km/h (2 Bft) W 261 ° 1 min 322 W/m² 13,7 °C 18,4 °C 12,9 km/h (3 Bft)
31.05.2024 15:28 21,8 °C 18,4 °C 61 % 74 % 1008,5 hPa 0,0 l/m² 4,4 km/h (1 Bft) W 279 ° 1 min 320 W/m² 13,7 °C 18,4 °C 8,0 km/h (2 Bft)
31.05.2024 15:30 21,8 °C 18,4 °C 61 % 75 % 1008,4 hPa 0,0 l/m² 4,5 km/h (1 Bft) W-SW 257 ° 2 min 318 W/m² 13,9 °C 18,4 °C 9,7 km/h (2 Bft)
31.05.2024 15:31 21,8 °C 18,6 °C 61 % 74 % 1008,4 hPa 0,0 l/m² 4,1 km/h (1 Bft) W 271 ° 1 min 316 W/m² 13,9 °C 18,6 °C 6,4 km/h (2 Bft)
31.05.2024 15:32 21,8 °C 18,6 °C 61 % 74 % 1008,4 hPa 0,0 l/m² 4,4 km/h (1 Bft) W 281 ° 1 min 318 W/m² 13,9 °C 18,6 °C 6,4 km/h (2 Bft)
31.05.2024 15:34 21,8 °C 18,6 °C 61 % 74 % 1008,4 hPa 0,0 l/m² 7,9 km/h (2 Bft) W-NW 283 ° 2 min 327 W/m² 13,9 °C 17,9 °C 14,5 km/h (3 Bft)
31.05.2024 15:36 21,8 °C 18,6 °C 61 % 74 % 1008,5 hPa 0,0 l/m² 3,8 km/h (1 Bft) W-NW 289 ° 2 min 323 W/m² 13,9 °C 18,6 °C 12,9 km/h (3 Bft)
31.05.2024 15:38 21,8 °C 18,7 °C 61 % 74 % 1008,5 hPa 0,0 l/m² 3,6 km/h (1 Bft) W-NW 285 ° 2 min 308 W/m² 14,0 °C 18,7 °C 11,3 km/h (2 Bft)
31.05.2024 15:40 21,8 °C 18,8 °C 61 % 74 % 1008,5 hPa 0,0 l/m² 8,1 km/h (2 Bft) W-NW 297 ° 2 min 274 W/m² 14,1 °C 18,0 °C 14,5 km/h (3 Bft)
31.05.2024 15:41 21,8 °C 18,8 °C 61 % 74 % 1008,6 hPa 0,0 l/m² 5,2 km/h (1 Bft) N-NW 336 ° 1 min 271 W/m² 14,1 °C 18,8 °C 8,0 km/h (2 Bft)
31.05.2024 15:42 21,8 °C 18,8 °C 61 % 74 % 1008,6 hPa 0,0 l/m² 8,5 km/h (2 Bft) N-NW 331 ° 1 min 269 W/m² 14,1 °C 17,9 °C 14,5 km/h (3 Bft)
31.05.2024 15:44 21,8 °C 18,8 °C 61 % 73 % 1008,5 hPa 0,0 l/m² 5,7 km/h (2 Bft) W-NW 294 ° 2 min 271 W/m² 13,9 °C 18,8 °C 11,3 km/h (2 Bft)
31.05.2024 15:47 21,8 °C 18,8 °C 61 % 75 % 1008,6 hPa 0,0 l/m² 5,4 km/h (2 Bft) W 273 ° 3 min 285 W/m² 14,3 °C 18,8 °C 11,3 km/h (2 Bft)
31.05.2024 15:49 21,8 °C 18,8 °C 61 % 74 % 1008,7 hPa 0,0 l/m² 3,1 km/h (1 Bft) W-NW 292 ° 2 min 287 W/m² 14,1 °C 18,8 °C 8,0 km/h (2 Bft)
31.05.2024 15:50 21,8 °C 18,8 °C 61 % 74 % 1008,7 hPa 0,0 l/m² 4,4 km/h (1 Bft) W 281 ° 1 min 287 W/m² 14,1 °C 18,8 °C 9,7 km/h (2 Bft)
31.05.2024 15:51 21,8 °C 18,8 °C 61 % 75 % 1008,6 hPa 0,0 l/m² 5,2 km/h (1 Bft) N 355 ° 1 min 285 W/m² 14,3 °C 18,8 °C 9,7 km/h (2 Bft)
31.05.2024 15:52 21,8 °C 18,9 °C 61 % 75 % 1008,6 hPa 0,0 l/m² 4,8 km/h (1 Bft) W 278 ° 1 min 287 W/m² 14,4 °C 18,9 °C 8,0 km/h (2 Bft)
31.05.2024 15:55 21,8 °C 18,8 °C 61 % 73 % 1008,7 hPa 0,0 l/m² 7,6 km/h (2 Bft) W-NW 299 ° 3 min 290 W/m² 13,9 °C 18,3 °C 12,9 km/h (3 Bft)
31.05.2024 15:56 21,8 °C 18,8 °C 61 % 74 % 1008,6 hPa 0,0 l/m² 6,9 km/h (2 Bft) N-NW 336 ° 1 min 288 W/m² 14,1 °C 18,6 °C 9,7 km/h (2 Bft)
31.05.2024 15:57 21,8 °C 18,8 °C 61 % 74 % 1008,6 hPa 0,0 l/m² 6,2 km/h (2 Bft) W-NW 292 ° 1 min 283 W/m² 14,1 °C 18,8 °C 8,0 km/h (2 Bft)
31.05.2024 15:59 21,8 °C 18,8 °C 61 % 74 % 1008,6 hPa 0,0 l/m² 8,3 km/h (2 Bft) W-NW 292 ° 2 min 269 W/m² 14,1 °C 18,0 °C 14,5 km/h (3 Bft)
31.05.2024 16:01 21,8 °C 18,8 °C 61 % 73 % 1008,7 hPa 0,0 l/m² 8,0 km/h (2 Bft) N-NW 346 ° 2 min 258 W/m² 13,9 °C 18,1 °C 16,1 km/h (3 Bft)
31.05.2024 16:02 21,8 °C 18,8 °C 61 % 74 % 1008,7 hPa 0,0 l/m² 4,4 km/h (1 Bft) N-NW 340 ° 1 min 257 W/m² 14,1 °C 18,8 °C 8,0 km/h (2 Bft)
31.05.2024 16:03 21,8 °C 18,8 °C 61 % 75 % 1008,7 hPa 0,0 l/m² 7,0 km/h (2 Bft) NW 317 ° 1 min 258 W/m² 14,3 °C 18,5 °C 12,9 km/h (3 Bft)
31.05.2024 16:05 21,8 °C 18,8 °C 61 % 73 % 1008,7 hPa 0,0 l/m² 8,0 km/h (2 Bft) N-NW 337 ° 2 min 269 W/m² 13,9 °C 18,1 °C 12,9 km/h (3 Bft)
31.05.2024 16:07 21,8 °C 18,8 °C 61 % 74 % 1008,7 hPa 0,0 l/m² 6,7 km/h (2 Bft) W-NW 298 ° 2 min 279 W/m² 14,1 °C 18,7 °C 11,3 km/h (2 Bft)
31.05.2024 16:09 21,9 °C 18,9 °C 62 % 75 % 1008,8 hPa 0,0 l/m² 5,8 km/h (2 Bft) NW 314 ° 2 min 297 W/m² 14,4 °C 18,9 °C 12,9 km/h (3 Bft)
31.05.2024 16:11 21,9 °C 18,9 °C 62 % 74 % 1008,7 hPa 0,0 l/m² 7,9 km/h (2 Bft) NW 310 ° 2 min 311 W/m² 14,2 °C 18,2 °C 12,9 km/h (3 Bft)
31.05.2024 16:12 21,9 °C 18,9 °C 62 % 73 % 1008,7 hPa 0,0 l/m² 7,4 km/h (2 Bft) NW 310 ° 1 min 323 W/m² 13,9 °C 18,5 °C 11,3 km/h (2 Bft)
31.05.2024 16:13 21,8 °C 18,8 °C 61 % 74 % 1008,7 hPa 0,0 l/m² 9,9 km/h (2 Bft) W-NW 296 ° 1 min 341 W/m² 14,1 °C 17,4 °C 12,9 km/h (3 Bft)
31.05.2024 16:15 21,9 °C 18,9 °C 61 % 73 % 1008,6 hPa 0,0 l/m² 4,4 km/h (1 Bft) NW 310 ° 2 min 353 W/m² 13,9 °C 18,9 °C 8,0 km/h (2 Bft)
31.05.2024 16:17 21,9 °C 19,1 °C 61 % 74 % 1008,6 hPa 0,0 l/m² 1,6 km/h (1 Bft) W-NW 285 ° 2 min 381 W/m² 14,4 °C 19,1 °C 4,8 km/h (1 Bft)
31.05.2024 16:19 21,9 °C 19,2 °C 61 % 74 % 1008,7 hPa 0,0 l/m² 2,6 km/h (1 Bft) W 274 ° 2 min 366 W/m² 14,4 °C 19,2 °C 6,4 km/h (2 Bft)
31.05.2024 16:21 21,8 °C 19,3 °C 61 % 74 % 1008,7 hPa 0,0 l/m² 5,3 km/h (1 Bft) W 266 ° 2 min 308 W/m² 14,5 °C 19,3 °C 9,7 km/h (2 Bft)
31.05.2024 16:22 21,8 °C 19,3 °C 61 % 75 % 1008,7 hPa 0,0 l/m² 5,9 km/h (2 Bft) W-SW 254 ° 1 min 311 W/m² 14,8 °C 19,3 °C 11,3 km/h (2 Bft)
31.05.2024 16:23 21,8 °C 19,3 °C 61 % 74 % 1008,7 hPa 0,0 l/m² 2,0 km/h (1 Bft) W 274 ° 1 min 318 W/m² 14,5 °C 19,3 °C 6,4 km/h (2 Bft)
31.05.2024 16:25 21,9 °C 19,3 °C 62 % 75 % 1008,7 hPa 0,0 l/m² 2,3 km/h (1 Bft) W 266 ° 2 min 309 W/m² 14,8 °C 19,3 °C 4,8 km/h (1 Bft)
31.05.2024 16:27 21,8 °C 19,3 °C 61 % 74 % 1008,7 hPa 0,0 l/m² 3,5 km/h (1 Bft) W-NW 290 ° 2 min 313 W/m² 14,5 °C 19,3 °C 8,0 km/h (2 Bft)
31.05.2024 16:29 21,9 °C 19,3 °C 61 % 75 % 1008,7 hPa 0,0 l/m² 4,8 km/h (1 Bft) W 278 ° 2 min 325 W/m² 14,8 °C 19,3 °C 12,9 km/h (3 Bft)
31.05.2024 16:31 21,9 °C 19,4 °C 61 % 75 % 1008,7 hPa 0,0 l/m² 4,2 km/h (1 Bft) N-NW 328 ° 2 min 343 W/m² 14,8 °C 19,4 °C 6,4 km/h (2 Bft)
31.05.2024 16:32 21,9 °C 19,5 °C 61 % 74 % 1008,7 hPa 0,0 l/m² 2,6 km/h (1 Bft) W-NW 299 ° 1 min 353 W/m² 14,7 °C 19,5 °C 6,4 km/h (2 Bft)
31.05.2024 16:33 21,9 °C 19,6 °C 62 % 75 % 1008,7 hPa 0,0 l/m² 1,8 km/h (1 Bft) N-NW 336 ° 1 min 376 W/m² 15,0 °C 19,6 °C 4,8 km/h (1 Bft)
31.05.2024 16:35 21,9 °C 19,6 °C 61 % 74 % 1008,7 hPa 0,0 l/m² 2,8 km/h (1 Bft) W-NW 284 ° 2 min 390 W/m² 14,8 °C 19,6 °C 6,4 km/h (2 Bft)
31.05.2024 16:37 21,9 °C 19,6 °C 61 % 73 % 1008,7 hPa 0,0 l/m² 3,3 km/h (1 Bft) W-NW 292 ° 2 min 366 W/m² 14,6 °C 19,6 °C 8,0 km/h (2 Bft)
31.05.2024 16:39 21,9 °C 19,6 °C 61 % 73 % 1008,7 hPa 0,0 l/m² 5,3 km/h (1 Bft) NW 317 ° 2 min 352 W/m² 14,6 °C 19,6 °C 11,3 km/h (2 Bft)
31.05.2024 16:41 21,9 °C 19,6 °C 61 % 73 % 1008,7 hPa 0,0 l/m² 4,2 km/h (1 Bft) W-SW 258 ° 2 min 332 W/m² 14,6 °C 19,6 °C 12,9 km/h (3 Bft)
31.05.2024 16:42 21,9 °C 19,6 °C 61 % 73 % 1008,7 hPa 0,0 l/m² 5,6 km/h (2 Bft) W-NW 303 ° 1 min 325 W/m² 14,6 °C 19,6 °C 11,3 km/h (2 Bft)
31.05.2024 16:43 21,9 °C 19,6 °C 61 % 73 % 1008,8 hPa 0,0 l/m² 4,8 km/h (1 Bft) W-NW 301 ° 1 min 369 W/m² 14,6 °C 19,6 °C 9,7 km/h (2 Bft)
31.05.2024 16:45 21,9 °C 19,6 °C 61 % 74 % 1008,7 hPa 0,0 l/m² 4,2 km/h (1 Bft) N 350 ° 2 min 295 W/m² 14,8 °C 19,6 °C 8,0 km/h (2 Bft)
31.05.2024 16:47 21,8 °C 19,7 °C 61 % 72 % 1008,7 hPa 0,0 l/m² 5,4 km/h (2 Bft) NW 321 ° 2 min 288 W/m² 14,5 °C 19,7 °C 8,0 km/h (2 Bft)
31.05.2024 16:49 21,8 °C 19,6 °C 61 % 73 % 1008,7 hPa 0,0 l/m² 6,0 km/h (2 Bft) NW 318 ° 2 min 285 W/m² 14,6 °C 19,6 °C 12,9 km/h (3 Bft)
31.05.2024 16:51 21,8 °C 19,5 °C 61 % 72 % 1008,8 hPa 0,0 l/m² 6,3 km/h (2 Bft) N-NW 327 ° 2 min 253 W/m² 14,3 °C 19,5 °C 11,3 km/h (2 Bft)
31.05.2024 16:52 21,8 °C 19,5 °C 61 % 72 % 1008,8 hPa 0,0 l/m² 7,7 km/h (2 Bft) NW 307 ° 1 min 244 W/m² 14,3 °C 18,9 °C 9,7 km/h (2 Bft)
31.05.2024 16:53 21,8 °C 19,4 °C 61 % 72 % 1008,7 hPa 0,0 l/m² 10,2 km/h (2 Bft) N-NW 347 ° 1 min 237 W/m² 14,2 °C 17,9 °C 14,5 km/h (3 Bft)
31.05.2024 16:55 21,8 °C 19,3 °C 61 % 72 % 1008,8 hPa 0,0 l/m² 8,2 km/h (2 Bft) NW 317 ° 2 min 234 W/m² 14,1 °C 18,5 °C 14,5 km/h (3 Bft)
31.05.2024 16:57 21,8 °C 19,3 °C 61 % 74 % 1008,8 hPa 0,0 l/m² 3,9 km/h (1 Bft) N-NW 331 ° 2 min 244 W/m² 14,5 °C 19,3 °C 6,4 km/h (2 Bft)
31.05.2024 16:59 21,8 °C 19,4 °C 61 % 74 % 1008,8 hPa 0,0 l/m² 2,8 km/h (1 Bft) NW 315 ° 2 min 243 W/m² 14,6 °C 19,4 °C 8,0 km/h (2 Bft)
31.05.2024 17:01 21,8 °C 19,4 °C 61 % 74 % 1008,8 hPa 0,0 l/m² 5,4 km/h (2 Bft) W-NW 295 ° 2 min 227 W/m² 14,6 °C 19,4 °C 11,3 km/h (2 Bft)
31.05.2024 17:02 21,8 °C 19,4 °C 61 % 74 % 1008,7 hPa 0,0 l/m² 4,6 km/h (1 Bft) NW 308 ° 1 min 225 W/m² 14,6 °C 19,4 °C 6,4 km/h (2 Bft)
31.05.2024 17:03 21,8 °C 19,4 °C 61 % 74 % 1008,7 hPa 0,0 l/m² 2,5 km/h (1 Bft) NW 307 ° 1 min 221 W/m² 14,6 °C 19,4 °C 6,4 km/h (2 Bft)
31.05.2024 17:05 21,8 °C 19,3 °C 61 % 74 % 1008,7 hPa 0,0 l/m² 2,8 km/h (1 Bft) W-NW 302 ° 2 min 230 W/m² 14,5 °C 19,3 °C 6,4 km/h (2 Bft)
31.05.2024 17:07 21,8 °C 19,5 °C 61 % 75 % 1008,7 hPa 0,0 l/m² 3,5 km/h (1 Bft) NW 314 ° 2 min 251 W/m² 14,9 °C 19,5 °C 8,0 km/h (2 Bft)
31.05.2024 17:09 21,8 °C 19,5 °C 61 % 76 % 1008,7 hPa 0,0 l/m² 0,7 km/h (0 Bft) W-NW 302 ° 2 min 308 W/m² 15,2 °C 19,5 °C 3,2 km/h (1 Bft)
31.05.2024 17:11 21,8 °C 19,6 °C 61 % 75 % 1008,6 hPa 0,0 l/m² 1,1 km/h (1 Bft) W-NW 292 ° 2 min 374 W/m² 15,0 °C 19,6 °C 4,8 km/h (1 Bft)
31.05.2024 17:12 21,8 °C 19,6 °C 61 % 76 % 1008,6 hPa 0,0 l/m² 4,8 km/h (1 Bft) NW 306 ° 1 min 378 W/m² 15,2 °C 19,6 °C 11,3 km/h (2 Bft)
31.05.2024 17:13 21,8 °C 19,6 °C 61 % 75 % 1008,6 hPa 0,0 l/m² 6,0 km/h (2 Bft) W 264 ° 1 min 366 W/m² 15,0 °C 19,6 °C 14,5 km/h (3 Bft)
31.05.2024 17:14 21,8 °C 19,7 °C 61 % 75 % 1008,6 hPa 0,0 l/m² 5,6 km/h (2 Bft) W-NW 293 ° 1 min 364 W/m² 15,1 °C 19,7 °C 8,0 km/h (2 Bft)
31.05.2024 17:15 21,8 °C 19,7 °C 61 % 75 % 1008,6 hPa 0,0 l/m² 2,7 km/h (1 Bft) W-NW 291 ° 1 min 364 W/m² 15,1 °C 19,7 °C 6,4 km/h (2 Bft)
31.05.2024 17:16 21,8 °C 19,7 °C 61 % 75 % 1008,5 hPa 0,0 l/m² 4,3 km/h (1 Bft) NW 304 ° 1 min 343 W/m² 15,1 °C 19,7 °C 9,7 km/h (2 Bft)
31.05.2024 17:17 21,8 °C 19,8 °C 61 % 74 % 1008,5 hPa 0,0 l/m² 7,2 km/h (2 Bft) W 267 ° 1 min 330 W/m² 15,0 °C 19,5 °C 14,5 km/h (3 Bft)
31.05.2024 17:18 21,8 °C 19,8 °C 61 % 73 % 1008,6 hPa 0,0 l/m² 8,5 km/h (2 Bft) W-NW 289 ° 1 min 308 W/m² 14,8 °C 18,9 °C 16,1 km/h (3 Bft)
31.05.2024 17:19 21,8 °C 19,7 °C 61 % 72 % 1008,4 hPa 0,0 l/m² 10,5 km/h (2 Bft) W 266 ° 1 min 306 W/m² 14,5 °C 18,1 °C 14,5 km/h (3 Bft)
31.05.2024 17:21 21,8 °C 19,6 °C 61 % 72 % 1008,5 hPa 0,0 l/m² 8,8 km/h (2 Bft) W-NW 282 ° 2 min 318 W/m² 14,4 °C 18,6 °C 12,9 km/h (3 Bft)
31.05.2024 17:23 21,8 °C 19,5 °C 61 % 73 % 1008,4 hPa 0,0 l/m² 7,6 km/h (2 Bft) W-SW 252 ° 2 min 329 W/m² 14,5 °C 19,0 °C 16,1 km/h (3 Bft)
31.05.2024 17:24 21,8 °C 19,5 °C 61 % 74 % 1008,5 hPa 0,0 l/m² 1,5 km/h (1 Bft) W-NW 294 ° 1 min 322 W/m² 14,7 °C 19,5 °C 8,0 km/h (2 Bft)
31.05.2024 17:25 21,8 °C 19,6 °C 61 % 75 % 1008,5 hPa 0,0 l/m² 8,0 km/h (2 Bft) W 277 ° 1 min 318 W/m² 15,0 °C 18,9 °C 14,5 km/h (3 Bft)
31.05.2024 17:26 21,8 °C 19,6 °C 61 % 74 % 1008,5 hPa 0,0 l/m² 12,7 km/h (3 Bft) W 281 ° 1 min 323 W/m² 14,8 °C 17,4 °C 17,7 km/h (3 Bft)
31.05.2024 17:27 21,8 °C 19,6 °C 61 % 74 % 1008,5 hPa 0,0 l/m² 5,2 km/h (1 Bft) W 271 ° 1 min 308 W/m² 14,8 °C 19,6 °C 11,3 km/h (2 Bft)
31.05.2024 17:28 21,8 °C 19,6 °C 61 % 74 % 1008,6 hPa 0,0 l/m² 5,2 km/h (1 Bft) W-NW 284 ° 1 min 301 W/m² 14,8 °C 19,6 °C 9,7 km/h (2 Bft)
31.05.2024 17:29 21,8 °C 19,6 °C 61 % 74 % 1008,5 hPa 0,0 l/m² 9,0 km/h (2 Bft) W-NW 296 ° 1 min 294 W/m² 14,8 °C 18,6 °C 16,1 km/h (3 Bft)
31.05.2024 17:31 21,8 °C 19,6 °C 61 % 74 % 1008,5 hPa 0,0 l/m² 4,7 km/h (1 Bft) NW 304 ° 2 min 265 W/m² 14,8 °C 19,6 °C 12,9 km/h (3 Bft)
31.05.2024 17:33 21,8 °C 19,5 °C 61 % 74 % 1008,5 hPa 0,0 l/m² 10,4 km/h (2 Bft) W-NW 289 ° 2 min 265 W/m² 14,7 °C 18,0 °C 14,5 km/h (3 Bft)
31.05.2024 17:34 21,8 °C 19,4 °C 61 % 74 % 1008,5 hPa 0,0 l/m² 9,7 km/h (2 Bft) W 267 ° 1 min 251 W/m² 14,6 °C 18,1 °C 16,1 km/h (3 Bft)
31.05.2024 17:35 21,8 °C 19,4 °C 61 % 75 % 1008,5 hPa 0,0 l/m² 8,7 km/h (2 Bft) W 269 ° 1 min 248 W/m² 14,8 °C 18,4 °C 14,5 km/h (3 Bft)
31.05.2024 17:36 21,8 °C 19,3 °C 61 % 75 % 1008,6 hPa 0,0 l/m² 7,8 km/h (2 Bft) W-SW 251 ° 1 min 255 W/m² 14,8 °C 18,7 °C 12,9 km/h (3 Bft)
31.05.2024 17:37 21,8 °C 19,3 °C 61 % 76 % 1008,6 hPa 0,0 l/m² 5,2 km/h (1 Bft) W 263 ° 1 min 265 W/m² 15,0 °C 19,3 °C 11,3 km/h (2 Bft)
31.05.2024 17:38 21,7 °C 19,3 °C 61 % 76 % 1008,5 hPa 0,0 l/m² 9,7 km/h (2 Bft) W-NW 288 ° 1 min 272 W/m² 15,0 °C 18,0 °C 16,1 km/h (3 Bft)
31.05.2024 17:39 21,8 °C 19,3 °C 61 % 75 % 1008,6 hPa 0,0 l/m² 8,0 km/h (2 Bft) W-NW 285 ° 1 min 278 W/m² 14,8 °C 18,6 °C 12,9 km/h (3 Bft)
31.05.2024 17:41 21,7 °C 19,2 °C 61 % 74 % 1008,6 hPa 0,0 l/m² 9,7 km/h (2 Bft) W 273 ° 2 min 271 W/m² 14,4 °C 17,9 °C 17,7 km/h (3 Bft)
31.05.2024 17:43 21,8 °C 19,1 °C 61 % 73 % 1008,6 hPa 0,0 l/m² 11,4 km/h (2 Bft) W 267 ° 2 min 253 W/m² 14,1 °C 17,2 °C 19,3 km/h (3 Bft)
31.05.2024 17:44 21,7 °C 19,1 °C 61 % 74 % 1008,7 hPa 0,0 l/m² 8,0 km/h (2 Bft) W 277 ° 1 min 255 W/m² 14,4 °C 18,4 °C 14,5 km/h (3 Bft)
31.05.2024 17:45 21,8 °C 19,1 °C 61 % 74 % 1008,7 hPa 0,0 l/m² 6,5 km/h (2 Bft) W 279 ° 1 min 267 W/m² 14,4 °C 19,1 °C 12,9 km/h (3 Bft)
31.05.2024 17:46 21,8 °C 19,1 °C 61 % 75 % 1008,7 hPa 0,0 l/m² 5,6 km/h (2 Bft) W-NW 285 ° 1 min 274 W/m² 14,6 °C 19,1 °C 9,7 km/h (2 Bft)
31.05.2024 17:47 21,7 °C 19,1 °C 61 % 75 % 1008,8 hPa 0,0 l/m² 7,8 km/h (2 Bft) NW 319 ° 1 min 278 W/m² 14,6 °C 18,5 °C 14,5 km/h (3 Bft)
31.05.2024 17:48 21,7 °C 19,1 °C 61 % 76 % 1008,6 hPa 0,0 l/m² 4,7 km/h (1 Bft) W-NW 296 ° 1 min 278 W/m² 14,8 °C 19,1 °C 12,9 km/h (3 Bft)
31.05.2024 17:49 21,8 °C 19,1 °C 61 % 76 % 1008,8 hPa 0,0 l/m² 8,6 km/h (2 Bft) W-NW 293 ° 1 min 285 W/m² 14,8 °C 18,2 °C 12,9 km/h (3 Bft)
31.05.2024 17:51 21,7 °C 19,1 °C 61 % 75 % 1008,7 hPa 0,0 l/m² 11,2 km/h (2 Bft) W 267 ° 2 min 255 W/m² 14,6 °C 17,2 °C 19,3 km/h (3 Bft)
31.05.2024 17:53 21,7 °C 19,0 °C 61 % 76 % 1008,8 hPa 0,0 l/m² 8,5 km/h (2 Bft) W-NW 284 ° 2 min 232 W/m² 14,7 °C 18,1 °C 16,1 km/h (3 Bft)
31.05.2024 17:54 21,8 °C 19,0 °C 61 % 75 % 1008,8 hPa 0,0 l/m² 6,5 km/h (2 Bft) W 265 ° 1 min 227 W/m² 14,5 °C 19,0 °C 11,3 km/h (2 Bft)
31.05.2024 17:55 21,8 °C 18,9 °C 61 % 76 % 1008,7 hPa 0,0 l/m² 9,1 km/h (2 Bft) NW 325 ° 1 min 225 W/m² 14,6 °C 17,8 °C 17,7 km/h (3 Bft)
31.05.2024 17:56 21,7 °C 18,9 °C 61 % 76 % 1008,8 hPa 0,0 l/m² 5,1 km/h (1 Bft) W-NW 293 ° 1 min 223 W/m² 14,6 °C 18,9 °C 8,0 km/h (2 Bft)
31.05.2024 17:57 21,7 °C 18,9 °C 61 % 76 % 1008,7 hPa 0,0 l/m² 6,6 km/h (2 Bft) NW 306 ° 1 min 221 W/m² 14,6 °C 18,8 °C 11,3 km/h (2 Bft)
31.05.2024 17:58 21,7 °C 18,9 °C 61 % 76 % 1008,8 hPa 0,0 l/m² 6,2 km/h (2 Bft) NW 318 ° 1 min 220 W/m² 14,6 °C 18,9 °C 16,1 km/h (3 Bft)
31.05.2024 17:59 21,7 °C 18,9 °C 61 % 76 % 1008,7 hPa 0,0 l/m² 4,4 km/h (1 Bft) W 269 ° 1 min 218 W/m² 14,6 °C 18,9 °C 12,9 km/h (3 Bft)
31.05.2024 18:01 21,7 °C 18,9 °C 61 % 75 % 1008,7 hPa 0,0 l/m² 8,1 km/h (2 Bft) W-NW 298 ° 2 min 218 W/m² 14,4 °C 18,2 °C 16,1 km/h (3 Bft)
31.05.2024 18:03 21,8 °C 18,8 °C 62 % 75 % 1008,6 hPa 0,0 l/m² 6,0 km/h (2 Bft) W 276 ° 2 min 214 W/m² 14,3 °C 18,8 °C 14,5 km/h (3 Bft)
31.05.2024 18:04 21,7 °C 18,8 °C 62 % 76 % 1008,6 hPa 0,0 l/m² 5,3 km/h (1 Bft) W-NW 301 ° 1 min 214 W/m² 14,5 °C 18,8 °C 9,7 km/h (2 Bft)
31.05.2024 18:05 21,8 °C 18,8 °C 63 % 76 % 1008,7 hPa 0,0 l/m² 5,7 km/h (2 Bft) NW 321 ° 1 min 213 W/m² 14,5 °C 18,8 °C 12,9 km/h (3 Bft)
31.05.2024 18:06 21,8 °C 18,8 °C 63 % 76 % 1008,7 hPa 0,0 l/m² 5,8 km/h (2 Bft) W 273 ° 1 min 211 W/m² 14,5 °C 18,8 °C 14,5 km/h (3 Bft)
31.05.2024 18:07 21,8 °C 18,8 °C 63 % 76 % 1008,6 hPa 0,0 l/m² 7,4 km/h (2 Bft) W 269 ° 1 min 206 W/m² 14,5 °C 18,4 °C 11,3 km/h (2 Bft)
31.05.2024 18:08 21,8 °C 18,8 °C 63 % 76 % 1008,6 hPa 0,0 l/m² 4,8 km/h (1 Bft) W 277 ° 1 min 200 W/m² 14,5 °C 18,8 °C 9,7 km/h (2 Bft)
31.05.2024 18:09 21,8 °C 18,8 °C 64 % 76 % 1008,6 hPa 0,0 l/m² 5,1 km/h (1 Bft) W 277 ° 1 min 199 W/m² 14,5 °C 18,8 °C 11,3 km/h (2 Bft)
31.05.2024 18:11 21,8 °C 18,8 °C 64 % 77 % 1008,6 hPa 0,0 l/m² 5,7 km/h (2 Bft) W-NW 284 ° 2 min 192 W/m² 14,7 °C 18,8 °C 12,9 km/h (3 Bft)
31.05.2024 18:13 21,8 °C 18,8 °C 64 % 78 % 1008,6 hPa 0,0 l/m² 3,8 km/h (1 Bft) W-NW 284 ° 2 min 188 W/m² 14,9 °C 18,8 °C 9,7 km/h (2 Bft)
31.05.2024 18:14 21,8 °C 18,7 °C 64 % 77 % 1008,6 hPa 0,0 l/m² 6,4 km/h (2 Bft) W-NW 302 ° 1 min 186 W/m² 14,6 °C 18,7 °C 11,3 km/h (2 Bft)
31.05.2024 18:15 21,8 °C 18,7 °C 64 % 77 % 1008,6 hPa 0,0 l/m² 6,5 km/h (2 Bft) W 279 ° 1 min 186 W/m² 14,6 °C 18,7 °C 9,7 km/h (2 Bft)
31.05.2024 18:16 21,8 °C 18,7 °C 64 % 77 % 1008,7 hPa 0,0 l/m² 9,6 km/h (2 Bft) W-NW 302 ° 1 min 185 W/m² 14,6 °C 17,4 °C 14,5 km/h (3 Bft)
31.05.2024 18:17 21,8 °C 18,6 °C 64 % 77 % 1008,6 hPa 0,0 l/m² 8,2 km/h (2 Bft) W-SW 245 ° 1 min 178 W/m² 14,5 °C 17,8 °C 14,5 km/h (3 Bft)
31.05.2024 18:18 21,9 °C 18,6 °C 64 % 77 % 1008,7 hPa 0,0 l/m² 5,7 km/h (2 Bft) W-NW 303 ° 1 min 176 W/m² 14,5 °C 18,6 °C 8,0 km/h (2 Bft)
31.05.2024 18:19 21,8 °C 18,6 °C 64 % 77 % 1008,7 hPa 0,0 l/m² 8,6 km/h (2 Bft) W 280 ° 1 min 186 W/m² 14,5 °C 17,6 °C 14,5 km/h (3 Bft)
31.05.2024 18:21 21,8 °C 18,6 °C 64 % 77 % 1008,7 hPa 0,0 l/m² 4,8 km/h (1 Bft) W-NW 301 ° 2 min 190 W/m² 14,5 °C 18,6 °C 11,3 km/h (2 Bft)
31.05.2024 18:23 21,9 °C 18,6 °C 65 % 78 % 1008,8 hPa 0,0 l/m² 7,0 km/h (2 Bft) W 274 ° 2 min 185 W/m² 14,7 °C 18,3 °C 11,3 km/h (2 Bft)
31.05.2024 18:24 21,9 °C 18,5 °C 65 % 78 % 1008,8 hPa 0,0 l/m² 7,7 km/h (2 Bft) W-SW 241 ° 1 min 178 W/m² 14,6 °C 17,9 °C 12,9 km/h (3 Bft)
31.05.2024 18:25 21,9 °C 18,6 °C 65 % 78 % 1008,8 hPa 0,0 l/m² 3,9 km/h (1 Bft) W 269 ° 1 min 176 W/m² 14,7 °C 18,6 °C 6,4 km/h (2 Bft)
31.05.2024 18:26 21,9 °C 18,6 °C 65 % 79 % 1008,7 hPa 0,0 l/m² 3,6 km/h (1 Bft) W 268 ° 1 min 172 W/m² 14,9 °C 18,6 °C 9,7 km/h (2 Bft)
31.05.2024 18:27 21,9 °C 18,6 °C 65 % 79 % 1008,9 hPa 0,0 l/m² 5,3 km/h (1 Bft) W-NW 287 ° 1 min 171 W/m² 14,9 °C 18,6 °C 9,7 km/h (2 Bft)
31.05.2024 18:28 21,9 °C 18,5 °C 65 % 78 % 1008,8 hPa 0,0 l/m² 7,2 km/h (2 Bft) W-NW 284 ° 1 min 178 W/m² 14,6 °C 18,1 °C 12,9 km/h (3 Bft)
31.05.2024 18:29 21,9 °C 18,5 °C 65 % 78 % 1008,9 hPa 0,0 l/m² 6,6 km/h (2 Bft) W 274 ° 1 min 167 W/m² 14,6 °C 18,4 °C 12,9 km/h (3 Bft)
31.05.2024 18:31 21,9 °C 18,5 °C 65 % 78 % 1008,8 hPa 0,0 l/m² 7,5 km/h (2 Bft) N-NW 335 ° 2 min 190 W/m² 14,6 °C 18,0 °C 11,3 km/h (2 Bft)
31.05.2024 18:33 21,9 °C 18,4 °C 65 % 78 % 1008,9 hPa 0,0 l/m² 7,4 km/h (2 Bft) W-NW 284 ° 2 min 174 W/m² 14,5 °C 17,9 °C 16,1 km/h (3 Bft)
31.05.2024 18:34 21,9 °C 18,4 °C 65 % 78 % 1008,8 hPa 0,0 l/m² 11,3 km/h (2 Bft) NW 304 ° 1 min 174 W/m² 14,5 °C 16,4 °C 16,1 km/h (3 Bft)
31.05.2024 18:35 21,9 °C 18,4 °C 64 % 78 % 1008,9 hPa 0,0 l/m² 7,6 km/h (2 Bft) W 272 ° 1 min 172 W/m² 14,5 °C 17,8 °C 12,9 km/h (3 Bft)
31.05.2024 18:36 21,9 °C 18,4 °C 64 % 78 % 1008,8 hPa 0,0 l/m² 8,3 km/h (2 Bft) W-NW 286 ° 1 min 169 W/m² 14,5 °C 17,5 °C 12,9 km/h (3 Bft)
31.05.2024 18:37 21,9 °C 18,4 °C 64 % 79 % 1008,9 hPa 0,0 l/m² 3,4 km/h (1 Bft) W 277 ° 1 min 167 W/m² 14,7 °C 18,4 °C 11,3 km/h (2 Bft)
31.05.2024 18:38 21,9 °C 18,5 °C 64 % 79 % 1008,9 hPa 0,0 l/m² 3,6 km/h (1 Bft) W 261 ° 1 min 167 W/m² 14,8 °C 18,5 °C 6,4 km/h (2 Bft)
31.05.2024 18:39 21,9 °C 18,5 °C 65 % 79 % 1008,9 hPa 0,0 l/m² 6,2 km/h (2 Bft) W 275 ° 1 min 167 W/m² 14,8 °C 18,5 °C 12,9 km/h (3 Bft)
31.05.2024 18:41 21,9 °C 18,6 °C 66 % 78 % 1008,9 hPa 0,0 l/m² 8,4 km/h (2 Bft) W-NW 287 ° 2 min 165 W/m² 14,7 °C 17,7 °C 17,7 km/h (3 Bft)
31.05.2024 18:43 22,0 °C 18,5 °C 67 % 78 % 1009,0 hPa 0,0 l/m² 7,2 km/h (2 Bft) W-NW 300 ° 2 min 155 W/m² 14,6 °C 18,1 °C 17,7 km/h (3 Bft)
31.05.2024 18:45 22,0 °C 18,4 °C 67 % 78 % 1008,9 hPa 0,0 l/m² 6,8 km/h (2 Bft) W-NW 287 ° 2 min 141 W/m² 14,5 °C 18,2 °C 16,1 km/h (3 Bft)
31.05.2024 18:46 22,0 °C 18,4 °C 68 % 78 % 1009,0 hPa 0,0 l/m² 3,7 km/h (1 Bft) W 262 ° 1 min 137 W/m² 14,5 °C 18,4 °C 8,0 km/h (2 Bft)
31.05.2024 18:47 22,0 °C 18,4 °C 68 % 78 % 1009,0 hPa 0,0 l/m² 4,0 km/h (1 Bft) W 276 ° 1 min 137 W/m² 14,5 °C 18,4 °C 9,7 km/h (2 Bft)
31.05.2024 18:48 22,1 °C 18,4 °C 69 % 78 % 1009,1 hPa 0,0 l/m² 4,3 km/h (1 Bft) W-NW 293 ° 1 min 142 W/m² 14,5 °C 18,4 °C 9,7 km/h (2 Bft)
31.05.2024 18:49 22,1 °C 18,4 °C 69 % 78 % 1009,1 hPa 0,0 l/m² 6,6 km/h (2 Bft) W-NW 298 ° 1 min 144 W/m² 14,5 °C 18,3 °C 16,1 km/h (3 Bft)
31.05.2024 18:51 22,1 °C 18,4 °C 69 % 78 % 1009,0 hPa 0,0 l/m² 5,0 km/h (1 Bft) W-SW 258 ° 2 min 144 W/m² 14,5 °C 18,4 °C 12,9 km/h (3 Bft)
31.05.2024 18:53 22,1 °C 18,4 °C 69 % 78 % 1009,2 hPa 0,0 l/m² 6,9 km/h (2 Bft) W 279 ° 2 min 149 W/m² 14,5 °C 18,2 °C 16,1 km/h (3 Bft)
31.05.2024 18:54 22,1 °C 18,4 °C 69 % 79 % 1009,1 hPa 0,0 l/m² 8,3 km/h (2 Bft) W 271 ° 1 min 151 W/m² 14,7 °C 17,5 °C 17,7 km/h (3 Bft)
31.05.2024 18:55 22,1 °C 18,4 °C 69 % 78 % 1009,1 hPa 0,0 l/m² 5,6 km/h (2 Bft) W 271 ° 1 min 153 W/m² 14,5 °C 18,4 °C 9,7 km/h (2 Bft)
31.05.2024 18:56 22,1 °C 18,4 °C 69 % 78 % 1009,1 hPa 0,0 l/m² 5,4 km/h (2 Bft) W-NW 289 ° 1 min 156 W/m² 14,5 °C 18,4 °C 11,3 km/h (2 Bft)
31.05.2024 18:57 22,1 °C 18,4 °C 69 % 79 % 1009,1 hPa 0,0 l/m² 7,2 km/h (2 Bft) W-NW 288 ° 1 min 158 W/m² 14,7 °C 18,0 °C 12,9 km/h (3 Bft)
31.05.2024 18:58 22,2 °C 18,4 °C 69 % 79 % 1009,1 hPa 0,0 l/m² 3,9 km/h (1 Bft) W-SW 247 ° 1 min 158 W/m² 14,7 °C 18,4 °C 6,4 km/h (2 Bft)
31.05.2024 18:59 22,2 °C 18,4 °C 69 % 79 % 1009,1 hPa 0,0 l/m² 8,9 km/h (2 Bft) NW 325 ° 1 min 149 W/m² 14,7 °C 17,3 °C 14,5 km/h (3 Bft)
31.05.2024 19:01 22,2 °C 18,4 °C 69 % 78 % 1009,0 hPa 0,0 l/m² 4,4 km/h (1 Bft) NW 305 ° 2 min 141 W/m² 14,5 °C 18,4 °C 12,9 km/h (3 Bft)
31.05.2024 19:03 22,2 °C 18,3 °C 69 % 78 % 1009,1 hPa 0,0 l/m² 6,6 km/h (2 Bft) NW 315 ° 2 min 132 W/m² 14,4 °C 18,2 °C 17,7 km/h (3 Bft)
31.05.2024 19:04 22,2 °C 18,3 °C 68 % 78 % 1009,0 hPa 0,0 l/m² 9,1 km/h (2 Bft) W-NW 292 ° 1 min 127 W/m² 14,4 °C 17,1 °C 17,7 km/h (3 Bft)
31.05.2024 19:05 22,2 °C 18,3 °C 68 % 78 % 1009,0 hPa 0,0 l/m² 5,7 km/h (2 Bft) W-NW 295 ° 1 min 120 W/m² 14,4 °C 18,3 °C 12,9 km/h (3 Bft)
31.05.2024 19:07 22,3 °C 18,3 °C 68 % 78 % 1009,1 hPa 0,0 l/m² 4,6 km/h (1 Bft) W-SW 238 ° 2 min 113 W/m² 14,4 °C 18,3 °C 12,9 km/h (3 Bft)
31.05.2024 19:08 22,3 °C 18,2 °C 68 % 79 % 1009,1 hPa 0,0 l/m² 5,1 km/h (1 Bft) W-NW 292 ° 1 min 109 W/m² 14,5 °C 18,2 °C 11,3 km/h (2 Bft)
31.05.2024 19:09 22,3 °C 18,2 °C 68 % 79 % 1008,9 hPa 0,0 l/m² 4,9 km/h (1 Bft) W-NW 303 ° 1 min 107 W/m² 14,5 °C 18,2 °C 8,0 km/h (2 Bft)
31.05.2024 19:11 22,3 °C 18,1 °C 68 % 79 % 1008,9 hPa 0,0 l/m² 4,0 km/h (1 Bft) W-NW 286 ° 2 min 102 W/m² 14,4 °C 18,1 °C 9,7 km/h (2 Bft)
31.05.2024 19:13 22,3 °C 18,1 °C 68 % 80 % 1009,0 hPa 0,0 l/m² 2,5 km/h (1 Bft) W-NW 284 ° 2 min 102 W/m² 14,6 °C 18,1 °C 8,0 km/h (2 Bft)
31.05.2024 19:14 22,3 °C 18,1 °C 68 % 80 % 1009,0 hPa 0,0 l/m² 2,5 km/h (1 Bft) W 278 ° 1 min 102 W/m² 14,6 °C 18,1 °C 6,4 km/h (2 Bft)
31.05.2024 19:15 22,3 °C 18,1 °C 68 % 80 % 1009,0 hPa 0,0 l/m² 4,6 km/h (1 Bft) W 269 ° 1 min 102 W/m² 14,6 °C 18,1 °C 9,7 km/h (2 Bft)
31.05.2024 19:16 22,3 °C 18,0 °C 68 % 80 % 1009,0 hPa 0,0 l/m² 4,3 km/h (1 Bft) W-NW 288 ° 1 min 102 W/m² 14,5 °C 18,0 °C 6,4 km/h (2 Bft)
31.05.2024 19:17 22,3 °C 18,0 °C 67 % 80 % 1009,1 hPa 0,0 l/m² 4,4 km/h (1 Bft) W-NW 284 ° 1 min 104 W/m² 14,5 °C 18,0 °C 9,7 km/h (2 Bft)
31.05.2024 19:18 22,3 °C 18,0 °C 67 % 80 % 1009,1 hPa 0,0 l/m² 4,4 km/h (1 Bft) N-NW 338 ° 1 min 104 W/m² 14,5 °C 18,0 °C 6,4 km/h (2 Bft)
31.05.2024 19:19 22,3 °C 18,0 °C 67 % 80 % 1009,0 hPa 0,0 l/m² 4,8 km/h (1 Bft) NW 315 ° 1 min 104 W/m² 14,5 °C 18,0 °C 8,0 km/h (2 Bft)
31.05.2024 19:21 22,3 °C 18,0 °C 67 % 80 % 1009,0 hPa 0,0 l/m² 3,7 km/h (1 Bft) NW 310 ° 2 min 105 W/m² 14,5 °C 18,0 °C 12,9 km/h (3 Bft)
31.05.2024 19:23 22,3 °C 17,9 °C 67 % 81 % 1009,0 hPa 0,0 l/m² 5,5 km/h (2 Bft) NW 322 ° 2 min 104 W/m² 14,6 °C 17,9 °C 11,3 km/h (2 Bft)
31.05.2024 19:24 22,3 °C 17,9 °C 66 % 81 % 1009,0 hPa 0,0 l/m² 6,0 km/h (2 Bft) NW 313 ° 1 min 104 W/m² 14,6 °C 17,9 °C 14,5 km/h (3 Bft)
31.05.2024 19:25 22,3 °C 17,9 °C 66 % 81 % 1009,0 hPa 0,0 l/m² 7,2 km/h (2 Bft) W-NW 302 ° 1 min 104 W/m² 14,6 °C 17,5 °C 11,3 km/h (2 Bft)
31.05.2024 19:26 22,3 °C 17,9 °C 66 % 81 % 1009,0 hPa 0,0 l/m² 5,2 km/h (1 Bft) NW 312 ° 1 min 102 W/m² 14,6 °C 17,9 °C 9,7 km/h (2 Bft)
31.05.2024 19:27 22,3 °C 17,9 °C 66 % 81 % 1008,9 hPa 0,0 l/m² 6,4 km/h (2 Bft) NW 319 ° 1 min 102 W/m² 14,6 °C 17,9 °C 12,9 km/h (3 Bft)
31.05.2024 19:28 22,3 °C 17,8 °C 66 % 81 % 1008,9 hPa 0,0 l/m² 5,6 km/h (2 Bft) NW 306 ° 1 min 98 W/m² 14,5 °C 17,8 °C 8,0 km/h (2 Bft)
31.05.2024 19:29 22,3 °C 17,8 °C 66 % 81 % 1009,0 hPa 0,0 l/m² 6,1 km/h (2 Bft) NW 314 ° 1 min 97 W/m² 14,5 °C 17,8 °C 8,0 km/h (2 Bft)
31.05.2024 19:30 22,3 °C 17,8 °C 66 % 81 % 1008,9 hPa 0,0 l/m² 4,6 km/h (1 Bft) W-NW 297 ° 1 min 93 W/m² 14,5 °C 17,8 °C 6,4 km/h (2 Bft)
31.05.2024 19:32 22,3 °C 17,8 °C 66 % 81 % 1009,0 hPa 0,0 l/m² 4,5 km/h (1 Bft) W-NW 292 ° 2 min 88 W/m² 14,5 °C 17,8 °C 9,7 km/h (2 Bft)
31.05.2024 19:33 22,3 °C 17,7 °C 66 % 81 % 1009,0 hPa 0,0 l/m² 4,0 km/h (1 Bft) NW 321 ° 1 min 84 W/m² 14,4 °C 17,7 °C 11,3 km/h (2 Bft)
31.05.2024 19:34 22,3 °C 17,7 °C 66 % 81 % 1009,0 hPa 0,0 l/m² 1,9 km/h (1 Bft) NW 304 ° 1 min 77 W/m² 14,4 °C 17,7 °C 4,8 km/h (1 Bft)
31.05.2024 19:35 22,2 °C 17,7 °C 66 % 81 % 1009,0 hPa 0,0 l/m² 5,1 km/h (1 Bft) NW 321 ° 1 min 76 W/m² 14,4 °C 17,7 °C 12,9 km/h (3 Bft)
31.05.2024 19:36 22,2 °C 17,7 °C 66 % 81 % 1009,1 hPa 0,0 l/m² 9,3 km/h (2 Bft) NW 305 ° 1 min 72 W/m² 14,4 °C 16,4 °C 16,1 km/h (3 Bft)
31.05.2024 19:37 22,2 °C 17,7 °C 66 % 81 % 1009,0 hPa 0,0 l/m² 6,5 km/h (2 Bft) W 279 ° 1 min 69 W/m² 14,4 °C 17,7 °C 11,3 km/h (2 Bft)
31.05.2024 19:38 22,2 °C 17,7 °C 66 % 81 % 1009,0 hPa 0,0 l/m² 4,4 km/h (1 Bft) W-NW 302 ° 1 min 67 W/m² 14,4 °C 17,7 °C 9,7 km/h (2 Bft)
31.05.2024 19:39 22,2 °C 17,6 °C 66 % 80 % 1008,9 hPa 0,0 l/m² 4,0 km/h (1 Bft) NW 306 ° 1 min 63 W/m² 14,1 °C 17,6 °C 8,0 km/h (2 Bft)
31.05.2024 19:41 22,2 °C 17,6 °C 66 % 81 % 1009,0 hPa 0,0 l/m² 6,2 km/h (2 Bft) NW 317 ° 2 min 58 W/m² 14,3 °C 17,6 °C 11,3 km/h (2 Bft)
31.05.2024 19:43 22,2 °C 17,5 °C 66 % 81 % 1009,0 hPa 0,0 l/m² 5,4 km/h (2 Bft) NW 313 ° 2 min 56 W/m² 14,2 °C 17,5 °C 11,3 km/h (2 Bft)
31.05.2024 19:44 22,2 °C 17,5 °C 66 % 81 % 1009,0 hPa 0,0 l/m² 5,4 km/h (2 Bft) NW 323 ° 1 min 56 W/m² 14,2 °C 17,5 °C 9,7 km/h (2 Bft)
31.05.2024 19:45 22,2 °C 17,4 °C 66 % 81 % 1009,1 hPa 0,0 l/m² 5,7 km/h (2 Bft) N-NW 329 ° 1 min 56 W/m² 14,1 °C 17,4 °C 8,0 km/h (2 Bft)
31.05.2024 19:46 22,2 °C 17,4 °C 66 % 81 % 1009,1 hPa 0,0 l/m² 4,1 km/h (1 Bft) NW 316 ° 1 min 56 W/m² 14,1 °C 17,4 °C 6,4 km/h (2 Bft)
31.05.2024 19:47 22,2 °C 17,4 °C 66 % 82 % 1009,0 hPa 0,0 l/m² 3,4 km/h (1 Bft) NW 323 ° 1 min 56 W/m² 14,3 °C 17,4 °C 8,0 km/h (2 Bft)
31.05.2024 19:48 22,2 °C 17,4 °C 66 % 82 % 1009,2 hPa 0,0 l/m² 4,3 km/h (1 Bft) W 271 ° 1 min 56 W/m² 14,3 °C 17,4 °C 6,4 km/h (2 Bft)
31.05.2024 19:49 22,2 °C 17,4 °C 66 % 82 % 1009,1 hPa 0,0 l/m² 3,9 km/h (1 Bft) NW 304 ° 1 min 58 W/m² 14,3 °C 17,4 °C 6,4 km/h (2 Bft)
31.05.2024 19:51 22,2 °C 17,3 °C 65 % 82 % 1009,2 hPa 0,0 l/m² 2,3 km/h (1 Bft) W-NW 303 ° 2 min 60 W/m² 14,2 °C 17,3 °C 8,0 km/h (2 Bft)
31.05.2024 19:53 22,2 °C 17,2 °C 65 % 83 % 1009,2 hPa 0,0 l/m² 3,1 km/h (1 Bft) NW 313 ° 2 min 63 W/m² 14,3 °C 17,2 °C 6,4 km/h (2 Bft)
31.05.2024 19:54 22,2 °C 17,2 °C 65 % 83 % 1009,3 hPa 0,0 l/m² 3,3 km/h (1 Bft) N-NW 329 ° 1 min 63 W/m² 14,3 °C 17,2 °C 6,4 km/h (2 Bft)
31.05.2024 19:55 22,2 °C 17,2 °C 65 % 83 % 1009,3 hPa 0,0 l/m² 4,1 km/h (1 Bft) NW 306 ° 1 min 65 W/m² 14,3 °C 17,2 °C 6,4 km/h (2 Bft)
31.05.2024 19:56 22,2 °C 17,2 °C 65 % 83 % 1009,3 hPa 0,0 l/m² 4,0 km/h (1 Bft) N-NW 332 ° 1 min 65 W/m² 14,3 °C 17,2 °C 6,4 km/h (2 Bft)
31.05.2024 19:57 22,2 °C 17,2 °C 65 % 83 % 1009,3 hPa 0,0 l/m² 2,8 km/h (1 Bft) W-NW 303 ° 1 min 65 W/m² 14,3 °C 17,2 °C 4,8 km/h (1 Bft)
31.05.2024 19:58 22,2 °C 17,2 °C 65 % 83 % 1009,2 hPa 0,0 l/m² 2,8 km/h (1 Bft) NW 309 ° 1 min 63 W/m² 14,3 °C 17,2 °C 6,4 km/h (2 Bft)
31.05.2024 19:59 22,1 °C 17,1 °C 65 % 83 % 1009,2 hPa 0,0 l/m² 5,6 km/h (2 Bft) NW 318 ° 1 min 63 W/m² 14,2 °C 17,1 °C 8,0 km/h (2 Bft)
31.05.2024 20:00 22,1 °C 17,1 °C 65 % 83 % 1009,2 hPa 0,0 l/m² 3,5 km/h (1 Bft) NW 326 ° 1 min 62 W/m² 14,2 °C 17,1 °C 4,8 km/h (1 Bft)
31.05.2024 20:02 22,1 °C 17,1 °C 65 % 83 % 1009,1 hPa 0,0 l/m² 4,6 km/h (1 Bft) NW 306 ° 2 min 58 W/m² 14,2 °C 17,1 °C 9,7 km/h (2 Bft)
31.05.2024 20:03 22,1 °C 17,1 °C 65 % 83 % 1009,2 hPa 0,0 l/m² 3,6 km/h (1 Bft) NW 312 ° 1 min 58 W/m² 14,2 °C 17,1 °C 6,4 km/h (2 Bft)
31.05.2024 20:04 22,1 °C 17,1 °C 65 % 83 % 1009,1 hPa 0,0 l/m² 3,0 km/h (1 Bft) W-NW 300 ° 1 min 54 W/m² 14,2 °C 17,1 °C 4,8 km/h (1 Bft)
31.05.2024 20:05 22,1 °C 17,1 °C 65 % 83 % 1009,1 hPa 0,0 l/m² 3,5 km/h (1 Bft) NW 319 ° 1 min 53 W/m² 14,2 °C 17,1 °C 6,4 km/h (2 Bft)
31.05.2024 20:06 22,1 °C 17,1 °C 65 % 83 % 1009,2 hPa 0,0 l/m² 4,1 km/h (1 Bft) W-NW 290 ° 0 min 51 W/m² 14,2 °C 17,1 °C 6,4 km/h (2 Bft)
31.05.2024 20:07 22,1 °C 17,0 °C 64 % 83 % 1009,2 hPa 0,0 l/m² 5,9 km/h (2 Bft) W-NW 296 ° 0 min 51 W/m² 14,1 °C 17,0 °C 11,3 km/h (2 Bft)
31.05.2024 20:08 22,1 °C 16,9 °C 64 % 83 % 1009,2 hPa 0,0 l/m² 5,4 km/h (2 Bft) W-NW 292 ° 0 min 51 W/m² 14,0 °C 16,9 °C 8,0 km/h (2 Bft)
31.05.2024 20:09 22,1 °C 17,0 °C 64 % 83 % 1009,2 hPa 0,0 l/m² 1,7 km/h (1 Bft) NW 307 ° 0 min 49 W/m² 14,1 °C 17,0 °C 4,8 km/h (1 Bft)
31.05.2024 20:10 22,1 °C 16,9 °C 64 % 83 % 1009,2 hPa 0,0 l/m² 3,3 km/h (1 Bft) N-NW 329 ° 0 min 49 W/m² 14,0 °C 16,9 °C 4,8 km/h (1 Bft)
31.05.2024 20:12 22,1 °C 16,9 °C 64 % 84 % 1009,3 hPa 0,0 l/m² 2,9 km/h (1 Bft) W 265 ° 0 min 49 W/m² 14,2 °C 16,9 °C 6,4 km/h (2 Bft)
31.05.2024 20:13 22,1 °C 16,9 °C 64 % 84 % 1009,3 hPa 0,0 l/m² 2,6 km/h (1 Bft) W-NW 282 ° 0 min 47 W/m² 14,2 °C 16,9 °C 4,8 km/h (1 Bft)
31.05.2024 20:14 22,1 °C 16,9 °C 64 % 84 % 1009,3 hPa 0,0 l/m² 2,7 km/h (1 Bft) W-NW 292 ° 0 min 47 W/m² 14,2 °C 16,9 °C 6,4 km/h (2 Bft)
31.05.2024 20:15 22,1 °C 16,8 °C 64 % 84 % 1009,3 hPa 0,0 l/m² 3,6 km/h (1 Bft) W-NW 292 ° 0 min 47 W/m² 14,1 °C 16,8 °C 4,8 km/h (1 Bft)
31.05.2024 20:16 22,1 °C 16,8 °C 64 % 85 % 1009,2 hPa 0,0 l/m² 2,6 km/h (1 Bft) W-NW 292 ° 0 min 46 W/m² 14,3 °C 16,8 °C 4,8 km/h (1 Bft)
31.05.2024 20:17 22,1 °C 16,8 °C 64 % 84 % 1009,3 hPa 0,0 l/m² 5,6 km/h (2 Bft) W-NW 302 ° 0 min 44 W/m² 14,1 °C 16,8 °C 11,3 km/h (2 Bft)
31.05.2024 20:18 22,1 °C 16,8 °C 64 % 85 % 1009,4 hPa 0,0 l/m² 5,6 km/h (2 Bft) NW 314 ° 0 min 44 W/m² 14,3 °C 16,8 °C 8,0 km/h (2 Bft)
31.05.2024 20:19 22,1 °C 16,8 °C 64 % 84 % 1009,4 hPa 0,0 l/m² 2,5 km/h (1 Bft) NW 308 ° 0 min 42 W/m² 14,1 °C 16,8 °C 4,8 km/h (1 Bft)
31.05.2024 20:21 22,0 °C 16,8 °C 63 % 84 % 1009,4 hPa 0,0 l/m² 4,6 km/h (1 Bft) W 277 ° 0 min 39 W/m² 14,1 °C 16,8 °C 8,0 km/h (2 Bft)
31.05.2024 20:23 22,1 °C 16,8 °C 63 % 84 % 1009,4 hPa 0,0 l/m² 2,7 km/h (1 Bft) W 277 ° 0 min 37 W/m² 14,1 °C 16,8 °C 6,4 km/h (2 Bft)
31.05.2024 20:24 22,0 °C 16,8 °C 63 % 85 % 1009,4 hPa 0,0 l/m² 1,4 km/h (1 Bft) W 277 ° 0 min 35 W/m² 14,3 °C 16,8 °C 3,2 km/h (1 Bft)
31.05.2024 20:25 22,1 °C 16,7 °C 63 % 85 % 1009,4 hPa 0,0 l/m² 0,5 km/h (0 Bft) W 277 ° 0 min 35 W/m² 14,2 °C 16,7 °C 1,6 km/h (1 Bft)
31.05.2024 20:26 22,1 °C 16,7 °C 63 % 85 % 1009,4 hPa 0,0 l/m² 1,0 km/h (0 Bft) W 277 ° 0 min 33 W/m² 14,2 °C 16,7 °C 3,2 km/h (1 Bft)
31.05.2024 20:27 22,0 °C 16,6 °C 63 % 85 % 1009,4 hPa 0,0 l/m² 0,8 km/h (0 Bft) W 277 ° 0 min 32 W/m² 14,1 °C 16,6 °C 3,2 km/h (1 Bft)
31.05.2024 20:28 22,0 °C 16,6 °C 63 % 86 % 1009,4 hPa 0,0 l/m² 0,7 km/h (0 Bft) W 277 ° 0 min 30 W/m² 14,2 °C 16,6 °C 1,6 km/h (1 Bft)
31.05.2024 20:29 22,1 °C 16,5 °C 63 % 86 % 1009,4 hPa 0,0 l/m² 1,9 km/h (1 Bft) W 277 ° 0 min 30 W/m² 14,1 °C 16,5 °C 4,8 km/h (1 Bft)
31.05.2024 20:31 22,1 °C 16,4 °C 64 % 86 % 1009,4 hPa 0,0 l/m² 1,6 km/h (1 Bft) W 277 ° 0 min 26 W/m² 14,1 °C 16,4 °C 4,8 km/h (1 Bft)
31.05.2024 20:33 22,0 °C 16,4 °C 64 % 86 % 1009,4 hPa 0,0 l/m² 2,8 km/h (1 Bft) W 277 ° 0 min 25 W/m² 14,1 °C 16,4 °C 4,8 km/h (1 Bft)
31.05.2024 20:34 22,1 °C 16,4 °C 64 % 86 % 1009,4 hPa 0,0 l/m² 1,3 km/h (1 Bft) W 277 ° 0 min 23 W/m² 14,1 °C 16,4 °C 3,2 km/h (1 Bft)
31.05.2024 20:35 22,1 °C 16,4 °C 64 % 86 % 1009,4 hPa 0,0 l/m² 0,3 km/h (0 Bft) W 277 ° 0 min 23 W/m² 14,1 °C 16,4 °C 1,6 km/h (1 Bft)
31.05.2024 20:36 22,1 °C 16,4 °C 64 % 86 % 1009,4 hPa 0,0 l/m² 0,0 km/h (0 Bft) W 277 ° 0 min 21 W/m² 14,1 °C 16,4 °C 0,0 km/h (0 Bft)
31.05.2024 20:37 22,1 °C 16,3 °C 64 % 86 % 1009,5 hPa 0,0 l/m² 1,4 km/h (1 Bft) W 277 ° 0 min 21 W/m² 14,0 °C 16,3 °C 3,2 km/h (1 Bft)
31.05.2024 20:38 22,0 °C 16,3 °C 64 % 86 % 1009,5 hPa 0,0 l/m² 0,5 km/h (0 Bft) W 277 ° 0 min 21 W/m² 14,0 °C 16,3 °C 3,2 km/h (1 Bft)
31.05.2024 20:39 22,1 °C 16,3 °C 64 % 87 % 1009,5 hPa 0,0 l/m² 1,9 km/h (1 Bft) W 277 ° 0 min 19 W/m² 14,1 °C 16,3 °C 3,2 km/h (1 Bft)
31.05.2024 20:41 22,1 °C 16,3 °C 64 % 87 % 1009,5 hPa 0,0 l/m² 2,5 km/h (1 Bft) W 277 ° 0 min 18 W/m² 14,1 °C 16,3 °C 4,8 km/h (1 Bft)
31.05.2024 20:43 22,1 °C 16,2 °C 64 % 87 % 1009,5 hPa 0,0 l/m² 2,4 km/h (1 Bft) W 277 ° 0 min 16 W/m² 14,0 °C 16,2 °C 4,8 km/h (1 Bft)
31.05.2024 20:44 22,1 °C 16,2 °C 64 % 87 % 1009,5 hPa 0,0 l/m² 1,3 km/h (1 Bft) W 277 ° 0 min 16 W/m² 14,0 °C 16,2 °C 4,8 km/h (1 Bft)
31.05.2024 20:45 22,1 °C 16,2 °C 64 % 87 % 1009,5 hPa 0,0 l/m² 4,6 km/h (1 Bft) W 277 ° 0 min 14 W/m² 14,0 °C 16,2 °C 6,4 km/h (2 Bft)
31.05.2024 20:46 22,1 °C 16,2 °C 64 % 87 % 1009,5 hPa 0,0 l/m² 3,1 km/h (1 Bft) W 277 ° 0 min 12 W/m² 14,0 °C 16,2 °C 4,8 km/h (1 Bft)
31.05.2024 20:47 22,1 °C 16,2 °C 64 % 87 % 1009,5 hPa 0,0 l/m² 2,3 km/h (1 Bft) W 277 ° 0 min 12 W/m² 14,0 °C 16,2 °C 4,8 km/h (1 Bft)
31.05.2024 20:48 22,1 °C 16,1 °C 64 % 87 % 1009,6 hPa 0,0 l/m² 1,4 km/h (1 Bft) W 277 ° 0 min 12 W/m² 13,9 °C 16,1 °C 3,2 km/h (1 Bft)
31.05.2024 20:49 22,1 °C 16,1 °C 64 % 87 % 1009,6 hPa 0,0 l/m² 2,7 km/h (1 Bft) W 277 ° 0 min 11 W/m² 13,9 °C 16,1 °C 4,8 km/h (1 Bft)
31.05.2024 20:51 22,1 °C 16,1 °C 64 % 88 % 1009,5 hPa 0,0 l/m² 3,0 km/h (1 Bft) W 277 ° 0 min 9 W/m² 14,1 °C 16,1 °C 6,4 km/h (2 Bft)
31.05.2024 20:53 22,1 °C 16,1 °C 64 % 88 % 1009,5 hPa 0,0 l/m² 3,2 km/h (1 Bft) W 277 ° 0 min 9 W/m² 14,1 °C 16,1 °C 6,4 km/h (2 Bft)
31.05.2024 20:54 22,1 °C 16,0 °C 64 % 88 % 1009,6 hPa 0,0 l/m² 4,7 km/h (1 Bft) W-NW 302 ° 0 min 9 W/m² 14,0 °C 16,0 °C 8,0 km/h (2 Bft)
31.05.2024 20:55 22,1 °C 16,0 °C 64 % 88 % 1009,5 hPa 0,0 l/m² 4,9 km/h (1 Bft) W-NW 286 ° 0 min 9 W/m² 14,0 °C 16,0 °C 8,0 km/h (2 Bft)
31.05.2024 20:56 22,1 °C 16,0 °C 64 % 88 % 1009,5 hPa 0,0 l/m² 1,2 km/h (1 Bft) W-NW 286 ° 0 min 7 W/m² 14,0 °C 16,0 °C 3,2 km/h (1 Bft)
31.05.2024 20:57 22,1 °C 15,9 °C 64 % 88 % 1009,5 hPa 0,0 l/m² 2,2 km/h (1 Bft) W-NW 287 ° 0 min 7 W/m² 13,9 °C 15,9 °C 4,8 km/h (1 Bft)
31.05.2024 20:58 22,1 °C 15,9 °C 64 % 88 % 1009,5 hPa 0,0 l/m² 2,6 km/h (1 Bft) W-NW 287 ° 0 min 7 W/m² 13,9 °C 15,9 °C 6,4 km/h (2 Bft)
31.05.2024 20:59 22,1 °C 15,9 °C 64 % 88 % 1009,4 hPa 0,0 l/m² 1,9 km/h (1 Bft) W-NW 287 ° 0 min 5 W/m² 13,9 °C 15,9 °C 4,8 km/h (1 Bft)
31.05.2024 21:01 22,1 °C 15,8 °C 64 % 88 % 1009,4 hPa 0,0 l/m² 2,3 km/h (1 Bft) W-NW 298 ° 0 min 5 W/m² 13,8 °C 15,8 °C 8,0 km/h (2 Bft)
31.05.2024 21:03 22,1 °C 15,8 °C 64 % 88 % 1009,4 hPa 0,0 l/m² 2,6 km/h (1 Bft) W-SW 254 ° 0 min 5 W/m² 13,8 °C 15,8 °C 6,4 km/h (2 Bft)
31.05.2024 21:04 22,1 °C 15,8 °C 64 % 88 % 1009,4 hPa 0,0 l/m² 0,8 km/h (0 Bft) W-SW 255 ° 0 min 0 W/m² 13,8 °C 15,8 °C 3,2 km/h (1 Bft)
31.05.2024 21:05 22,1 °C 15,8 °C 64 % 88 % 1009,4 hPa 0,0 l/m² 1,0 km/h (0 Bft) W 262 ° 0 min 0 W/m² 13,8 °C 15,8 °C 3,2 km/h (1 Bft)
31.05.2024 21:06 22,1 °C 15,8 °C 64 % 88 % 1009,3 hPa 0,0 l/m² 2,3 km/h (1 Bft) W 271 ° 0 min 0 W/m² 13,8 °C 15,8 °C 4,8 km/h (1 Bft)
31.05.2024 21:07 22,1 °C 15,8 °C 64 % 88 % 1009,4 hPa 0,0 l/m² 3,6 km/h (1 Bft) W 278 ° 0 min 0 W/m² 13,8 °C 15,8 °C 6,4 km/h (2 Bft)
31.05.2024 21:08 22,1 °C 15,8 °C 64 % 88 % 1009,4 hPa 0,0 l/m² 2,2 km/h (1 Bft) W 280 ° 0 min 0 W/m² 13,8 °C 15,8 °C 6,4 km/h (2 Bft)
31.05.2024 21:09 22,2 °C 15,8 °C 64 % 88 % 1009,4 hPa 0,0 l/m² 2,1 km/h (1 Bft) W 280 ° 0 min 0 W/m² 13,8 °C 15,8 °C 4,8 km/h (1 Bft)
31.05.2024 21:10 22,2 °C 15,8 °C 64 % 88 % 1009,4 hPa 0,0 l/m² 3,1 km/h (1 Bft) W 280 ° 0 min 0 W/m² 13,8 °C 15,8 °C 6,4 km/h (2 Bft)
31.05.2024 21:12 22,2 °C 15,8 °C 64 % 88 % 1009,4 hPa 0,0 l/m² 1,7 km/h (1 Bft) W 280 ° 0 min 0 W/m² 13,8 °C 15,8 °C 4,8 km/h (1 Bft)
31.05.2024 21:13 22,1 °C 15,8 °C 64 % 88 % 1009,3 hPa 0,0 l/m² 4,7 km/h (1 Bft) W-NW 286 ° 0 min 0 W/m² 13,8 °C 15,8 °C 9,7 km/h (2 Bft)
31.05.2024 21:14 22,2 °C 15,8 °C 64 % 87 % 1009,3 hPa 0,0 l/m² 1,8 km/h (1 Bft) W-NW 286 ° 0 min 0 W/m² 13,6 °C 15,8 °C 4,8 km/h (1 Bft)
31.05.2024 21:15 22,2 °C 15,9 °C 64 % 87 % 1009,4 hPa 0,0 l/m² 2,2 km/h (1 Bft) W-NW 285 ° 0 min 0 W/m² 13,7 °C 15,9 °C 4,8 km/h (1 Bft)
31.05.2024 21:16 22,2 °C 15,8 °C 64 % 87 % 1009,4 hPa 0,0 l/m² 2,2 km/h (1 Bft) W-SW 250 ° 0 min 0 W/m² 13,6 °C 15,8 °C 4,8 km/h (1 Bft)
31.05.2024 21:17 22,2 °C 15,9 °C 64 % 87 % 1009,4 hPa 0,0 l/m² 1,9 km/h (1 Bft) W-SW 254 ° 0 min 0 W/m² 13,7 °C 15,9 °C 3,2 km/h (1 Bft)
31.05.2024 21:18 22,2 °C 15,9 °C 64 % 87 % 1009,4 hPa 0,0 l/m² 0,2 km/h (0 Bft) W-SW 254 ° 0 min 0 W/m² 13,7 °C 15,9 °C 1,6 km/h (1 Bft)
31.05.2024 21:19 22,2 °C 15,8 °C 64 % 87 % 1009,4 hPa 0,0 l/m² 0,1 km/h (0 Bft) W-SW 254 ° 0 min 0 W/m² 13,6 °C 15,8 °C 1,6 km/h (1 Bft)
31.05.2024 21:21 22,2 °C 15,7 °C 64 % 88 % 1009,4 hPa 0,0 l/m² 0,7 km/h (0 Bft) W-SW 254 ° 0 min 0 W/m² 13,7 °C 15,7 °C 3,2 km/h (1 Bft)
31.05.2024 21:23 22,2 °C 15,4 °C 64 % 88 % 1009,5 hPa 0,0 l/m² 0,8 km/h (0 Bft) W-SW 254 ° 0 min 0 W/m² 13,4 °C 15,4 °C 1,6 km/h (1 Bft)
31.05.2024 21:24 22,2 °C 15,4 °C 64 % 89 % 1009,5 hPa 0,0 l/m² 0,6 km/h (0 Bft) W-SW 254 ° 0 min 0 W/m² 13,6 °C 15,4 °C 1,6 km/h (1 Bft)
31.05.2024 21:25 22,2 °C 15,3 °C 64 % 89 % 1009,5 hPa 0,0 l/m² 0,3 km/h (0 Bft) W-SW 254 ° 0 min 0 W/m² 13,5 °C 15,3 °C 1,6 km/h (1 Bft)
31.05.2024 21:26 22,2 °C 15,2 °C 64 % 89 % 1009,5 hPa 0,0 l/m² 0,4 km/h (0 Bft) W-SW 254 ° 0 min 0 W/m² 13,4 °C 15,2 °C 1,6 km/h (1 Bft)
31.05.2024 21:27 22,2 °C 15,2 °C 64 % 89 % 1009,5 hPa 0,0 l/m² 0,7 km/h (0 Bft) W-SW 254 ° 0 min 0 W/m² 13,4 °C 15,2 °C 1,6 km/h (1 Bft)
31.05.2024 21:28 22,2 °C 15,1 °C 64 % 89 % 1009,5 hPa 0,0 l/m² 1,7 km/h (1 Bft) W-SW 254 ° 0 min 0 W/m² 13,3 °C 15,1 °C 3,2 km/h (1 Bft)
31.05.2024 21:29 22,2 °C 15,1 °C 64 % 90 % 1009,5 hPa 0,0 l/m² 0,1 km/h (0 Bft) W-SW 254 ° 0 min 0 W/m² 13,5 °C 15,1 °C 1,6 km/h (1 Bft)
31.05.2024 21:31 22,2 °C 14,9 °C 64 % 90 % 1009,7 hPa 0,0 l/m² 0,6 km/h (0 Bft) W-SW 254 ° 0 min 0 W/m² 13,3 °C 14,9 °C 1,6 km/h (1 Bft)
31.05.2024 21:33 22,2 °C 14,8 °C 64 % 90 % 1009,6 hPa 0,0 l/m² 1,0 km/h (0 Bft) W-SW 254 ° 0 min 0 W/m² 13,2 °C 14,8 °C 3,2 km/h (1 Bft)
31.05.2024 21:34 22,2 °C 14,7 °C 64 % 90 % 1009,7 hPa 0,0 l/m² 1,6 km/h (1 Bft) W-SW 254 ° 0 min 0 W/m² 13,1 °C 14,7 °C 3,2 km/h (1 Bft)
31.05.2024 21:35 22,2 °C 14,7 °C 64 % 90 % 1009,7 hPa 0,0 l/m² 0,6 km/h (0 Bft) W-SW 254 ° 0 min 0 W/m² 13,1 °C 14,7 °C 1,6 km/h (1 Bft)
31.05.2024 21:36 22,2 °C 14,6 °C 64 % 90 % 1009,6 hPa 0,0 l/m² 0,0 km/h (0 Bft) W-SW 254 ° 0 min 0 W/m² 13,0 °C 14,6 °C 0,0 km/h (0 Bft)
31.05.2024 21:37 22,2 °C 14,6 °C 64 % 90 % 1009,7 hPa 0,0 l/m² 0,2 km/h (0 Bft) W-SW 254 ° 0 min 0 W/m² 13,0 °C 14,6 °C 1,6 km/h (1 Bft)
31.05.2024 21:38 22,2 °C 14,6 °C 64 % 91 % 1009,7 hPa 0,0 l/m² 0,0 km/h (0 Bft) W-SW 254 ° 0 min 0 W/m² 13,1 °C 14,6 °C 0,0 km/h (0 Bft)
31.05.2024 21:39 22,2 °C 14,4 °C 64 % 91 % 1009,7 hPa 0,0 l/m² 0,5 km/h (0 Bft) W-SW 254 ° 0 min 0 W/m² 12,9 °C 14,4 °C 1,6 km/h (1 Bft)
31.05.2024 21:40 22,2 °C 14,4 °C 64 % 91 % 1009,7 hPa 0,0 l/m² 0,5 km/h (0 Bft) W-SW 254 ° 0 min 0 W/m² 12,9 °C 14,4 °C 1,6 km/h (1 Bft)
31.05.2024 21:42 22,2 °C 14,4 °C 64 % 91 % 1009,7 hPa 0,0 l/m² 0,3 km/h (0 Bft) W-SW 254 ° 0 min 0 W/m² 12,9 °C 14,4 °C 1,6 km/h (1 Bft)
31.05.2024 21:43 22,2 °C 14,3 °C 64 % 91 % 1009,7 hPa 0,0 l/m² 0,0 km/h (0 Bft) W-SW 254 ° 0 min 0 W/m² 12,8 °C 14,3 °C 0,0 km/h (0 Bft)
31.05.2024 21:44 22,2 °C 14,3 °C 64 % 91 % 1009,7 hPa 0,0 l/m² 0,0 km/h (0 Bft) W-SW 254 ° 0 min 0 W/m² 12,8 °C 14,3 °C 0,0 km/h (0 Bft)
31.05.2024 21:46 22,2 °C 14,3 °C 64 % 91 % 1009,7 hPa 0,0 l/m² 0,0 km/h (0 Bft) W-SW 254 ° 0 min 0 W/m² 12,8 °C 14,3 °C 0,0 km/h (0 Bft)
31.05.2024 21:47 22,2 °C 14,3 °C 64 % 92 % 1009,7 hPa 0,0 l/m² 0,0 km/h (0 Bft) W-SW 254 ° 0 min 0 W/m² 13,0 °C 14,3 °C 0,0 km/h (0 Bft)
31.05.2024 21:48 22,2 °C 14,3 °C 64 % 91 % 1009,8 hPa 0,0 l/m² 0,0 km/h (0 Bft) W-SW 254 ° 0 min 0 W/m² 12,8 °C 14,3 °C 0,0 km/h (0 Bft)
31.05.2024 21:49 22,2 °C 14,3 °C 64 % 91 % 1009,8 hPa 0,0 l/m² 0,0 km/h (0 Bft) W-SW 254 ° 0 min 0 W/m² 12,8 °C 14,3 °C 0,0 km/h (0 Bft)
31.05.2024 21:50 22,2 °C 14,2 °C 64 % 91 % 1009,8 hPa 0,0 l/m² 0,2 km/h (0 Bft) W-SW 254 ° 0 min 0 W/m² 12,8 °C 14,2 °C 1,6 km/h (1 Bft)
31.05.2024 21:52 22,2 °C 14,2 °C 64 % 92 % 1009,8 hPa 0,0 l/m² 0,4 km/h (0 Bft) W-SW 254 ° 0 min 0 W/m² 12,9 °C 14,2 °C 1,6 km/h (1 Bft)
31.05.2024 21:53 22,2 °C 14,2 °C 64 % 92 % 1009,8 hPa 0,0 l/m² 0,1 km/h (0 Bft) W-SW 254 ° 0 min 0 W/m² 12,9 °C 14,2 °C 1,6 km/h (1 Bft)
31.05.2024 21:54 22,2 °C 14,2 °C 64 % 92 % 1009,8 hPa 0,0 l/m² 0,1 km/h (0 Bft) W-SW 254 ° 0 min 0 W/m² 12,9 °C 14,2 °C 1,6 km/h (1 Bft)
31.05.2024 21:55 22,2 °C 14,2 °C 64 % 92 % 1009,8 hPa 0,0 l/m² 0,7 km/h (0 Bft) W-SW 254 ° 0 min 0 W/m² 12,9 °C 14,2 °C 3,2 km/h (1 Bft)
31.05.2024 21:56 22,2 °C 14,2 °C 64 % 92 % 1009,8 hPa 0,0 l/m² 0,7 km/h (0 Bft) W-SW 254 ° 0 min 0 W/m² 12,9 °C 14,2 °C 3,2 km/h (1 Bft)
31.05.2024 21:57 22,2 °C 14,2 °C 64 % 92 % 1009,9 hPa 0,0 l/m² 0,9 km/h (0 Bft) W-SW 254 ° 0 min 0 W/m² 12,9 °C 14,2 °C 3,2 km/h (1 Bft)
31.05.2024 21:58 22,2 °C 14,2 °C 64 % 92 % 1009,9 hPa 0,0 l/m² 0,2 km/h (0 Bft) W-SW 254 ° 0 min 0 W/m² 12,9 °C 14,2 °C 1,6 km/h (1 Bft)
31.05.2024 21:59 22,2 °C 14,2 °C 64 % 92 % 1009,8 hPa 0,0 l/m² 0,0 km/h (0 Bft) W-SW 254 ° 0 min 0 W/m² 12,9 °C 14,2 °C 0,0 km/h (0 Bft)
31.05.2024 22:01 22,2 °C 14,2 °C 64 % 92 % 1009,9 hPa 0,0 l/m² 0,3 km/h (0 Bft) W-SW 254 ° 0 min 0 W/m² 12,9 °C 14,2 °C 1,6 km/h (1 Bft)
31.05.2024 22:03 22,2 °C 14,3 °C 64 % 92 % 1009,8 hPa 0,0 l/m² 1,1 km/h (1 Bft) W 266 ° 0 min 0 W/m² 13,0 °C 14,3 °C 6,4 km/h (2 Bft)
31.05.2024 22:04 22,2 °C 14,3 °C 64 % 92 % 1009,9 hPa 0,0 l/m² 1,5 km/h (1 Bft) W 273 ° 0 min 0 W/m² 13,0 °C 14,3 °C 6,4 km/h (2 Bft)
31.05.2024 22:05 22,2 °C 14,3 °C 64 % 93 % 1009,8 hPa 0,0 l/m² 2,5 km/h (1 Bft) W 273 ° 0 min 0 W/m² 13,2 °C 14,3 °C 4,8 km/h (1 Bft)
31.05.2024 22:06 22,2 °C 14,3 °C 64 % 92 % 1009,8 hPa 0,0 l/m² 2,5 km/h (1 Bft) W 277 ° 0 min 0 W/m² 13,0 °C 14,3 °C 6,4 km/h (2 Bft)
31.05.2024 22:07 22,2 °C 14,4 °C 64 % 92 % 1009,8 hPa 0,0 l/m² 2,7 km/h (1 Bft) W 276 ° 0 min 0 W/m² 13,1 °C 14,4 °C 4,8 km/h (1 Bft)
31.05.2024 22:08 22,2 °C 14,4 °C 64 % 92 % 1009,9 hPa 0,0 l/m² 3,3 km/h (1 Bft) W-NW 284 ° 0 min 0 W/m² 13,1 °C 14,4 °C 9,7 km/h (2 Bft)
31.05.2024 22:09 22,2 °C 14,4 °C 64 % 92 % 1009,9 hPa 0,0 l/m² 2,3 km/h (1 Bft) W-NW 284 ° 0 min 0 W/m² 13,1 °C 14,4 °C 4,8 km/h (1 Bft)
31.05.2024 22:11 22,2 °C 14,5 °C 64 % 92 % 1009,9 hPa 0,0 l/m² 2,7 km/h (1 Bft) W-NW 284 ° 0 min 0 W/m² 13,2 °C 14,5 °C 4,8 km/h (1 Bft)
31.05.2024 22:13 22,2 °C 14,6 °C 64 % 92 % 1009,9 hPa 0,0 l/m² 2,2 km/h (1 Bft) W-NW 298 ° 0 min 0 W/m² 13,3 °C 14,6 °C 11,3 km/h (2 Bft)
31.05.2024 22:14 22,1 °C 14,6 °C 64 % 92 % 1010,0 hPa 0,0 l/m² 0,6 km/h (0 Bft) W-NW 298 ° 0 min 0 W/m² 13,3 °C 14,6 °C 1,6 km/h (1 Bft)
31.05.2024 22:15 22,2 °C 14,6 °C 64 % 92 % 1010,0 hPa 0,0 l/m² 0,9 km/h (0 Bft) W-NW 298 ° 0 min 0 W/m² 13,3 °C 14,6 °C 3,2 km/h (1 Bft)
31.05.2024 22:16 22,2 °C 14,6 °C 64 % 92 % 1010,0 hPa 0,0 l/m² 0,4 km/h (0 Bft) W-NW 298 ° 0 min 0 W/m² 13,3 °C 14,6 °C 1,6 km/h (1 Bft)
31.05.2024 22:17 22,1 °C 14,6 °C 64 % 92 % 1010,1 hPa 0,0 l/m² 2,7 km/h (1 Bft) W-NW 298 ° 0 min 0 W/m² 13,3 °C 14,6 °C 6,4 km/h (2 Bft)
31.05.2024 22:18 22,2 °C 14,7 °C 64 % 92 % 1010,0 hPa 0,0 l/m² 3,1 km/h (1 Bft) W-NW 298 ° 0 min 0 W/m² 13,4 °C 14,7 °C 6,4 km/h (2 Bft)
31.05.2024 22:19 22,1 °C 14,7 °C 64 % 92 % 1010,1 hPa 0,0 l/m² 0,3 km/h (0 Bft) W-NW 298 ° 0 min 0 W/m² 13,4 °C 14,7 °C 3,2 km/h (1 Bft)
31.05.2024 22:21 22,1 °C 14,7 °C 64 % 92 % 1010,1 hPa 0,0 l/m² 1,0 km/h (0 Bft) W-NW 298 ° 0 min 0 W/m² 13,4 °C 14,7 °C 4,8 km/h (1 Bft)
31.05.2024 22:23 22,1 °C 14,6 °C 64 % 92 % 1010,1 hPa 0,0 l/m² 1,5 km/h (1 Bft) W-NW 298 ° 0 min 0 W/m² 13,3 °C 14,6 °C 4,8 km/h (1 Bft)
31.05.2024 22:24 22,1 °C 14,7 °C 64 % 92 % 1010,1 hPa 0,0 l/m² 0,4 km/h (0 Bft) W-NW 298 ° 0 min 0 W/m² 13,4 °C 14,7 °C 4,8 km/h (1 Bft)
31.05.2024 22:25 22,1 °C 14,6 °C 64 % 92 % 1010,2 hPa 0,0 l/m² 2,5 km/h (1 Bft) W-NW 298 ° 0 min 0 W/m² 13,3 °C 14,6 °C 6,4 km/h (2 Bft)
31.05.2024 22:26 22,1 °C 14,7 °C 64 % 92 % 1010,1 hPa 0,0 l/m² 3,3 km/h (1 Bft) W-NW 298 ° 0 min 0 W/m² 13,4 °C 14,7 °C 8,0 km/h (2 Bft)
31.05.2024 22:27 22,1 °C 14,7 °C 64 % 92 % 1010,1 hPa 0,0 l/m² 2,3 km/h (1 Bft) W-NW 298 ° 0 min 0 W/m² 13,4 °C 14,7 °C 6,4 km/h (2 Bft)
31.05.2024 22:28 22,1 °C 14,7 °C 64 % 92 % 1010,2 hPa 0,0 l/m² 0,2 km/h (0 Bft) W-NW 298 ° 0 min 0 W/m² 13,4 °C 14,7 °C 1,6 km/h (1 Bft)
31.05.2024 22:29 22,1 °C 14,7 °C 64 % 92 % 1010,1 hPa 0,0 l/m² 1,0 km/h (0 Bft) W-NW 298 ° 0 min 0 W/m² 13,4 °C 14,7 °C 3,2 km/h (1 Bft)
31.05.2024 22:31 22,1 °C 14,7 °C 64 % 92 % 1010,1 hPa 0,0 l/m² 3,3 km/h (1 Bft) W-NW 299 ° 0 min 0 W/m² 13,4 °C 14,7 °C 11,3 km/h (2 Bft)
31.05.2024 22:33 22,1 °C 14,7 °C 64 % 92 % 1010,1 hPa 0,0 l/m² 2,6 km/h (1 Bft) W-NW 299 ° 0 min 0 W/m² 13,4 °C 14,7 °C 6,4 km/h (2 Bft)
31.05.2024 22:34 22,1 °C 14,8 °C 64 % 92 % 1010,1 hPa 0,0 l/m² 1,9 km/h (1 Bft) W-NW 299 ° 0 min 0 W/m² 13,5 °C 14,8 °C 4,8 km/h (1 Bft)
31.05.2024 22:35 22,1 °C 14,8 °C 64 % 92 % 1010,1 hPa 0,0 l/m² 3,6 km/h (1 Bft) W-NW 300 ° 0 min 0 W/m² 13,5 °C 14,8 °C 11,3 km/h (2 Bft)
31.05.2024 22:36 22,1 °C 14,8 °C 64 % 92 % 1010,1 hPa 0,0 l/m² 2,7 km/h (1 Bft) W-NW 299 ° 0 min 0 W/m² 13,5 °C 14,8 °C 4,8 km/h (1 Bft)
31.05.2024 22:37 22,1 °C 14,7 °C 64 % 92 % 1010,1 hPa 0,0 l/m² 4,6 km/h (1 Bft) W-NW 296 ° 0 min 0 W/m² 13,4 °C 14,7 °C 11,3 km/h (2 Bft)
31.05.2024 22:38 22,1 °C 14,8 °C 64 % 92 % 1010,1 hPa 0,0 l/m² 1,6 km/h (1 Bft) W-NW 297 ° 0 min 0 W/m² 13,5 °C 14,8 °C 6,4 km/h (2 Bft)
31.05.2024 22:39 22,1 °C 14,8 °C 64 % 92 % 1010,1 hPa 0,0 l/m² 0,4 km/h (0 Bft) W-NW 286 ° 0 min 0 W/m² 13,5 °C 14,8 °C 1,6 km/h (1 Bft)
31.05.2024 22:41 22,1 °C 14,8 °C 64 % 91 % 1010,1 hPa 0,0 l/m² 4,2 km/h (1 Bft) W 275 ° 0 min 0 W/m² 13,3 °C 14,8 °C 9,7 km/h (2 Bft)
31.05.2024 22:43 22,1 °C 14,8 °C 64 % 91 % 1010,1 hPa 0,0 l/m² 1,7 km/h (1 Bft) W 265 ° 0 min 0 W/m² 13,3 °C 14,8 °C 6,4 km/h (2 Bft)
31.05.2024 22:44 22,1 °C 14,8 °C 64 % 91 % 1010,0 hPa 0,0 l/m² 1,8 km/h (1 Bft) W 272 ° 0 min 0 W/m² 13,3 °C 14,8 °C 4,8 km/h (1 Bft)
31.05.2024 22:45 22,1 °C 14,8 °C 64 % 91 % 1010,0 hPa 0,0 l/m² 3,4 km/h (1 Bft) W 277 ° 0 min 0 W/m² 13,3 °C 14,8 °C 9,7 km/h (2 Bft)
31.05.2024 22:46 22,1 °C 14,8 °C 64 % 91 % 1010,0 hPa 0,0 l/m² 3,3 km/h (1 Bft) W-SW 258 ° 0 min 0 W/m² 13,3 °C 14,8 °C 11,3 km/h (2 Bft)
31.05.2024 22:47 22,1 °C 14,8 °C 64 % 91 % 1010,0 hPa 0,0 l/m² 4,3 km/h (1 Bft) W 275 ° 0 min 0 W/m² 13,3 °C 14,8 °C 9,7 km/h (2 Bft)
31.05.2024 22:48 22,1 °C 14,8 °C 64 % 91 % 1010,0 hPa 0,0 l/m² 3,5 km/h (1 Bft) W 275 ° 0 min 0 W/m² 13,3 °C 14,8 °C 6,4 km/h (2 Bft)
31.05.2024 22:49 22,1 °C 14,8 °C 64 % 92 % 1010,0 hPa 0,0 l/m² 2,0 km/h (1 Bft) W 275 ° 0 min 0 W/m² 13,5 °C 14,8 °C 4,8 km/h (1 Bft)
31.05.2024 22:51 22,1 °C 14,9 °C 64 % 92 % 1009,9 hPa 0,0 l/m² 2,7 km/h (1 Bft) W-NW 288 ° 0 min 0 W/m² 13,6 °C 14,9 °C 12,9 km/h (3 Bft)
31.05.2024 22:53 22,1 °C 14,9 °C 64 % 91 % 1009,9 hPa 0,0 l/m² 2,4 km/h (1 Bft) W-NW 290 ° 0 min 0 W/m² 13,4 °C 14,9 °C 8,0 km/h (2 Bft)
31.05.2024 22:54 22,1 °C 14,9 °C 64 % 91 % 1009,9 hPa 0,0 l/m² 2,5 km/h (1 Bft) W-NW 286 ° 0 min 0 W/m² 13,4 °C 14,9 °C 6,4 km/h (2 Bft)
31.05.2024 22:55 22,1 °C 14,9 °C 64 % 91 % 1009,9 hPa 0,0 l/m² 0,5 km/h (0 Bft) W-NW 286 ° 0 min 0 W/m² 13,4 °C 14,9 °C 3,2 km/h (1 Bft)
31.05.2024 22:56 22,1 °C 14,9 °C 64 % 91 % 1009,9 hPa 0,0 l/m² 0,2 km/h (0 Bft) W-NW 286 ° 0 min 0 W/m² 13,4 °C 14,9 °C 1,6 km/h (1 Bft)
31.05.2024 22:57 22,1 °C 14,9 °C 63 % 91 % 1009,9 hPa 0,0 l/m² 1,8 km/h (1 Bft) W-NW 286 ° 0 min 0 W/m² 13,4 °C 14,9 °C 4,8 km/h (1 Bft)
31.05.2024 22:58 22,0 °C 14,9 °C 63 % 91 % 1009,9 hPa 0,0 l/m² 2,9 km/h (1 Bft) W-NW 294 ° 0 min 0 W/m² 13,4 °C 14,9 °C 11,3 km/h (2 Bft)
31.05.2024 22:59 22,1 °C 14,9 °C 63 % 91 % 1009,8 hPa 0,0 l/m² 2,7 km/h (1 Bft) W-NW 295 ° 0 min 0 W/m² 13,4 °C 14,9 °C 11,3 km/h (2 Bft)
31.05.2024 23:01 22,0 °C 14,9 °C 63 % 91 % 1009,8 hPa 0,0 l/m² 4,5 km/h (1 Bft) W-NW 299 ° 0 min 0 W/m² 13,4 °C 14,9 °C 8,0 km/h (2 Bft)
31.05.2024 23:03 22,1 °C 14,9 °C 63 % 91 % 1009,9 hPa 0,0 l/m² 1,2 km/h (1 Bft) W-NW 299 ° 0 min 0 W/m² 13,4 °C 14,9 °C 6,4 km/h (2 Bft)
31.05.2024 23:04 22,0 °C 14,9 °C 63 % 91 % 1009,9 hPa 0,0 l/m² 1,0 km/h (0 Bft) W-NW 299 ° 0 min 0 W/m² 13,4 °C 14,9 °C 3,2 km/h (1 Bft)
31.05.2024 23:05 22,0 °C 14,9 °C 63 % 91 % 1009,8 hPa 0,0 l/m² 3,5 km/h (1 Bft) W-NW 299 ° 0 min 0 W/m² 13,4 °C 14,9 °C 6,4 km/h (2 Bft)
31.05.2024 23:06 22,0 °C 14,9 °C 63 % 91 % 1009,8 hPa 0,0 l/m² 3,9 km/h (1 Bft) W-NW 300 ° 0 min 0 W/m² 13,4 °C 14,9 °C 6,4 km/h (2 Bft)
31.05.2024 23:07 22,0 °C 14,8 °C 63 % 91 % 1009,9 hPa 0,0 l/m² 2,6 km/h (1 Bft) W-NW 300 ° 0 min 0 W/m² 13,3 °C 14,8 °C 4,8 km/h (1 Bft)
31.05.2024 23:08 22,0 °C 14,8 °C 63 % 91 % 1009,8 hPa 0,0 l/m² 2,4 km/h (1 Bft) W-NW 302 ° 0 min 0 W/m² 13,3 °C 14,8 °C 4,8 km/h (1 Bft)
31.05.2024 23:09 22,0 °C 14,8 °C 63 % 91 % 1009,8 hPa 0,0 l/m² 2,5 km/h (1 Bft) W-NW 302 ° 0 min 0 W/m² 13,3 °C 14,8 °C 6,4 km/h (2 Bft)
31.05.2024 23:11 21,9 °C 14,8 °C 63 % 91 % 1009,9 hPa 0,0 l/m² 2,4 km/h (1 Bft) W-NW 302 ° 0 min 0 W/m² 13,3 °C 14,8 °C 4,8 km/h (1 Bft)
31.05.2024 23:13 22,0 °C 14,8 °C 63 % 91 % 1009,7 hPa 0,0 l/m² 0,8 km/h (0 Bft) W-NW 302 ° 0 min 0 W/m² 13,3 °C 14,8 °C 3,2 km/h (1 Bft)
31.05.2024 23:14 21,9 °C 14,8 °C 63 % 91 % 1009,8 hPa 0,0 l/m² 1,7 km/h (1 Bft) W-NW 302 ° 0 min 0 W/m² 13,3 °C 14,8 °C 4,8 km/h (1 Bft)
31.05.2024 23:15 21,9 °C 14,8 °C 63 % 91 % 1009,9 hPa 0,0 l/m² 5,2 km/h (1 Bft) NW 305 ° 0 min 0 W/m² 13,3 °C 14,8 °C 8,0 km/h (2 Bft)
31.05.2024 23:16 21,9 °C 14,8 °C 63 % 91 % 1009,9 hPa 0,0 l/m² 3,2 km/h (1 Bft) NW 315 ° 0 min 0 W/m² 13,3 °C 14,8 °C 6,4 km/h (2 Bft)
31.05.2024 23:25 21,9 °C 14,8 °C 63 % 91 % 1009,8 hPa 0,0 l/m² 2,5 km/h (1 Bft) W-NW 285 ° 0 min 0 W/m² 13,3 °C 14,8 °C 3,2 km/h (1 Bft)
31.05.2024 23:27 21,9 °C 14,8 °C 63 % 91 % 1009,8 hPa 0,0 l/m² 4,5 km/h (1 Bft) W-NW 294 ° 0 min 0 W/m² 13,3 °C 14,8 °C 14,5 km/h (3 Bft)
31.05.2024 23:28 21,9 °C 14,8 °C 63 % 92 % 1009,8 hPa 0,0 l/m² 2,5 km/h (1 Bft) W-NW 296 ° 0 min 0 W/m² 13,5 °C 14,8 °C 6,4 km/h (2 Bft)
31.05.2024 23:30 21,9 °C 14,8 °C 63 % 92 % 1009,7 hPa 0,0 l/m² 1,8 km/h (1 Bft) W-NW 297 ° 0 min 0 W/m² 13,5 °C 14,8 °C 9,7 km/h (2 Bft)
31.05.2024 23:31 21,9 °C 14,8 °C 63 % 92 % 1009,7 hPa 0,0 l/m² 0,4 km/h (0 Bft) W-NW 297 ° 0 min 0 W/m² 13,5 °C 14,8 °C 3,2 km/h (1 Bft)
31.05.2024 23:32 21,9 °C 14,9 °C 63 % 92 % 1009,7 hPa 0,0 l/m² 1,6 km/h (1 Bft) W-NW 299 ° 0 min 0 W/m² 13,6 °C 14,9 °C 4,8 km/h (1 Bft)
31.05.2024 23:35 21,9 °C 14,9 °C 63 % 92 % 1009,7 hPa 0,0 l/m² 3,1 km/h (1 Bft) W-SW 240 ° 0 min 0 W/m² 13,6 °C 14,9 °C 12,9 km/h (3 Bft)
31.05.2024 23:37 21,9 °C 14,9 °C 63 % 92 % 1009,7 hPa 0,0 l/m² 2,6 km/h (1 Bft) W 280 ° 0 min 0 W/m² 13,6 °C 14,9 °C 6,4 km/h (2 Bft)
31.05.2024 23:39 21,9 °C 14,9 °C 63 % 92 % 1009,7 hPa 0,0 l/m² 1,3 km/h (1 Bft) W 280 ° 0 min 0 W/m² 13,6 °C 14,9 °C 4,8 km/h (1 Bft)
31.05.2024 23:40 21,9 °C 14,9 °C 63 % 92 % 1009,6 hPa 0,0 l/m² 1,0 km/h (0 Bft) W 280 ° 0 min 0 W/m² 13,6 °C 14,9 °C 4,8 km/h (1 Bft)
31.05.2024 23:41 21,9 °C 14,9 °C 63 % 92 % 1009,7 hPa 0,0 l/m² 1,5 km/h (1 Bft) W 280 ° 0 min 0 W/m² 13,6 °C 14,9 °C 4,8 km/h (1 Bft)
31.05.2024 23:42 21,9 °C 14,9 °C 63 % 92 % 1009,7 hPa 0,0 l/m² 1,6 km/h (1 Bft) W 280 ° 0 min 0 W/m² 13,6 °C 14,9 °C 4,8 km/h (1 Bft)
31.05.2024 23:44 21,9 °C 14,9 °C 63 % 92 % 1009,8 hPa 0,0 l/m² 1,2 km/h (1 Bft) W 280 ° 0 min 0 W/m² 13,6 °C 14,9 °C 6,4 km/h (2 Bft)
31.05.2024 23:45 21,9 °C 14,9 °C 63 % 92 % 1009,7 hPa 0,0 l/m² 0,9 km/h (0 Bft) W 280 ° 0 min 0 W/m² 13,6 °C 14,9 °C 3,2 km/h (1 Bft)
31.05.2024 23:47 21,9 °C 14,9 °C 63 % 92 % 1009,7 hPa 0,0 l/m² 3,6 km/h (1 Bft) W-NW 286 ° 0 min 0 W/m² 13,6 °C 14,9 °C 9,7 km/h (2 Bft)
31.05.2024 23:49 21,8 °C 14,9 °C 63 % 92 % 1009,7 hPa 0,0 l/m² 1,2 km/h (1 Bft) W-NW 286 ° 0 min 0 W/m² 13,6 °C 14,9 °C 6,4 km/h (2 Bft)
31.05.2024 23:50 21,8 °C 14,9 °C 63 % 92 % 1009,7 hPa 0,0 l/m² 0,7 km/h (0 Bft) W-NW 286 ° 0 min 0 W/m² 13,6 °C 14,9 °C 3,2 km/h (1 Bft)
31.05.2024 23:51 21,8 °C 14,9 °C 63 % 92 % 1009,7 hPa 0,0 l/m² 3,6 km/h (1 Bft) W-NW 286 ° 0 min 0 W/m² 13,6 °C 14,9 °C 6,4 km/h (2 Bft)
31.05.2024 23:52 21,8 °C 14,9 °C 63 % 92 % 1009,7 hPa 0,0 l/m² 1,2 km/h (1 Bft) W-NW 286 ° 0 min 0 W/m² 13,6 °C 14,9 °C 3,2 km/h (1 Bft)
31.05.2024 23:54 21,9 °C 14,9 °C 63 % 92 % 1009,8 hPa 0,0 l/m² 0,7 km/h (0 Bft) W-NW 286 ° 0 min 0 W/m² 13,6 °C 14,9 °C 4,8 km/h (1 Bft)
31.05.2024 23:55 21,8 °C 14,9 °C 63 % 92 % 1009,7 hPa 0,0 l/m² 0,2 km/h (0 Bft) W-NW 286 ° 0 min 0 W/m² 13,6 °C 14,9 °C 1,6 km/h (1 Bft)
31.05.2024 23:57 21,8 °C 14,9 °C 63 % 92 % 1009,7 hPa 0,0 l/m² 0,0 km/h (0 Bft) W-NW 286 ° 0 min 0 W/m² 13,6 °C 14,9 °C 0,0 km/h (0 Bft)
31.05.2024 23:58 21,8 °C 14,9 °C 63 % 92 % 1009,7 hPa 0,0 l/m² 0,0 km/h (0 Bft) W-NW 286 ° 0 min 0 W/m² 13,6 °C 14,9 °C 0,0 km/h (0 Bft)
31.05.2024 23:59 21,8 °C 14,9 °C 63 % 92 % 1009,7 hPa 0,0 l/m² 0,0 km/h (0 Bft) W-NW 286 ° 0 min 0 W/m² 13,6 °C 14,9 °C 0,0 km/h (0 Bft)
_ Min-Zeit 05:10 04:49 18:01 17:21 00:24 - 23:59 - - - - 04:49 04:49 23:59
Minimum _ 21,5 °C 11,8 °C 61 % 72 % 1004,4 hPa - 0,0 km/h (0 Bft) - - - - 11,0 °C 11,8 °C 0,0 km/h (0 Bft)
_ Max-Zeit 19:34 17:18 19:03 07:07 22:28 23:59 10:49 - - 15:55 11:35 13:10 17:16 09:17
Maximum _ 22,3 °C 19,8 °C 69 % 96 % 1010,2 hPa 0,0 l/m² 15,4 km/h
W (3 Bft)
- - 3 min 737 W/m² 15,3 °C 19,7 °C 24,1 km/h
SW (4 Bft)
Durchschnitt _ 21,8 °C 16,0 °C 62 % 86 % 1007,6 hPa #0,0 l/m² 4,2 km/h (1 Bft) W-SW - #13:48 h 159 W/m² 13,5 °C 15,7 °C 8,2 km/h (2 Bft)
© 2009 Mathias Hoßbach